[[{"header":{"parameterUnit":"m.s-1","parameterCategory":1,"la1":31.0,"la2":29.5877,"lo1":-88.7671,"lo2":-86.6584,"dx":0.0162,"dy":0.0185,"nx":115,"ny":88,"refTime":"2022-12-23T06:00:00:Z","depth":0,"parameterNumber":2,"parameterNumberName":"U-component_of_WINDS"},"data":[0.0,0.0,0.0,0.0,0.0,0.0,0.0,0.0,0.0,0.0,0.0,0.0,0.0,0.0,0.0,0.0,0.0,0.0,0.0,0.0,0.0,0.0,0.0,0.0,0.0,0.0,0.0,0.0,0.0,0.0,0.0,0.0,0.0,0.0,0.0,0.0,0.0,0.0,0.0,0.0,0.0,0.0,0.0,0.0,0.0,0.0,0.0,0.0,0.0,0.0,0.0,0.0,0.0,0.0,0.0,0.0,0.0,0.0,0.0,0.0,0.0,0.0,0.0,0.0,0.0,0.0,0.0,0.0,0.0,0.0,0.0,0.0,0.0,0.0,0.0,0.0,0.0,0.0,0.0,0.0,0.0,0.0,0.0,0.0,0.0,0.0,0.0,0.0,0.0,0.0,0.0,0.0,0.0,0.0,0.0,0.0,0.0,0.0,0.0,0.0,0.0,0.0,0.0,0.0,0.0,0.0,0.0,0.0,0.0,0.0,0.0,0.0,0.0,0.0,0.0,0.0,0.0,0.0,0.0,0.0,0.0,0.0,0.0,0.0,0.0,0.0,0.0,0.0,0.0,0.0,0.0,0.0,0.0,0.0,0.0,0.0,0.0,0.0,0.0,0.0,0.0,0.0,0.0,0.0,0.0,0.0,0.0,0.0,0.0,0.0,0.0,0.0,0.0,0.0,0.0,0.0,0.0,0.0,0.0,0.0,0.0,0.0,0.0,0.0,0.0,0.0,0.0,0.0,0.0,0.0,0.0,0.0,0.0,0.0,0.0,0.0,0.0,0.0,0.0,0.0,0.0,0.0,0.0,0.0,0.0,0.0,0.0,0.0,0.0,0.0,0.0,0.0,0.0,0.0,0.0,0.0,0.0,0.0,0.0,0.0,0.0,0.0,0.0,0.0,0.0,0.0,0.0,0.0,0.0,0.0,0.0,0.0,0.0,0.0,0.0,0.0,0.0,0.0,0.0,0.0,0.0,0.0,0.0,0.0,0.0,0.0,0.0,0.0,0.0,0.0,0.0,0.0,0.0,0.0,0.0,0.0,0.0,0.0,0.0,0.0,0.0,0.0,0.0,0.0,0.0,0.0,0.0,0.0,0.0,0.0,0.0,0.0,0.0,0.0,0.0,0.0,0.0,0.0,0.0,0.0,0.0,0.0,0.0,0.0,0.0,0.0,0.0,0.0,0.0,0.0,0.0,0.0,0.0,0.0,0.0,0.0,0.0,0.0,0.0,0.0,0.0,0.0,0.0,0.0,0.0,0.0,0.0,0.0,0.0,0.0,0.0,0.0,0.0,0.0,0.0,0.0,0.0,0.0,0.0,0.0,0.0,0.0,0.0,0.0,0.0,0.0,0.0,0.0,0.0,0.0,0.0,0.0,0.0,0.0,0.0,0.0,0.0,0.0,0.0,0.0,0.0,0.0,0.0,0.0,0.0,0.0,0.0,0.0,0.0,0.0,0.0,0.0,0.0,0.0,0.0,0.0,0.0,0.0,0.0,0.0,0.0,0.0,0.0,0.0,0.0,0.0,0.0,0.0,0.0,0.0,0.0,0.0,0.0,0.0,0.0,0.0,0.0,0.0,0.0,0.0,0.0,0.0,0.0,0.0,0.0,0.0,0.0,0.0,0.0,0.0,0.0,0.0,0.0,0.0,0.0,0.0,0.0,0.0,0.0,0.0,0.0,0.0,0.0,0.0,0.0,0.0,0.0,0.0,0.0,0.0,0.0,0.0,0.0,0.0,0.0,0.0,0.0,0.0,0.0,0.0,0.0,0.0,0.0,0.0,0.0,0.0,0.0,0.0,0.0,0.0,0.0,0.0,0.0,0.0,0.0,0.0,0.0,0.0,0.0,0.0,0.0,0.0,0.0,0.0,0.0,0.0,0.0,0.0,0.0,0.0,0.0,0.0,0.0,0.0,0.0,0.0,0.0,0.0,0.0,0.0,0.0,0.0,0.0,0.0,0.0,0.0,0.0,0.0,0.0,0.0,0.0,0.0,0.0,0.0,0.0,0.0,0.0,0.0,0.0,0.0,0.0,0.0,0.0,0.0,0.0,0.0,0.0,0.0,0.0,0.0,0.0,0.0,0.0,0.0,0.0,0.0,0.0,0.0,0.0,0.0,0.0,0.0,0.0,0.0,0.0,0.0,0.0,0.0,0.0,0.0,0.0,0.0,0.0,0.0,0.0,0.0,0.0,0.0,0.0,0.0,0.0,0.0,0.0,0.0,0.0,0.0,0.0,0.0,0.0,0.0,0.0,0.0,0.0,0.0,0.0,0.0,0.0,0.0,0.0,0.0,0.0,0.0,0.0,0.0,0.0,0.0,0.0,0.0,0.0,0.0,0.0,0.0,0.0,0.0,0.0,0.0,0.0,0.0,0.0,0.0,0.0,0.0,0.0,0.0,0.0,0.0,0.0,0.0,0.0,0.0,0.0,0.0,0.0,0.0,0.0,0.0,0.0,0.0,0.0,0.0,0.0,0.0,0.0,0.0,0.0,0.0,0.0,0.0,0.0,0.0,0.0,0.0,0.0,0.0,0.0,0.0,0.0,0.0,0.0,0.0,0.0,0.0,0.0,0.0,0.0,0.0,0.0,0.0,0.0,0.0,0.0,0.0,0.0,0.0,0.0,0.0,0.0,0.0,0.0,0.0,0.0,0.0,0.0,0.0,0.0,0.0,0.0,0.0,0.0,0.0,0.0,0.0,0.0,0.0,0.0,0.0,0.0,0.0,0.0,0.0,0.0,0.0,0.0,0.0,0.0,0.0,0.0,0.0,0.0,0.0,0.0,0.0,0.0,0.0,0.0,0.0,0.0,0.0,0.0,0.0,0.0,0.0,0.0,0.0,0.0,0.0,0.0,0.0,0.0,0.0,0.0,0.0,0.0,0.0,0.0,0.0,0.0,0.0,0.0,0.0,0.0,0.0,0.0,0.0,0.0,0.0,0.0,0.0,0.0,0.0,0.0,0.0,0.0,0.0,0.0,0.0,0.0,0.0,0.0,0.0,0.0,0.0,0.0,0.0,0.0,0.0,0.0,0.0,0.0,0.0,0.0,0.0,0.0,0.0,0.0,0.0,0.0,0.0,0.0,0.0,0.0,0.0,0.0,0.0,0.0,0.0,0.0,0.0,0.0,0.0,0.0,0.0,0.0,0.0,0.0,0.0,0.0,0.0,0.0,0.0,0.0,0.0,0.0,0.0,0.0,0.0,0.0,0.0,0.0,0.0,0.0,0.0,0.0,0.0,0.0,0.0,0.0,0.0,0.0,0.0,0.0,0.0,0.0,0.0,0.0,0.0,0.0,0.0,0.0,0.0,0.0,0.0,0.0,0.0,0.0,0.0,0.0,0.0,0.0,0.0,0.0,0.0,0.0,0.0,0.0,0.0,0.0,0.0,0.0,0.0,0.0,0.0,0.0,0.0,0.0,0.0,0.0,0.0,0.0,0.0,0.0,0.0,0.0,0.0,0.0,0.0,0.0,0.0,0.0,0.0,0.0,0.0,0.0,0.0,0.0,0.0,0.0,0.0,0.0,0.0,0.0,0.0,0.0,0.0,0.0,0.0,0.0,0.0,0.0,0.0,0.0,0.0,0.0,0.0,0.0,0.0,0.0,0.0,0.0,0.0,0.0,0.0,0.0,0.0,0.0,0.0,0.0,0.0,0.0,0.0,0.0,0.0,0.0,0.0,0.0,0.0,0.0,0.0,0.0,0.0,0.0,0.0,0.0,0.0,0.0,0.0,0.0,0.0,0.0,0.0,0.0,0.0,0.0,0.0,0.0,0.0,0.0,0.0,0.0,0.0,0.0,0.0,0.0,0.0,0.0,0.0,0.0,0.0,0.0,0.0,0.0,0.0,0.0,0.0,0.0,0.0,0.0,0.0,0.0,0.0,0.0,0.0,0.0,0.0,0.0,0.0,0.0,0.0,0.0,0.0,0.0,0.0,0.0,0.0,0.0,0.0,0.0,0.0,0.0,0.0,0.0,0.0,0.0,0.0,0.0,0.0,0.0,0.0,0.0,0.0,0.0,0.0,0.0,0.0,0.0,0.0,0.0,0.0,0.0,0.0,0.0,0.0,0.0,0.0,0.0,0.0,0.0,0.0,0.0,0.0,0.0,0.0,0.0,0.0,0.0,0.0,0.0,0.0,0.0,0.0,0.0,0.0,0.0,0.0,0.0,0.0,0.0,0.0,0.0,0.0,0.0,0.0,0.0,0.0,0.0,0.0,0.0,0.0,0.0,0.0,0.0,0.0,7.9163,0.0,0.0,0.0,7.8738,0.0,0.0,0.0,0.0,0.0,0.0,0.0,0.0,0.0,0.0,0.0,0.0,0.0,0.0,0.0,0.0,0.0,0.0,0.0,0.0,0.0,0.0,0.0,0.0,0.0,0.0,0.0,0.0,0.0,0.0,0.0,0.0,0.0,0.0,0.0,0.0,0.0,0.0,0.0,0.0,0.0,0.0,0.0,0.0,0.0,0.0,0.0,0.0,0.0,0.0,0.0,0.0,0.0,0.0,0.0,0.0,0.0,0.0,0.0,0.0,0.0,0.0,0.0,0.0,0.0,0.0,0.0,0.0,0.0,0.0,0.0,0.0,0.0,0.0,0.0,0.0,0.0,0.0,0.0,0.0,0.0,0.0,0.0,0.0,0.0,0.0,0.0,0.0,0.0,0.0,0.0,0.0,0.0,0.0,0.0,0.0,0.0,0.0,0.0,0.0,0.0,0.0,0.0,0.0,0.0,0.0,0.0,0.0,0.0,0.0,8.0465,8.12,8.1451,8.112,8.0088,0.0,0.0,0.0,0.0,0.0,0.0,0.0,0.0,0.0,0.0,0.0,0.0,0.0,0.0,0.0,0.0,0.0,0.0,0.0,0.0,0.0,0.0,0.0,0.0,0.0,0.0,0.0,0.0,0.0,0.0,0.0,0.0,0.0,0.0,0.0,0.0,0.0,0.0,0.0,0.0,0.0,0.0,0.0,0.0,0.0,0.0,0.0,0.0,0.0,0.0,0.0,0.0,0.0,0.0,0.0,0.0,0.0,0.0,0.0,0.0,0.0,0.0,0.0,0.0,0.0,0.0,0.0,0.0,0.0,0.0,0.0,0.0,0.0,0.0,0.0,0.0,0.0,0.0,0.0,0.0,0.0,0.0,0.0,0.0,0.0,0.0,0.0,0.0,0.0,0.0,0.0,0.0,0.0,0.0,0.0,0.0,0.0,0.0,0.0,0.0,0.0,0.0,0.0,0.0,0.0,0.0,0.0,0.0,0.0,0.0,0.0,0.0,8.3224,8.2301,8.0481,0.0,0.0,0.0,0.0,0.0,0.0,0.0,0.0,0.0,0.0,0.0,0.0,0.0,0.0,0.0,0.0,0.0,0.0,0.0,0.0,0.0,0.0,0.0,0.0,0.0,0.0,0.0,0.0,0.0,0.0,0.0,0.0,0.0,0.0,0.0,0.0,0.0,0.0,0.0,0.0,0.0,0.0,0.0,0.0,0.0,0.0,0.0,0.0,0.0,0.0,0.0,0.0,0.0,0.0,0.0,0.0,0.0,0.0,0.0,0.0,0.0,0.0,0.0,0.0,0.0,0.0,0.0,0.0,0.0,0.0,0.0,0.0,0.0,0.0,0.0,0.0,0.0,0.0,0.0,0.0,0.0,0.0,0.0,0.0,0.0,0.0,0.0,0.0,0.0,0.0,0.0,0.0,0.0,0.0,0.0,0.0,0.0,0.0,0.0,0.0,0.0,0.0,0.0,0.0,0.0,0.0,0.0,0.0,0.0,0.0,8.266,8.422,8.4174,0.0,7.827,0.0,0.0,0.0,0.0,0.0,0.0,0.0,0.0,0.0,0.0,0.0,0.0,0.0,0.0,0.0,0.0,0.0,0.0,0.0,0.0,0.0,0.0,0.0,0.0,0.0,0.0,0.0,0.0,0.0,0.0,0.0,0.0,0.0,0.0,0.0,0.0,0.0,0.0,0.0,0.0,0.0,0.0,0.0,0.0,0.0,0.0,0.0,0.0,0.0,0.0,0.0,0.0,0.0,0.0,0.0,0.0,0.0,0.0,0.0,0.0,0.0,0.0,0.0,0.0,0.0,0.0,0.0,0.0,0.0,0.0,0.0,0.0,0.0,0.0,0.0,0.0,0.0,0.0,0.0,0.0,0.0,0.0,0.0,0.0,0.0,0.0,0.0,0.0,0.0,0.0,0.0,0.0,0.0,0.0,0.0,0.0,0.0,0.0,0.0,0.0,0.0,0.0,0.0,0.0,0.0,0.0,0.0,0.0,0.0,0.0,8.4443,8.6524,8.551,8.2917,0.0,0.0,0.0,0.0,0.0,0.0,0.0,0.0,0.0,0.0,0.0,0.0,0.0,0.0,0.0,0.0,0.0,0.0,0.0,0.0,0.0,0.0,0.0,0.0,0.0,0.0,0.0,0.0,0.0,0.0,0.0,0.0,0.0,0.0,0.0,0.0,0.0,0.0,0.0,0.0,0.0,0.0,0.0,0.0,0.0,0.0,0.0,0.0,0.0,0.0,0.0,0.0,0.0,0.0,0.0,0.0,0.0,0.0,0.0,0.0,0.0,0.0,0.0,0.0,0.0,0.0,0.0,0.0,0.0,0.0,0.0,0.0,0.0,0.0,0.0,0.0,0.0,0.0,0.0,0.0,0.0,0.0,0.0,0.0,0.0,0.0,0.0,0.0,0.0,0.0,0.0,0.0,0.0,0.0,0.0,0.0,0.0,0.0,0.0,0.0,0.0,0.0,0.0,0.0,0.0,0.0,0.0,0.0,0.0,0.0,8.3589,8.5818,8.7898,8.6808,8.3904,7.9459,0.0,0.0,0.0,0.0,0.0,0.0,0.0,0.0,0.0,0.0,0.0,0.0,0.0,0.0,0.0,0.0,0.0,0.0,0.0,0.0,0.0,0.0,0.0,0.0,0.0,0.0,0.0,0.0,0.0,0.0,0.0,0.0,0.0,0.0,0.0,0.0,0.0,0.0,0.0,0.0,0.0,0.0,0.0,0.0,0.0,0.0,0.0,0.0,0.0,0.0,0.0,0.0,0.0,0.0,0.0,0.0,0.0,0.0,0.0,0.0,0.0,0.0,0.0,0.0,0.0,0.0,0.0,0.0,0.0,0.0,0.0,0.0,0.0,0.0,0.0,0.0,0.0,0.0,0.0,0.0,0.0,0.0,0.0,0.0,0.0,0.0,0.0,0.0,0.0,0.0,0.0,0.0,0.0,0.0,0.0,0.0,0.0,0.0,0.0,0.0,0.0,0.0,0.0,0.0,0.0,0.0,0.0,0.0,8.2957,8.474,8.6375,8.8084,8.7847,8.5016,0.0,0.0,0.0,0.0,0.0,0.0,0.0,0.0,0.0,0.0,0.0,0.0,0.0,0.0,0.0,0.0,0.0,0.0,0.0,0.0,0.0,0.0,0.0,0.0,0.0,0.0,0.0,0.0,0.0,0.0,0.0,0.0,0.0,0.0,0.0,0.0,0.0,0.0,0.0,0.0,0.0,0.0,0.0,0.0,0.0,0.0,0.0,0.0,0.0,0.0,0.0,0.0,0.0,0.0,0.0,0.0,0.0,0.0,0.0,0.0,0.0,0.0,0.0,0.0,0.0,0.0,0.0,0.0,0.0,0.0,0.0,0.0,0.0,0.0,0.0,0.0,0.0,0.0,0.0,0.0,0.0,0.0,0.0,0.0,0.0,0.0,0.0,0.0,0.0,0.0,0.0,0.0,0.0,0.0,0.0,0.0,0.0,0.0,0.0,0.0,0.0,0.0,0.0,0.0,0.0,0.0,0.0,0.0,0.0,8.3849,8.7564,8.9533,8.9607,8.8021,8.4977,0.0,0.0,0.0,0.0,0.0,0.0,0.0,0.0,0.0,0.0,0.0,0.0,0.0,0.0,0.0,0.0,0.0,0.0,0.0,0.0,0.0,0.0,0.0,0.0,0.0,0.0,0.0,0.0,0.0,0.0,0.0,0.0,0.0,0.0,0.0,0.0,0.0,0.0,0.0,0.0,0.0,0.0,0.0,0.0,0.0,0.0,0.0,0.0,0.0,0.0,0.0,0.0,0.0,0.0,0.0,0.0,0.0,0.0,0.0,0.0,0.0,0.0,0.0,0.0,0.0,0.0,0.0,0.0,0.0,0.0,0.0,0.0,0.0,0.0,0.0,0.0,0.0,0.0,0.0,0.0,0.0,0.0,0.0,0.0,0.0,0.0,0.0,0.0,0.0,0.0,0.0,0.0,0.0,0.0,0.0,0.0,0.0,0.0,0.0,0.0,0.0,0.0,0.0,0.0,0.0,0.0,0.0,0.0,0.0,8.5075,8.9719,9.1725,9.087,8.8753,8.5558,0.0,0.0,0.0,0.0,0.0,0.0,0.0,0.0,0.0,0.0,0.0,0.0,0.0,0.0,0.0,0.0,0.0,0.0,0.0,0.0,0.0,0.0,0.0,0.0,0.0,0.0,0.0,0.0,0.0,0.0,0.0,0.0,0.0,0.0,0.0,0.0,0.0,0.0,0.0,0.0,0.0,0.0,0.0,0.0,0.0,0.0,0.0,0.0,0.0,0.0,0.0,0.0,0.0,0.0,0.0,0.0,0.0,0.0,0.0,0.0,0.0,0.0,0.0,0.0,0.0,0.0,0.0,0.0,0.0,0.0,0.0,0.0,0.0,0.0,0.0,0.0,0.0,0.0,0.0,0.0,0.0,0.0,0.0,0.0,0.0,0.0,0.0,0.0,0.0,0.0,0.0,0.0,0.0,0.0,0.0,0.0,0.0,0.0,0.0,0.0,0.0,0.0,0.0,0.0,0.0,0.0,0.0,0.0,8.0067,8.6635,9.0907,9.2691,9.1725,9.0127,8.6969,0.0,0.0,0.0,0.0,0.0,0.0,0.0,0.0,0.0,0.0,0.0,0.0,0.0,0.0,0.0,0.0,0.0,0.0,0.0,0.0,0.0,0.0,0.0,0.0,0.0,0.0,0.0,0.0,0.0,0.0,0.0,0.0,0.0,0.0,0.0,0.0,0.0,0.0,0.0,0.0,0.0,0.0,0.0,0.0,0.0,0.0,0.0,0.0,0.0,0.0,0.0,0.0,0.0,0.0,0.0,0.0,0.0,0.0,0.0,0.0,0.0,0.0,0.0,0.0,0.0,0.0,0.0,0.0,0.0,0.0,0.0,0.0,0.0,0.0,0.0,0.0,0.0,0.0,0.0,0.0,0.0,0.0,0.0,0.0,0.0,0.0,0.0,0.0,0.0,0.0,0.0,0.0,0.0,0.0,0.0,0.0,0.0,0.0,0.0,0.0,0.0,0.0,0.0,0.0,0.0,0.0,0.0,0.0,0.0,8.8493,9.3062,9.4615,9.2811,9.1046,8.7886,0.0,0.0,0.0,0.0,0.0,0.0,0.0,0.0,0.0,0.0,0.0,0.0,0.0,0.0,0.0,0.0,0.0,0.0,0.0,0.0,0.0,0.0,0.0,0.0,0.0,0.0,0.0,0.0,0.0,0.0,0.0,0.0,0.0,0.0,0.0,0.0,0.0,0.0,0.0,0.0,0.0,0.0,0.0,0.0,0.0,0.0,0.0,0.0,0.0,0.0,0.0,0.0,0.0,0.0,0.0,0.0,0.0,0.0,0.0,0.0,0.0,0.0,0.0,0.0,0.0,0.0,0.0,0.0,0.0,0.0,0.0,0.0,0.0,0.0,0.0,0.0,0.0,0.0,0.0,0.0,0.0,0.0,0.0,0.0,0.0,0.0,0.0,0.0,0.0,0.0,0.0,0.0,0.0,0.0,0.0,0.0,0.0,0.0,0.0,0.0,0.0,0.0,0.0,0.0,0.0,0.0,0.0,0.0,0.0,9.2914,9.5663,9.6846,9.6415,9.402,9.0526,8.5872,0.0,0.0,0.0,0.0,0.0,0.0,0.0,0.0,0.0,0.0,0.0,0.0,0.0,0.0,0.0,0.0,0.0,0.0,0.0,0.0,0.0,0.0,0.0,0.0,0.0,0.0,0.0,0.0,0.0,0.0,0.0,0.0,0.0,0.0,0.0,0.0,0.0,0.0,0.0,0.0,0.0,0.0,0.0,0.0,0.0,0.0,0.0,0.0,0.0,0.0,0.0,0.0,0.0,0.0,0.0,0.0,0.0,0.0,0.0,0.0,0.0,0.0,0.0,0.0,0.0,0.0,0.0,0.0,0.0,0.0,0.0,0.0,0.0,0.0,0.0,0.0,0.0,0.0,0.0,0.0,0.0,0.0,0.0,0.0,0.0,0.0,0.0,0.0,0.0,0.0,0.0,0.0,0.0,0.0,0.0,0.0,0.0,0.0,0.0,0.0,0.0,0.0,0.0,0.0,0.0,0.0,0.0,0.0,9.9229,9.8746,9.9597,10.1816,9.8625,9.4541,0.0,0.0,0.0,0.0,0.0,0.0,0.0,0.0,0.0,0.0,0.0,0.0,0.0,0.0,0.0,0.0,0.0,0.0,0.0,0.0,0.0,0.0,0.0,0.0,0.0,0.0,0.0,0.0,0.0,0.0,0.0,0.0,0.0,0.0,0.0,0.0,0.0,0.0,0.0,0.0,0.0,0.0,0.0,0.0,0.0,0.0,0.0,0.0,0.0,0.0,0.0,0.0,0.0,0.0,0.0,0.0,0.0,0.0,0.0,0.0,0.0,0.0,0.0,0.0,0.0,0.0,0.0,0.0,0.0,0.0,0.0,0.0,0.0,0.0,0.0,0.0,0.0,0.0,0.0,0.0,0.0,0.0,0.0,0.0,0.0,0.0,0.0,0.0,0.0,0.0,0.0,0.0,0.0,0.0,0.0,0.0,0.0,0.0,0.0,0.0,0.0,0.0,0.0,0.0,0.0,0.0,0.0,0.0,0.0,10.1532,10.391,10.4876,10.4389,10.1121,9.6808,0.0,0.0,0.0,0.0,0.0,0.0,0.0,0.0,0.0,0.0,0.0,0.0,0.0,0.0,0.0,0.0,0.0,0.0,0.0,0.0,0.0,0.0,0.0,0.0,0.0,0.0,0.0,0.0,0.0,0.0,0.0,0.0,0.0,0.0,0.0,0.0,0.0,0.0,0.0,0.0,0.0,0.0,0.0,0.0,0.0,0.0,0.0,0.0,0.0,0.0,0.0,0.0,0.0,0.0,0.0,0.0,0.0,0.0,0.0,0.0,0.0,0.0,0.0,0.0,0.0,0.0,0.0,0.0,0.0,0.0,0.0,0.0,0.0,0.0,0.0,0.0,0.0,0.0,0.0,0.0,0.0,0.0,0.0,0.0,0.0,0.0,0.0,0.0,0.0,0.0,0.0,0.0,0.0,0.0,0.0,0.0,0.0,0.0,0.0,0.0,0.0,0.0,0.0,0.0,0.0,0.0,0.0,0.0,9.9081,10.4207,10.8517,10.9929,10.8446,10.4169,9.9411,0.0,0.0,0.0,0.0,0.0,0.0,0.0,0.0,0.0,0.0,0.0,0.0,0.0,0.0,0.0,0.0,0.0,0.0,0.0,0.0,0.0,0.0,0.0,0.0,0.0,0.0,0.0,0.0,0.0,0.0,0.0,0.0,0.0,0.0,0.0,0.0,0.0,0.0,0.0,0.0,0.0,0.0,0.0,0.0,0.0,0.0,0.0,0.0,0.0,0.0,0.0,0.0,0.0,0.0,0.0,0.0,0.0,0.0,0.0,0.0,0.0,0.0,0.0,0.0,0.0,0.0,0.0,0.0,0.0,0.0,0.0,0.0,0.0,0.0,0.0,0.0,0.0,0.0,0.0,0.0,0.0,0.0,0.0,0.0,0.0,0.0,0.0,0.0,0.0,0.0,0.0,0.0,0.0,0.0,0.0,0.0,0.0,0.0,0.0,0.0,0.0,0.0,0.0,0.0,0.0,0.0,0.0,0.0,10.3093,10.6622,11.1972,11.4089,11.2566,10.7031,10.179,0.0,0.0,0.0,0.0,0.0,0.0,0.0,0.0,0.0,0.0,0.0,0.0,0.0,0.0,0.0,0.0,0.0,0.0,0.0,0.0,0.0,0.0,0.0,0.0,0.0,0.0,0.0,0.0,0.0,0.0,0.0,0.0,0.0,0.0,0.0,0.0,0.0,0.0,0.0,0.0,0.0,0.0,0.0,0.0,0.0,0.0,0.0,0.0,0.0,0.0,0.0,0.0,0.0,0.0,0.0,0.0,0.0,0.0,0.0,0.0,0.0,0.0,0.0,0.0,0.0,0.0,0.0,0.0,0.0,0.0,0.0,0.0,0.0,0.0,0.0,0.0,0.0,0.0,0.0,0.0,0.0,0.0,0.0,0.0,0.0,0.0,0.0,0.0,0.0,0.0,0.0,0.0,0.0,0.0,0.0,0.0,0.0,0.0,0.0,0.0,0.0,0.0,0.0,0.0,0.0,0.0,0.0,0.0,10.2946,10.8257,11.1452,11.3198,11.3495,10.7328,10.2015,0.0,0.0,0.0,0.0,0.0,0.0,0.0,0.0,0.0,0.0,0.0,0.0,0.0,0.0,0.0,0.0,0.0,0.0,0.0,0.0,0.0,0.0,0.0,0.0,0.0,0.0,0.0,0.0,0.0,0.0,0.0,0.0,0.0,0.0,0.0,0.0,0.0,0.0,0.0,0.0,0.0,0.0,0.0,0.0,0.0,0.0,0.0,0.0,8.5724,0.0,0.0,0.0,0.0,0.0,0.0,0.0,0.0,0.0,0.0,0.0,0.0,0.0,0.0,0.0,0.0,0.0,0.0,0.0,0.0,0.0,0.0,0.0,0.0,0.0,0.0,0.0,0.0,0.0,0.0,0.0,0.0,0.0,0.0,0.0,0.0,0.0,0.0,0.0,0.0,0.0,0.0,0.0,0.0,0.0,0.0,0.0,0.0,0.0,0.0,0.0,0.0,0.0,0.0,0.0,0.0,0.0,0.0,0.0,10.391,10.9297,11.186,11.3346,11.3569,10.8145,10.287,0.0,0.0,0.0,0.0,0.0,0.0,0.0,0.0,0.0,0.0,0.0,0.0,0.0,0.0,0.0,0.0,0.0,0.0,0.0,0.0,0.0,0.0,0.0,0.0,0.0,0.0,0.0,0.0,0.0,0.0,0.0,0.0,0.0,0.0,0.0,0.0,0.0,0.0,0.0,0.0,0.0,0.0,0.0,0.0,0.0,0.0,0.0,0.0,0.0,0.0,0.0,0.0,0.0,0.0,0.0,0.0,0.0,0.0,0.0,0.0,0.0,0.0,0.0,0.0,0.0,0.0,0.0,0.0,0.0,0.0,0.0,0.0,0.0,0.0,0.0,0.0,0.0,0.0,0.0,0.0,0.0,0.0,0.0,0.0,0.0,0.0,0.0,0.0,0.0,0.0,0.0,0.0,0.0,0.0,0.0,0.0,0.0,0.0,0.0,0.0,0.0,0.0,0.0,0.0,0.0,0.0,0.0,10.05,10.517,11.03,11.2789,11.3978,11.3904,10.9185,10.391,9.83,0.0,0.0,0.0,0.0,0.0,0.0,0.0,0.0,0.0,0.0,0.0,0.0,0.0,0.0,0.0,0.0,0.0,0.0,0.0,0.0,0.0,0.0,0.0,0.0,0.0,0.0,0.0,0.0,0.0,0.0,0.0,0.0,0.0,0.0,0.0,0.0,0.0,0.0,8.4609,8.7655,0.0,0.0,0.0,0.0,0.0,0.0,0.0,0.0,8.6185,0.0,0.0,0.0,0.0,0.0,0.0,0.0,0.0,0.0,0.0,0.0,0.0,0.0,0.0,0.0,0.0,0.0,0.0,0.0,0.0,0.0,0.0,0.0,0.0,0.0,0.0,0.0,0.0,0.0,0.0,0.0,0.0,0.0,0.0,0.0,0.0,0.0,0.0,0.0,0.0,0.0,0.0,0.0,0.0,0.0,0.0,0.0,0.0,0.0,0.0,0.0,0.0,0.0,0.0,0.0,0.0,9.7026,10.1165,10.6168,11.1972,11.3866,11.4832,11.4684,11.0003,10.4727,9.9155,0.0,0.0,0.0,0.0,0.0,0.0,0.0,0.0,0.0,0.0,0.0,0.0,0.0,0.0,0.0,0.0,0.0,0.0,0.0,0.0,0.0,0.0,0.0,0.0,0.0,0.0,0.0,0.0,0.0,0.0,0.0,0.0,0.0,0.0,0.0,0.0,0.0,0.0,0.0,8.8793,9.0115,0.0,0.0,0.0,0.0,0.0,0.0,0.0,0.0,8.6611,0.0,0.0,0.0,0.0,0.0,0.0,0.0,0.0,0.0,0.0,0.0,0.0,0.0,0.0,0.0,0.0,0.0,0.0,0.0,0.0,0.0,0.0,0.0,0.0,0.0,0.0,0.0,0.0,0.0,0.0,0.0,0.0,0.0,0.0,0.0,0.0,0.0,0.0,0.0,0.0,0.0,0.0,0.0,0.0,0.0,0.0,0.0,0.0,0.0,0.0,0.0,0.0,0.0,0.0,0.0,9.8614,10.394,10.9062,11.3644,11.5018,11.5427,11.4907,10.9817,10.4505,0.0,0.0,0.0,0.0,0.0,0.0,0.0,0.0,0.0,0.0,0.0,0.0,0.0,0.0,0.0,0.0,0.0,0.0,0.0,0.0,0.0,0.0,0.0,0.0,0.0,0.0,0.0,0.0,0.0,0.0,0.0,0.0,0.0,0.0,0.0,0.0,0.0,0.0,0.0,0.0,9.0372,9.206,9.2537,0.0,0.0,0.0,0.0,0.0,0.0,8.8434,8.884,0.0,0.0,0.0,0.0,0.0,0.0,0.0,0.0,0.0,0.0,0.0,0.0,0.0,0.0,0.0,0.0,0.0,0.0,0.0,0.0,0.0,0.0,0.0,0.0,0.0,0.0,0.0,0.0,0.0,0.0,0.0,0.0,0.0,0.0,0.0,0.0,0.0,0.0,0.0,0.0,0.0,0.0,0.0,0.0,0.0,0.0,0.0,0.0,0.0,0.0,0.0,0.0,0.0,0.0,0.0,9.9908,10.6201,11.1293,11.4609,11.5873,11.591,11.4721,10.9185,10.3947,0.0,0.0,0.0,0.0,0.0,0.0,0.0,0.0,0.0,0.0,0.0,0.0,0.0,0.0,0.0,0.0,0.0,0.0,0.0,0.0,0.0,0.0,0.0,0.0,0.0,0.0,0.0,0.0,0.0,0.0,0.0,0.0,0.0,0.0,0.0,0.0,0.0,0.0,0.0,0.0,0.0,9.4189,9.5731,9.3602,0.0,0.0,0.0,0.0,9.0582,9.1573,0.0,0.0,0.0,0.0,0.0,0.0,0.0,0.0,0.0,0.0,0.0,0.0,0.0,0.0,0.0,0.0,0.0,0.0,0.0,0.0,0.0,0.0,0.0,0.0,0.0,0.0,0.0,0.0,0.0,0.0,0.0,0.0,0.0,0.0,0.0,0.0,0.0,0.0,0.0,0.0,0.0,0.0,0.0,0.0,0.0,0.0,0.0,0.0,0.0,0.0,0.0,0.0,0.0,0.0,0.0,0.0,9.9871,10.5683,11.0476,11.3866,11.6133,11.6207,11.3941,10.8368,10.339,0.0,0.0,0.0,0.0,0.0,0.0,0.0,0.0,0.0,0.0,0.0,0.0,0.0,0.0,0.0,0.0,0.0,0.0,0.0,0.0,0.0,0.0,0.0,0.0,0.0,0.0,0.0,0.0,0.0,0.0,0.0,0.0,0.0,0.0,0.0,0.0,0.0,0.0,0.0,0.0,0.0,9.5804,9.7383,9.6685,9.5474,0.0,0.0,0.0,9.397,9.5404,0.0,0.0,0.0,0.0,0.0,0.0,0.0,0.0,0.0,0.0,0.0,0.0,0.0,0.0,0.0,0.0,0.0,0.0,0.0,0.0,0.0,0.0,0.0,0.0,0.0,0.0,0.0,0.0,0.0,0.0,0.0,0.0,0.0,0.0,0.0,0.0,0.0,0.0,0.0,0.0,0.0,0.0,0.0,0.0,0.0,0.0,0.0,0.0,0.0,0.0,0.0,0.0,0.0,0.0,0.0,9.8171,10.0647,10.8691,11.386,11.5798,11.7321,11.695,11.4535,10.8442,10.3279,0.0,0.0,0.0,0.0,0.0,0.0,0.0,0.0,0.0,0.0,0.0,0.0,0.0,0.0,0.0,0.0,0.0,0.0,0.0,0.0,0.0,0.0,0.0,0.0,0.0,0.0,0.0,0.0,0.0,0.0,0.0,0.0,0.0,0.0,0.0,0.0,0.0,0.0,0.0,0.0,0.0,0.0,9.9585,9.8851,0.0,0.0,0.0,9.6025,9.5733,0.0,0.0,0.0,0.0,0.0,0.0,0.0,0.0,0.0,0.0,0.0,0.0,0.0,0.0,0.0,0.0,0.0,0.0,0.0,0.0,0.0,0.0,0.0,0.0,0.0,0.0,0.0,0.0,0.0,0.0,0.0,0.0,0.0,0.0,0.0,0.0,0.0,0.0,0.0,0.0,0.0,0.0,0.0,0.0,0.0,0.0,0.0,0.0,0.0,0.0,0.0,0.0,0.0,0.0,0.0,0.0,0.0,10.2052,11.1738,11.7507,11.8882,11.9513,11.8696,11.6207,11.0449,0.0,0.0,0.0,0.0,0.0,0.0,0.0,0.0,0.0,0.0,0.0,0.0,0.0,0.0,0.0,0.0,0.0,0.0,0.0,0.0,0.0,0.0,0.0,0.0,0.0,0.0,0.0,7.3914,0.0,0.0,0.0,0.0,0.0,0.0,0.0,0.0,0.0,0.0,0.0,0.0,0.0,0.0,9.8154,10.1347,10.076,10.0283,0.0,0.0,9.8411,9.9076,10.1191,10.1714,0.0,0.0,0.0,0.0,0.0,0.0,0.0,0.0,0.0,0.0,0.0,0.0,0.0,0.0,0.0,0.0,0.0,0.0,0.0,0.0,0.0,0.0,0.0,0.0,0.0,0.0,0.0,0.0,0.0,0.0,0.0,0.0,0.0,0.0,0.0,0.0,0.0,0.0,0.0,0.0,0.0,0.0,0.0,0.0,0.0,0.0,0.0,0.0,0.0,0.0,0.0,0.0,0.0,0.0,0.0,10.4643,11.3704,11.9959,12.2931,12.3154,12.2002,11.9588,11.5464,10.9483,0.0,0.0,0.0,0.0,0.0,0.0,0.0,0.0,0.0,0.0,0.0,0.0,0.0,0.0,0.0,0.0,0.0,0.0,0.0,0.0,0.0,0.0,0.0,0.0,0.0,0.0,0.0,0.0,0.0,0.0,0.0,0.0,0.0,0.0,0.0,0.0,0.0,0.0,0.0,0.0,0.0,9.8961,10.2191,10.2522,10.3631,0.0,0.0,10.3154,10.5642,10.691,10.6371,10.2378,0.0,0.0,0.0,0.0,0.0,0.0,0.0,0.0,0.0,0.0,0.0,0.0,0.0,0.0,0.0,0.0,0.0,0.0,0.0,0.0,0.0,0.0,0.0,0.0,0.0,0.0,0.0,0.0,0.0,0.0,0.0,0.0,0.0,0.0,0.0,0.0,0.0,0.0,0.0,0.0,0.0,0.0,0.0,0.0,0.0,0.0,0.0,0.0,0.0,0.0,0.0,0.0,0.0,10.2018,10.5686,11.5233,12.1742,12.4863,12.4529,12.3563,12.2151,11.7693,11.212,0.0,0.0,0.0,0.0,0.0,0.0,0.0,0.0,0.0,0.0,0.0,0.0,0.0,0.0,0.0,0.0,0.0,0.0,0.0,0.0,0.0,0.0,0.0,0.0,0.0,0.0,0.0,0.0,8.0431,8.162,8.24,0.0,0.0,0.0,0.0,0.0,0.0,0.0,0.0,0.0,0.0,9.9989,10.366,10.5495,0.0,0.0,10.772,10.6166,10.5509,10.6549,10.5927,10.1536,9.9501,0.0,0.0,0.0,0.0,0.0,0.0,0.0,0.0,0.0,0.0,0.0,0.0,0.0,0.0,0.0,0.0,0.0,0.0,0.0,0.0,0.0,0.0,0.0,0.0,0.0,0.0,0.0,0.0,0.0,0.0,0.0,0.0,0.0,0.0,0.0,0.0,0.0,0.0,0.0,0.0,0.0,0.0,0.0,0.0,0.0,0.0,0.0,0.0,0.0,0.0,0.0,0.0,10.3909,10.7653,11.6978,12.3637,12.7389,12.6423,12.5457,12.4529,12.1037,11.6207,0.0,0.0,0.0,0.0,0.0,0.0,0.0,0.0,0.0,0.0,0.0,0.0,0.0,0.0,0.0,0.0,0.0,0.0,0.0,0.0,0.0,0.0,0.0,0.0,0.0,0.0,0.0,0.0,8.24,8.3514,8.4295,0.0,0.0,0.0,0.0,0.0,0.0,0.0,0.0,0.0,0.0,10.1017,10.3448,10.6056,10.7978,10.8607,10.7593,10.6415,10.5189,10.6192,10.6012,10.276,0.0,0.0,0.0,0.0,0.0,0.0,0.0,0.0,0.0,0.0,0.0,0.0,0.0,0.0,0.0,0.0,0.0,0.0,0.0,0.0,0.0,0.0,0.0,0.0,0.0,0.0,0.0,8.4874,0.0,0.0,8.3586,0.0,0.0,0.0,0.0,0.0,0.0,0.0,0.0,0.0,0.0,0.0,0.0,0.0,0.0,0.0,0.0,0.0,0.0,0.0,0.0,0.0,0.0,0.0,11.0879,11.9094,12.5755,13.0436,12.9135,12.7872,12.7055,12.62,12.23,11.4981,0.0,0.0,0.0,0.0,0.0,0.0,0.0,0.0,0.0,0.0,0.0,0.0,0.0,0.0,0.0,0.0,0.0,0.0,0.0,0.0,0.0,0.0,0.0,0.0,0.0,0.0,7.9725,8.1768,8.3552,0.0,0.0,0.0,0.0,0.0,0.0,0.0,0.0,0.0,0.0,9.7052,10.2125,10.0961,10.3506,10.5539,10.5386,10.3641,10.3272,10.5757,10.6797,10.7316,0.0,0.0,0.0,0.0,0.0,0.0,0.0,0.0,0.0,0.0,0.0,0.0,0.0,0.0,0.0,0.0,0.0,0.0,0.0,0.0,0.0,0.0,0.0,0.0,0.0,0.0,0.0,9.0036,9.0737,0.0,0.0,0.0,0.0,0.0,0.0,0.0,0.0,0.0,0.0,0.0,9.9648,10.12,0.0,0.0,0.0,0.0,0.0,0.0,0.0,0.0,0.0,0.0,0.0,0.0,10.6027,11.0593,11.9068,12.5346,12.9098,12.869,12.8244,12.7984,12.7204,12.3737,11.7208,0.0,0.0,0.0,0.0,0.0,0.0,0.0,0.0,0.0,0.0,0.0,0.0,0.0,0.0,0.0,0.0,0.0,0.0,0.0,0.0,0.0,0.0,0.0,0.0,0.0,8.2363,0.0,0.0,0.0,0.0,0.0,0.0,0.0,0.0,0.0,0.0,0.0,8.9657,9.2498,9.6915,10.0491,10.2153,10.4698,10.7479,0.0,0.0,0.0,0.0,0.0,0.0,0.0,0.0,0.0,0.0,0.0,0.0,0.0,0.0,9.7163,9.3712,9.2648,9.2244,9.2244,0.0,0.0,0.0,0.0,0.0,0.0,0.0,0.0,0.0,0.0,0.0,0.0,0.0,0.0,0.0,0.0,9.4222,0.0,0.0,0.0,0.0,0.0,0.0,0.0,0.0,10.2276,10.4871,10.5948,10.7177,10.7625,0.0,10.5953,10.1532,0.0,0.0,0.0,0.0,0.0,0.0,0.0,0.0,10.6845,11.1043,11.8659,12.438,12.7761,12.7724,12.7686,12.7947,12.7464,12.5076,12.069,11.6171,11.203,0.0,0.0,0.0,0.0,0.0,0.0,0.0,0.0,0.0,0.0,0.0,0.0,0.0,0.0,0.0,0.0,0.0,0.0,0.0,0.0,0.0,0.0,0.0,8.5558,0.0,0.0,0.0,0.0,0.0,0.0,0.0,0.0,0.0,8.6581,8.9435,9.2639,9.5479,9.9314,10.1972,10.2495,0.0,0.0,0.0,0.0,0.0,0.0,0.0,10.7131,10.6544,10.6578,10.6797,10.6945,10.578,10.439,10.3322,0.0,0.0,9.6869,9.5547,9.5254,9.5511,9.6392,9.7309,9.7897,9.9292,10.0503,0.0,0.0,0.0,0.0,0.0,0.0,0.0,0.0,9.6647,9.718,0.0,9.9002,0.0,0.0,0.0,0.0,0.0,0.0,0.0,0.0,11.337,11.5493,11.2473,11.2523,11.3086,11.3681,10.9929,10.7625,10.6622,10.3576,0.0,0.0,0.0,0.0,0.0,0.0,10.848,11.2603,11.825,12.3043,12.6869,12.6386,12.6423,12.7278,12.7278,12.6727,12.544,12.2185,11.8673,11.4919,10.9886,0.0,0.0,0.0,0.0,0.0,0.0,0.0,0.0,0.0,0.0,0.0,0.0,0.0,0.0,0.0,0.0,0.0,0.0,0.0,0.0,8.8753,0.0,0.0,0.0,0.0,0.0,0.0,0.0,0.0,0.0,0.0,9.061,9.2826,9.5626,9.7985,0.0,0.0,0.0,0.0,10.6746,10.2834,10.2721,10.365,10.4653,10.7653,11.068,11.2938,0.0,0.0,11.1583,10.9473,10.8192,10.8082,10.7242,10.5054,10.0429,9.9512,9.9145,9.8484,9.9548,10.098,10.2522,10.3917,10.5275,10.0001,0.0,0.0,0.0,0.0,9.479,9.6548,9.9001,9.979,10.1439,10.3527,10.335,0.0,0.0,0.0,0.0,0.0,0.0,10.6714,10.965,11.2399,11.4483,11.5902,11.6021,11.643,11.7173,11.6021,11.565,11.591,11.3904,10.8145,9.9081,0.0,0.0,0.0,0.0,11.011,11.3993,11.8478,12.1837,12.3988,12.5134,12.6762,12.8912,12.8392,12.7755,12.7233,12.4704,12.1607,11.7892,11.3748,0.0,0.0,0.0,0.0,0.0,0.0,0.0,0.0,0.0,0.0,0.0,0.0,0.0,0.0,0.0,0.0,0.0,0.0,0.0,9.121,9.3109,9.3342,0.0,0.0,0.0,0.0,0.0,0.0,0.0,0.0,0.0,9.8052,9.7761,9.8281,0.0,0.0,10.3019,10.2167,10.6201,10.9563,11.0487,0.0,0.0,0.0,11.4873,11.427,11.4974,11.5751,11.591,11.4936,11.4058,11.314,11.1826,11.1288,11.0086,10.7525,10.5422,10.432,10.4027,10.4357,10.4944,10.5972,10.7037,10.7991,10.5693,10.2461,9.9687,9.8203,9.7855,9.8234,9.982,10.2286,10.3241,10.5089,10.7374,10.7988,10.7057,10.508,10.5226,0.0,0.0,0.0,11.0242,11.3593,11.4038,11.5419,11.7359,11.773,11.8139,11.8622,11.8956,11.9365,11.9848,11.8213,11.3792,10.6771,0.0,0.0,10.5248,10.8925,11.2263,11.5095,11.8799,12.1415,12.2806,12.4672,12.6856,12.9544,12.9172,12.9109,12.9362,12.7457,12.5013,12.1887,11.8203,11.3759,0.0,0.0,0.0,0.0,0.0,0.0,0.0,0.0,0.0,0.0,0.0,9.2327,9.0703,0.0,0.0,0.0,9.4857,9.5064,9.5268,9.6534,0.0,0.0,0.0,0.0,0.0,0.0,0.0,9.8366,10.0531,10.2547,10.4152,10.3377,10.3089,10.4096,10.5021,10.576,10.6242,0.0,11.3019,11.5013,11.6147,11.7614,11.9874,11.9638,11.9254,11.992,12.0104,11.9749,11.876,11.797,11.6899,11.5802,11.4802,11.3912,11.3073,11.1368,10.9569,10.8175,10.8101,10.8578,10.9312,11.012,11.0854,11.1192,10.9891,10.3836,10.157,10.1978,10.2015,10.2907,10.4542,10.6771,10.8112,10.8961,11.2319,11.1842,10.853,10.7914,0.0,0.0,11.2287,11.4298,11.7433,11.7433,11.747,11.7544,11.825,11.8696,11.8845,11.9588,11.9996,12.0033,11.851,11.7284,11.643,11.3346,11.0969,10.9631,11.2455,11.4631,11.6132,11.9096,12.1288,12.288,12.4617,12.6856,12.9618,12.9693,13.0301,13.1454,13.0249,12.8444,12.6189,12.2674,11.8354,11.3363,0.0,0.0,0.0,0.0,0.0,0.0,0.0,0.0,0.0,0.0,0.0,0.0,0.0,0.0,0.0,9.9964,0.0,10.1146,10.0028,0.0,0.0,0.0,9.944,10.2595,10.3099,10.3802,10.5268,0.0,0.0,0.0,0.0,10.9185,10.9639,11.099,11.1995,11.2346,11.4816,11.6926,11.7347,11.8463,11.9527,12.1045,12.2787,12.4579,12.5703,12.5946,12.458,12.2867,12.1235,12.0096,11.9461,11.8048,11.6892,11.7278,11.6507,11.5112,11.1441,11.1184,11.1845,11.2616,11.3313,11.3864,11.4201,11.2752,11.0523,10.8294,10.6176,10.6176,10.6771,10.7774,10.8368,10.9709,11.1571,11.3166,11.4324,11.5158,11.492,11.5204,11.5864,11.6087,11.657,11.7396,11.7433,11.773,11.8325,11.8547,11.929,12.0442,12.0702,12.1111,12.1631,12.0702,11.9811,11.8956,11.695,11.5167,11.3681,11.4944,11.6476,11.8315,11.9128,12.0812,12.3619,12.4783,12.6671,12.9618,12.9693,13.0247,13.1226,13.0333,12.8852,12.6724,12.4508,12.0951,11.584,11.165,0.0,0.0,0.0,0.0,0.0,0.0,0.0,0.0,0.0,9.5934,9.3339,0.0,9.8221,0.0,10.5701,10.8892,10.8762,11.0227,0.0,0.0,10.7129,10.701,10.7759,10.8439,10.8679,10.8289,11.024,11.1777,11.2219,11.3023,11.4329,11.6215,11.4194,11.2857,11.3779,11.819,12.1348,12.1933,12.476,12.7334,12.7334,12.7571,12.7733,12.7944,12.7549,12.6779,12.5875,12.5019,12.398,12.2344,12.1661,12.0721,11.9354,11.8856,11.8269,11.669,11.5589,11.5112,11.5883,11.6213,11.6507,11.7263,11.6318,11.5871,11.4532,11.2588,11.0386,10.982,11.0523,11.0973,11.2167,11.3804,11.4739,11.6042,11.7524,11.7561,11.7396,11.7265,11.7265,11.7144,11.7058,11.7144,11.7673,11.849,11.8909,11.9848,12.1074,12.1445,12.1854,12.2225,12.1854,12.1408,12.0925,12.0033,11.9142,11.825,11.7247,11.7451,11.8736,11.9577,12.1348,12.3914,12.517,12.7041,12.9581,13.0027,13.0491,13.121,13.1107,12.9829,12.7268,12.5544,12.2595,11.8089,11.3949,11.0273,0.0,0.0,0.0,0.0,0.0,0.0,0.0,0.0,0.0,0.0,0.0,10.3918,10.6584,11.1196,11.3687,11.2984,11.4221,11.4602,11.3591,11.3078,11.3251,11.4544,11.4717,11.4755,11.4622,11.584,11.6927,11.7269,11.7832,11.8774,12.0194,11.8803,11.7819,11.8392,12.1514,12.4148,12.5379,12.8423,13.0636,13.0734,13.0365,12.9824,12.9259,12.8988,12.8369,12.7041,12.6651,12.5888,12.4006,12.3416,12.3009,12.1712,12.1338,12.1059,12.0618,11.9884,11.893,11.7938,11.7755,11.7975,11.9893,11.9665,11.9704,11.9594,11.9156,11.4795,11.2958,11.3171,11.4073,11.4972,11.5866,11.6845,11.7591,11.8022,11.8022,11.7776,11.7514,11.7514,11.7343,11.728,11.7454,11.8059,11.9034,11.9911,12.0776,12.1557,12.2262,12.2634,12.2634,12.2634,12.256,12.2448,12.2337,12.23,12.2151,11.9365,11.8203,11.8799,12.0721,12.249,12.4284,12.5724,12.7596,12.9767,13.0324,13.0843,13.1263,13.1827,13.0692,12.7796,12.635,12.3953,12.0273,11.6163,11.2699,0.0,10.6389,0.0,0.0,0.0,0.0,0.0,0.0,0.0,0.0,10.8439,11.1227,11.4257,11.6199,11.7,11.6336,11.6259,11.6965,11.8583,11.8256,11.8877,12.1208,12.0939,12.0863,12.1629,12.1629,12.1821,12.2344,12.243,12.2306,12.2442,12.3,12.3309,12.3526,12.4247,12.5747,12.7987,13.0192,13.1806,13.1904,13.1867,13.1412,13.0747,13.0489,12.9699,12.7893,12.7541,12.6965,12.5319,12.4654,12.419,12.3869,12.3603,12.3371,12.3114,12.2931,12.2086,11.9921,11.926,11.926,12.075,12.0451,12.0682,12.0869,12.1075,12.0288,11.8609,11.6444,11.6556,11.734,11.8641,11.9426,11.9831,11.9736,11.9736,11.957,11.9317,11.9317,11.9688,12.0282,12.0319,12.1099,12.2435,12.2745,12.3266,12.4046,12.4231,12.4306,12.4306,12.4306,12.3934,12.3266,12.2597,12.23,12.2225,0.0,0.0,0.0,12.323,12.4833,12.619,12.6336,12.7819,13.051,12.9507,0.0,13.1697,13.0865,12.9834,12.8619,12.8024,0.0,0.0,0.0,0.0,0.0,0.0,0.0,0.0,0.0,0.0,0.0,11.0235,10.9597,10.9704,11.263,11.5589,11.8142,12.0025,12.1678,12.3241,12.407,12.4301,12.3804,12.4226,12.4429,12.4114,12.4459,12.4864,12.4904,12.4293,12.391,12.4101,12.3812,12.3813,12.4197,12.4403,12.4839,12.5323,12.5727,12.6802,12.8795,13.1408,13.3148,13.3259,13.3458,13.331,13.2863,13.2545,13.183,13.0549,12.9674,12.8858,12.7523,12.6615,12.5629,12.4885,12.4485,12.4068,12.3444,12.3334,12.3114,12.249,12.238,12.2417,12.2886,0.0,12.3978,12.4546,0.0,12.4144,12.2821,12.1069,11.9667,11.948,12.007,12.0444,12.0552,12.0384,12.0713,12.0612,12.0344,12.1161,12.1629,12.1948,12.2533,12.3349,12.4536,12.4714,12.516,12.594,12.5978,12.5978,12.5978,12.5978,12.5755,12.5309,12.49,12.49,12.5309,12.5346,12.4477,12.2615,12.4303,12.5707,12.6801,12.7893,12.9209,13.0807,13.0473,0.0,0.0,0.0,0.0,0.0,0.0,0.0,0.0,0.0,0.0,11.868,11.7017,11.617,11.6237,11.5604,11.6101,11.805,11.8824,11.8163,11.5669,11.8583,12.1434,12.3458,12.4456,12.5492,12.6914,12.7502,12.7528,12.6989,12.7296,12.7281,12.6774,12.7004,12.7255,12.716,12.6816,12.6548,12.6548,12.6434,12.6155,12.6038,12.6203,12.6315,12.6453,12.6745,12.7821,13.0285,13.1887,13.3222,13.3828,13.4074,13.4111,13.3564,13.3469,13.2866,13.1523,13.1061,13.0398,12.8654,12.7596,12.6795,12.5829,12.5355,12.4949,12.4619,12.4509,12.4472,12.4436,12.3848,12.3444,12.4893,12.5854,12.7158,12.807,12.8442,12.6893,12.5965,12.5174,0.0,0.0,0.0,12.1687,12.1529,12.1324,12.1831,12.1866,12.1777,12.3075,12.3763,12.384,12.4689,12.5559,12.6337,12.6556,12.6981,12.7612,12.7649,12.7612,12.7649,12.7612,12.7612,12.7612,12.7649,12.7984,12.8615,12.9321,12.793,12.4595,12.5579,12.6653,12.756,12.9283,13.0526,13.1067,13.1476,13.1494,13.1157,13.1203,13.0394,12.8686,12.7833,12.6448,12.4443,12.3701,12.2521,12.074,12.0198,12.0591,12.1974,12.1335,12.1911,12.4504,12.608,12.5518,12.2047,12.4392,12.664,12.8074,12.7951,12.8064,12.8754,12.863,12.8518,12.8557,12.8786,12.894,12.8844,12.9055,12.9226,12.917,12.8823,12.8691,12.8652,12.8288,12.807,12.7518,12.7564,12.7901,12.7717,12.7962,12.8976,13.1058,13.2403,13.3296,13.3976,13.4617,13.4482,13.4393,13.4297,13.3654,13.2348,13.1861,13.1067,12.9358,12.8394,12.7629,12.6832,12.6262,12.593,12.572,12.5684,12.5684,12.5573,12.4656,12.4032,12.5232,12.6686,12.7517,12.8191,12.8707,12.8327,12.7581,12.6535,12.4405,12.4063,12.5096,12.5096,12.4851,12.443,12.4542,12.4816,12.5309,12.5532,12.6296,0.0,12.7744,12.8355,12.9135,12.9172,12.921,12.9321,12.9321,12.9321,12.9321,12.9321,12.9321,12.9321,12.9321,12.9395,12.9507,12.9618,12.9395,12.8838,12.8747,12.9266,13.0269,12.9711,13.023,13.1773,13.0696,13.0793,13.2098,13.1504,13.0815,13.0113,13.0198,12.9467,12.7765,12.7266,12.6863,12.633,12.5826,12.5678,12.5928,12.5657,12.5928,12.6936,12.7895,12.7857,12.6888,12.7746,12.8462,12.8639,12.8515,12.8385,12.8385,12.836,12.8277,12.8191,12.9194,12.993,12.9837,13.07,13.1245,13.1103,13.0009,12.9208,12.9164,12.8109,12.7476,12.7533,12.8089,12.8551,12.9246,12.9871,13.0155,13.0963,13.2787,13.4274,13.4837,13.5703,13.6062,13.6284,13.5258,13.4404,13.3704,13.2438,13.1253,13.0547,12.9636,12.8707,12.774,12.7304,12.679,12.6114,12.5904,12.583,12.5867,12.5537,12.539,12.7035,12.773,12.9116,12.9954,13.0213,12.9323,12.8483,12.7703,12.6477,12.5868,12.577,12.5606,12.5701,12.5808,12.6043,12.6624,12.7315,12.8244,12.9061,12.9767,13.0176,13.0714,13.1177,13.1177,13.1306,13.1359,13.1359,13.1359,13.1322,13.1359,13.1359,13.1359,13.1269,13.1177,13.1215,13.1085,13.0993,13.0956,13.0454,13.0417,13.0881,13.0863,13.1234,13.207,13.1364,13.138,13.2426,13.1602,13.1279,13.1527,13.1042,13.0387,12.9559,12.9188,12.8668,12.7784,12.7986,12.7977,12.7523,12.7706,12.8116,12.88,12.9494,12.9974,13.0089,12.9243,12.9052,12.9877,12.982,13.0123,13.0781,13.0833,13.0604,13.0206,13.0789,13.0956,13.0739,13.108,13.1339,13.1301,13.0774,13.021,12.9758,12.9079,12.8625,12.8761,12.916,12.9618,12.9874,13.069,13.1153,13.1263,13.2683,13.4024,13.4921,13.5862,13.6692,13.7173,13.6482,13.5652,13.4975,13.3551,13.2442,13.1141,13.0361,12.9558,12.859,12.8152,12.7636,12.7253,12.7005,12.7005,12.7005,12.7106,12.7058,12.8725,12.8877,13.0756,13.1616,13.1594,13.0429,12.956,12.891,12.8362,12.7709,12.6849,12.6337,12.654,12.7099,12.7554,12.8207,12.9152,13.0379,13.1085,13.1401,13.1996,13.2348,13.2605,13.2568,13.2658,13.2799,13.2799,13.2799,13.2799,13.2799,13.2799,13.2799,13.2658,13.2568,13.2605,13.2385,13.2256,13.2219,13.1661,13.1234,13.1179,13.1773,13.2107,13.2107,13.2107,13.2293,13.253,13.1934,13.189,13.2499,13.1722,13.1136,13.0985,13.0547,12.9737,12.8848,12.9074,12.9084,12.8699,12.9347,13.0021,13.047,13.1161,13.175,13.2088,13.0909,13.0279,13.135,13.1422,13.1773,13.2677,13.2917,13.2728,13.2274,13.2099,13.1833,13.1595,13.1302,13.1248,13.1248,13.1302,13.0934,13.0258,12.9964,12.977,12.9693,13.0247,13.0439,13.045,13.1286,13.1887,13.2107,13.2831,13.3811,13.4921,13.5862,13.6666,13.747,13.7062,13.6283,13.5517,13.4946,13.4002,13.2256,13.1531,13.0802,12.987,12.9172,12.8692,12.8235,12.7987,12.7996,12.7959,12.8382,12.8372,12.9305,13.035,13.1715,13.2366,13.2366,13.1903,13.1328,13.0577,13.0059,12.9995,12.9699,12.8965,12.8774,12.9375,12.9395,12.9933,13.0822,13.1136,13.171,13.2523,13.2673,13.271,13.2836,13.2799,13.2799,13.2799,13.2799,13.2887,13.2887,13.2887,13.2799,13.2799,13.2799,13.2799,13.2799,13.271,13.271,13.271,13.2635,13.2419,13.1959,13.2033,13.2107,13.2107,13.2107,13.2256,13.271,13.2724,13.2747,13.2887,13.3043,13.2952,13.2529,13.1553,13.095,13.0871,12.9767,12.9296,13.0064,13.1364,13.2156,13.2156,13.2783,13.3219,13.3349,13.3731,13.3654,13.3349,13.3033,13.3122,13.3058,13.3024,13.2903,13.2695,13.259,13.2343,13.2286,13.2214,13.2344,13.2344,13.1763,13.089,13.0284,12.9699,12.9462,12.9854,13.0674,13.1449,13.1712,13.2353,13.2805,13.2915,13.3465,13.4259,13.4967,13.5659,13.6518,13.6927,13.6491,13.6083,13.5689,13.5228,13.4299,13.3742,13.3371,13.2475,13.1617,13.072,12.9763,12.9134,12.8676,12.818,12.8216,12.8897,12.9208,13.0427,13.1176,13.2118,13.2788,13.3153,13.2897,13.2253,13.1378,13.1002,13.0889,13.1006,13.0657,13.0517,13.0545,13.0545,13.1173,13.2098,13.2098,13.2374,13.2799,13.2799,13.2925,13.3012,13.3012,13.3099,13.3234,13.3319,13.3366,13.3366,13.3533,13.3616,13.3533,13.3282,13.3234,13.3148,13.2975,13.2799,13.2799,13.2799,13.271,13.253,13.2385,13.2293,13.2293,13.2201,13.2348,13.2799,13.285,13.3216,13.3569,13.3646,13.3587,13.3595,13.2866,13.2348,13.2059,13.1625,13.1923,13.323,13.3853,13.4549,13.5452,13.5701,13.5964,13.6401,13.6883,13.6921,13.6516,13.5995,13.5756,13.601,13.5967,13.5696,13.5197,13.4773,13.4389,13.4035,13.3761,13.3558,13.3075,13.2795,13.2142,13.1024,13.0517,13.0487,13.0806,13.1571,13.2236,13.2706,13.3308,13.3539,13.3722,13.4346,13.4779,13.5114,13.5659,13.6491,13.7224,13.7048,13.6528,13.638,13.5822,13.5154,13.4671,13.4262,13.387,13.3284,13.2755,13.1903,13.0892,12.9926,12.9501,12.9706,13.0265,13.0501,13.1209,13.1958,13.2884,13.3611,13.413,13.3739,13.3129,13.2322,13.1909,13.188,13.2164,13.2164,13.2077,13.1903,13.1814,13.2239,13.2938,13.3062,13.3148,13.3111,13.3111,13.3319,13.3441,13.3404,13.3487,13.3653,13.3816,13.3859,13.3859,13.4019,13.4097,13.4019,13.3816,13.3653,13.3653,13.3282,13.3111,13.3111,13.3148,13.3062,13.3062,13.3061,13.2994,13.2903,13.2721,13.2887,13.356,13.3822,13.4209,13.4777,13.478,13.4834,13.5079,13.4776,13.4242,13.3708,13.4099,13.4911,13.6142,13.6305,13.6849,13.7963,13.8042,13.8135,13.8612,13.8957,13.9072,13.8873,13.8605,13.8505,13.8201,13.812,13.782,13.7206,13.6389,13.5757,13.5317,13.4805,13.4225,13.3742,13.3782,13.3428,13.2162,13.1827,13.1829,13.2046,13.2718,13.3232,13.359,13.4117,13.4456,13.4493,13.5044,13.5294,13.5307,13.6066,13.6972,13.7607,13.7619,13.7643,13.742,13.6751,13.6194,13.586,13.5265,13.4819,13.4479,13.4148,13.3591,13.2661,13.1728,13.1183,13.1463,13.1766,13.2065,13.1465,13.2711,13.4522,13.5213,13.505,13.4618,13.4137,13.3554,13.3045,13.311,13.3547,13.342,13.3458,13.3585,13.3216,13.3122,13.3487,13.3653,13.3779,13.3939,13.4019,13.4019,13.4097,13.4097,13.4019,13.4019,13.4097,13.4097,13.4175,13.4097,13.4097,13.4097,13.4097,13.4097,13.4097,13.4019,13.4019,13.3939,13.3816,13.3735,13.381,13.4069,13.4097,13.3957,13.3957,13.4383,13.5283,13.573,13.6067,13.6437,13.6902,13.7305,13.7477,13.7156,13.6631,13.6277,13.7134,13.7796,13.8027,13.8496,13.8923,13.9076,13.9039,13.8885,13.9055,13.957,13.9892,13.983,14.0328,14.0074,13.8672,13.8292,13.7799,13.7206,13.642,13.5907,13.5377,13.5066,13.4522,13.4522,13.4559,13.4357,13.3371,13.3185,13.3201,13.3381,13.4123,13.4745,13.4688,13.5036,13.5264,13.5337,13.5448,13.5518,13.5836,13.6554,13.724,13.7951,13.8547,13.8906,13.8497,13.8014,13.7531,13.7011,13.6343,13.5897,13.554,13.4975,13.4098,13.3426,13.2867,13.2579,13.2595,13.3205,13.3432,13.3229,13.4301,13.5728,13.6174,13.5855,13.562,13.5144,13.4498,13.4322,13.4179,13.4177,13.4215,13.4292,13.4368,13.4368,13.4138,13.3939,13.3939,13.4019,13.4097,13.4097,13.4097,13.4097,13.4097,13.4175,13.433,13.4406,13.463,13.4849,13.4849,13.4849,13.4849,13.4739,13.4704,13.463,13.4406,13.433,13.4253,13.4097,13.3939,13.3892,13.448,13.4989,13.5258,13.4995,13.5018,13.5583,13.5966,13.6383,13.6746,13.7354,13.782,13.7987,13.815,13.8212,13.8118,13.8573,13.9104,13.9642,13.9803,14.0113,14.0651,14.0613,14.0359,14.0375,14.0643,14.0773,14.0686,14.0776,14.039,13.9748,13.9342,13.9091,13.8646,13.7806,13.7156,13.6833,13.6369,13.612,13.612,13.6083,13.5934,13.5748,13.5674,13.5674,13.5614,13.5803,13.5936,13.5779,13.6057,13.636,13.6255,13.6585,13.6916,13.7024,13.712,13.7609,13.8396,13.8967,13.9141,13.9017,13.898,13.8609,13.794,13.7346,13.6974,13.6617,13.579,13.4874,13.4274,13.375,13.3597,13.35,13.397,13.416,13.4494,13.5261,13.6343,13.6596,13.6373,13.6199,13.5857,13.5261,13.4897,13.4796,13.466,13.428,13.4238,13.4536,13.4752,13.4574,13.4287,13.4405,13.4443,13.4443,13.4481,13.4443,13.4443,13.4481,13.4556,13.4704,13.4849,13.5062,13.527,13.527,13.527,13.527,13.5132,13.5062,13.5062,13.4849,13.4704,13.463,13.4406,13.4175,13.4132,13.4908,13.5487,13.5918,13.6056,13.6318,13.6582,13.7008,13.7418,13.7773,13.8369,13.8826,13.9156,13.957,13.9807,13.9921,13.9995,14.0319,14.0764,14.0728,14.094,14.1477,14.1437,14.1317,14.1256,14.1194,14.1132,14.0941,14.0744,14.0434,14.0079,13.993,13.9782,13.9281,13.8766,13.8377,13.8048,13.7895,13.7754,13.7754,13.7754,13.7754,13.7791,13.7754,13.7717,13.7791,13.7558,13.7258,13.7063,13.7188,13.7276,13.7098,13.7356,13.776,13.8053,13.8229,13.8362,13.908,13.9969,13.9958,13.9835,13.9835,13.9538,13.8869,13.8386,13.8089,13.7508,13.6543,13.5835,13.5233,13.4805,13.4516,13.4606,13.4662,13.5074,13.5257,13.5337,13.6343,13.6689,13.658,13.6373,13.6199,13.5865,13.4827,13.4851,13.5281,13.3738,13.3614,13.4175,13.4469,13.4381,13.4598,13.5024,13.527,13.5201,13.5201,13.5201,13.5201,13.5018,13.5049,13.5155,13.5232,13.5376,13.5519,13.5481,13.5443,13.5376,13.5443,13.5405,13.5376,13.5337,13.527,13.5201,13.4921,13.463,13.4519,13.5328,13.574,13.577,13.7043,13.8007,13.855,13.8801,13.9092,13.9518,14.0141,14.0838,14.1064,14.1265,14.1496,14.1381,14.1496,14.1535,14.1535,14.1419,14.1262,14.1377,14.1377,14.1256,14.1194,14.1005,14.0876,14.0744,14.0434,14.0151,13.9707,13.9554,13.9201,13.8653,13.8832,13.896,13.8719,13.9102,13.9389,13.9352,13.9352,13.9426,13.9426,13.9426,13.9389,13.9277,13.9079,13.8766,13.8385,13.822,13.8085,13.7906,13.809,13.8531,13.8898,13.9191,13.9478,13.987,14.0729,14.122,14.0838,14.0652,14.0281,13.9686,13.9092,13.8757,13.846,13.757,13.7221,13.662,13.6118,13.5867,13.6074,13.638,13.648,13.6196,13.6179,13.6627,13.6689,13.6618,13.6524,13.6411,13.6142,13.5258,13.5253,13.5575,13.4137,13.3869,13.4481,13.4595,13.4717,13.4952,13.5658,13.5832,13.5613,13.5547,13.5443,13.5194,13.4737,13.4605,13.4827,13.5054,13.5789,13.6592,13.6286,13.6248,13.6669,13.6286,13.598,13.5957,13.5857,13.5832,13.5832,13.5602,13.5094,13.4481,13.5157,13.5541,13.557,13.6618,13.7757,13.871,13.9078,13.9554,14.0003,14.0434,14.0876,14.1317,14.1554,14.1668,14.1819,14.1819,14.1725,14.1611,14.1437,14.1317,14.1194,14.1005,14.0876,14.081,14.0639,14.0364,14.0151,13.9932,13.9707,13.9159,13.8996,13.8823,13.8406,13.8804,13.9037,13.8959,13.9697,14.0169,14.0355,14.0763,14.1061,14.1098,14.1061,14.0763,14.0355,14.0181,13.9932,13.9183,13.9168,13.9216,13.8932,13.9228,13.9265,13.9559,13.9779,13.9997,14.0281,14.1071,14.1777,14.1544,14.1284,14.0912,14.0541,13.9946,13.95,13.9067,13.8745,13.8359,13.8183,13.7757,13.7794,13.8007,13.8099,13.7977,13.6635,13.658,13.6743,13.6743,13.6689,13.6689,13.6635,13.6371,13.5547,13.5644,13.5797,13.4378,13.3918,13.4513,13.5088,13.5319,13.5449,13.6716,13.7024,13.6315,13.5884,13.564,13.5537,13.5079,13.4713,13.481,13.5279,13.6239,13.7504,13.7082,13.7197,13.7811,13.7197,13.6814,13.6737,13.6352,13.6139,13.6139,13.6018,13.5547,13.5121,13.5464,13.5774,13.5803,13.6625,13.7619,13.8541,13.9078,13.9707,14.0185,14.0571,14.1005,14.1437,14.1554,14.1668,14.1819,14.1819,14.1668,14.1554,14.1377,14.1194,14.0941,14.0706,14.0541,14.0472,14.0223,13.9932,13.9783,13.9857,13.9659,13.9019,13.9378,13.9282,13.8631,13.9147,13.9485,13.9794,14.0566,14.1061,14.1246,14.1544,14.1841,14.1915,14.1878,14.1729,14.1246,14.1135,14.096,14.0174,14.0153,14.0023,13.9886,13.9889,14.0,14.0073,14.033,14.0586,14.0835,14.1188,14.1573,14.1629,14.1692,14.1469,14.1284,14.0838,14.0466,14.0132,13.9847,13.9561,13.9359,13.9072,13.8739,13.8553,13.8729,13.8719,13.6858,13.6789,13.6896,13.6988,13.695,13.7065,13.6988,13.6627,13.5943,13.6042,13.6179,13.4839,13.4073,13.4511,13.5798,13.6084,13.6089,13.7935,13.8462,13.7619,13.6828,13.6225,13.5679,13.5651,13.539,13.5067,13.574,13.6757,13.7831,13.7792,13.8214,13.8982,13.8368,13.7754,13.7601,13.6872,13.6488,13.6315,13.6199,13.601,13.5763,13.6031,13.6247,13.6127,13.7058,13.7867,13.8541,13.9159,13.9707,14.0294,14.0838,14.1217,14.1554,14.1611,14.1668,14.1912,14.1725,14.1611,14.1437,14.1317,14.1069,14.0744,14.0609,14.051,14.0413,14.016,13.9934,13.997,14.0302,14.009,13.9453,13.992,14.0092,13.9466,13.9766,14.0583,14.1644,14.1804,14.1729,14.1804,14.1915,14.1915,14.1915,14.1915,14.1878,14.1841,14.1767,14.1554,14.1314,14.1071,14.0835,14.0694,14.0403,14.022,14.0294,14.0183,14.0514,14.0909,14.1262,14.147,14.1814,14.1878,14.1878,14.1767,14.1618,14.1284,14.1061,14.0738,14.0478,14.0053,13.972,13.9211,13.9285,13.9646,13.972,13.8104,13.8588,13.8642,13.8296,13.7873,13.8373,13.7911,13.6988,13.7243,13.7381,13.7233,13.6124,13.5721,13.5987,13.6795,13.6947,13.7089,13.8488,13.9149,13.8751,13.8348,13.6806,13.5383,13.5297,13.5299,13.5127,13.5641,13.6804,13.8726,13.8863,13.9649,14.1033,14.0149,13.9457,13.8842,13.8034,13.7304,13.6766,13.6635,13.6324,13.5908,13.5918,13.6093,13.6505,13.6955,13.7806,13.8965,13.9631,14.0079,14.0541,14.1069,14.1355,14.1437,14.1554,14.1668,14.1819,14.1819,14.1725,14.1554,14.1377,14.1132,14.081,14.044,14.0345,14.0768,14.0422,14.0486,14.0776,14.0978,14.077,14.0308,14.043,14.0493,14.0567,14.0598,14.0962,14.1618,14.1915,14.1915,14.1915,14.1915,14.1915,14.1915,14.1915,14.1915,14.1915,14.1915,14.1915,14.1675,14.147,14.1157,14.0909,14.0694,14.0367,14.0294,14.0183,14.0404,14.0802,14.1121,14.1367,14.1675,14.1915,14.1915,14.1878,14.1804,14.1544,14.1618,14.1581,14.1183,14.0711,14.0886,14.0637,14.0997,14.1257,14.1146,13.8873,13.9296,13.9296,13.9027,13.8681,13.9104,13.8758,13.8065,13.8334,13.855,13.8287,13.7735,13.7312,13.7326,13.8195,13.8367,13.8142,13.9604,14.0072,13.9576,13.9,13.7419,13.5728,13.539,13.5376,13.5261,13.6004,13.7512,13.9181,13.9989,14.1143,14.1989,14.1566,14.0719,13.9835,13.8642,13.768,13.6988,13.6834,13.6679,13.6716,13.6723,13.7093,13.7633,13.7965,13.8593,13.9284,13.9438,13.9745,14.0396,14.0903,14.1294,14.1415,14.1554,14.1668,14.1912,14.1912,14.1763,14.1554,14.1437,14.1132,14.082,14.0451,14.0579,14.0803,14.0745,14.0855,14.1033,14.1223,14.0954,14.0623,14.0625,14.0998,14.1246,14.1272,14.1395,14.1878,14.1915,14.1915,14.1915,14.1915,14.1915,14.1915,14.1915,14.1915,14.1915,14.1915,14.1915,14.1915,14.1713,14.1367,14.1157,14.0802,14.0514,14.0294,14.0183,14.0294,14.0691,14.1077,14.1219,14.1462,14.1804,14.1915,14.1915,14.1915,14.1915,14.1915,14.1915,14.1767,14.1618,14.1878,14.1915,14.1915,14.1915,14.1915,13.9488,13.9604,13.9604,13.9527,13.9488,13.9565,13.9488,13.9296,13.9527,13.9565,13.9434,13.9289,13.8923,13.845,13.9596,13.9903,13.9527,14.0912,14.1033,14.0364,13.94,13.797,13.6774,13.6286,13.6084,13.5855,13.71,13.8227,13.9473,14.1027,14.2335,14.2912,14.2528,14.1681,14.0604,13.9142,13.7796,13.6988,13.6796,13.7197,13.7666,13.7881,13.8238,13.9138,13.959,13.9517,13.9363,13.9243,13.9555,14.0358,14.0706,14.0929,14.124,14.14,14.1553,14.1703,14.1758,14.1763,14.1496,14.1377,14.1132,14.0617,14.0801,14.1072,14.0906,14.0931,14.1059,14.1359,14.1409,14.1298,14.0811,14.0881,14.1283,14.1718,14.1841,14.1878,14.1915,14.1915,14.1915,14.1915,14.1915,14.1915,14.1915,14.1915,14.1915,14.1915,14.1915,14.1915,14.1915,14.1814,14.147,14.1262,14.0946,14.0623,14.0404,14.0183,14.0257,14.0473,14.0751,14.1063,14.1342,14.1655,14.1841,14.1915,14.1915,14.1915,14.1915,14.1915,14.1915,14.1915,14.1915,14.1915,14.1915,14.1915,14.1915,14.0719,14.1335,14.1335,14.095,14.0527,14.1027,14.0566,13.9488,14.0758,14.0835,14.0511,14.0785,14.0554,14.0104,14.0746,14.0938,14.0489,14.1373,14.1609,14.113,14.0227,13.9486,13.8533,13.7778,13.7097,13.7121,13.7523,13.8325,13.9588,14.1527,14.3258,14.3912,14.3605,14.3066,14.1566,13.9835,13.8257,13.7103,13.6796,13.7292,13.8008,13.8227,13.8797,14.0053,14.0524,14.025,13.9669,13.9965,14.0109,13.9965,14.018,14.0532,14.0746,14.1266,14.1417,14.1203,14.1566,14.1819,14.1611,14.1437,14.117,14.0762,14.0729,14.0755,14.1137,14.1195,14.1578,14.2064,14.2345,14.208,14.1739,14.1631,14.1755,14.1841,14.1915,14.1915,14.1915,14.1915,14.1915,14.1915,14.1878,14.1915,14.1878,14.1729,14.1767,14.1878,14.1878,14.1878,14.1878,14.174,14.1573,14.1367,14.1015,14.0694,14.0514,14.0294,14.0109,14.0104,14.0381,14.0646,14.0923,14.1432,14.1618,14.1804,14.1915,14.1915,14.1915,14.1915,14.1915,14.1915,14.1915,14.1915,14.1915,14.1915,14.1915,14.1489,14.1874,14.1912,14.1643,14.1335,14.1681,14.1373,14.0796,14.145,14.1643,14.1319,14.1515,14.1456,14.1181,14.1054,14.0938,14.1335,14.1643,14.1994,14.1803,14.1206,14.0796,14.0546,13.9246,13.8261,13.7867,13.8521,13.9076,13.9934,14.1758,14.3489,14.4259,14.4028,14.3297,14.2258,14.0373,13.8719,13.7603,13.6988,13.7365,13.8424,13.8672,13.9439,14.0634,14.0954,14.0418,14.0033,13.9961,14.0103,14.0141,14.0243,14.0341,14.0459,14.1169,14.1319,14.0912,14.1412,14.178,14.1611,14.1475,14.1323,14.1143,14.1223,14.1435,14.1721,14.1929,14.2101,14.232,14.2335,14.2275,14.2115,14.1978,14.1915,14.1915,14.1915,14.1915,14.1915,14.1915,14.1915,14.1804,14.1544,14.1395,14.1284,14.1172,14.0838,14.0615,14.1172,14.1209,14.1432,14.1369,14.1601,14.147,14.1121,14.0909,14.0586,14.0256,13.9815,13.9736,13.9722,13.9914,14.0106,14.0801,14.1432,14.1655,14.1915,14.1915,14.1915,14.1915,14.1878,14.1878,14.1878,14.1915,14.1915,14.1915,14.1915,14.1912,14.1912,14.1912,14.1912,14.1912,14.1912,14.195,14.2027,14.2066,14.2143,14.2066,14.1917,14.1917,14.1665,14.084,14.0956,14.1434,14.1912,14.2109,14.2572,14.1705,14.1601,14.1591,14.047,13.9079,13.8097,13.9191,13.9711,14.005,14.172,14.3489,14.4105,14.3528,14.3143,14.2528,14.0643,13.8873,13.7988,13.7219,13.7603,13.8935,13.9242,14.0072,14.1323,14.124,14.075,14.0515,14.0274,14.0098,14.0543,14.0673,14.0604,14.0671,14.1242,14.1527,14.0719,14.1412,14.178,14.1611,14.1475,14.1539,14.1821,14.2128,14.2238,14.2409,14.247,14.2437,14.22,14.2078,14.2015,14.1915,14.1915,14.1915,14.1915,14.1915,14.1915,14.1915,14.1915,14.1878,14.1581,14.1172,14.0912,14.0466,14.0132,13.9723,13.95,14.0095,14.0615,14.0875,14.1135,14.1406,14.1675,14.1367,14.0909,14.0694,14.0294,13.9925,13.9294,13.9242,13.9257,13.9438,13.9983,14.0689,14.1618,14.1915,14.1878,14.1841,14.1804,14.1804,14.1804,14.1878,14.1915,14.1915,14.1915,14.1952,14.1912,14.1912,14.1912,14.1912,14.1912,14.1912,14.2297,14.2835,14.2874,14.2874,14.2874,14.2874,14.2395,14.1835,14.0989,14.0719,14.0912,14.1566,14.2357,14.2725,14.2071,14.1892,14.2228,14.1158,13.9844,13.9209,13.9651,13.9903,14.0011,14.1758,14.3374,14.4028,14.3528,14.3105,14.2489,14.0681,13.9027,13.8219,13.7334,13.768,13.8911,13.9681,14.0296,14.1797,14.1688,14.1339,14.094,14.1163,14.1224,14.0737,14.1322,14.1169,14.0973,14.1489,14.1373,14.0989,14.1412,14.1819,14.1668,14.1534,14.1615,14.2022,14.2344,14.2512,14.2616,14.2724,14.2569,14.2139,14.2015,14.1915,14.1915,14.1915,14.1915,14.1915,14.1915,14.1915,14.1915,14.1878,14.1618,14.1135,14.0801,14.0318,13.976,13.9277,13.8943,13.8869,13.9277,13.9983,14.0466,14.0801,14.1172,14.1443,14.1573,14.1157,14.0731,14.0403,13.9926,13.9142,13.8903,13.8739,13.893,13.9216,13.9946,14.1061,14.1655,14.1692,14.1692,14.1692,14.1618,14.1581,14.1729,14.1915,14.2101,14.2249,14.2212,14.1912,14.1912,14.1912,14.1912,14.195,14.2374,14.272,14.3105,14.3566,14.3759,14.3605,14.3297,14.2912,14.2143,14.0604,13.995,14.0335,14.1835,14.2857,14.3339,14.2706,14.2549,14.2865,14.1681,14.0237,13.9554,13.9997,14.021,13.9588,14.1412,14.3105,14.3951,14.3528,14.3297,14.3105,14.1296,13.9681,13.8681,13.7642,13.7642,13.9373,14.0335,14.1604,14.1758,14.2258,14.2053,14.1515,14.1573,14.1725,14.1419,14.1668,14.1588,14.1527,14.1489,14.1489,14.095,14.1412,14.1912,14.1725,14.1688,14.1914,14.2726,14.2752,14.2817,14.2956,14.3025,14.2511,14.2139,14.1915,14.1915,14.1915,14.1915,14.1915,14.1915,14.1915,14.1915,14.1915,14.1915,14.1432,14.0763,14.0243,13.9649,13.8869,13.846,13.82,13.8312,13.8572,13.9203,13.9946,14.0429,14.0801,14.1406,14.1675,14.1262,14.0802,14.0549,13.9963,13.911,13.854,13.8479,13.8496,13.8881,13.976,14.0838,14.1209,14.1469,14.1692,14.1767,14.1544,14.1395,14.1692,14.1989,14.2361,14.2584,14.2547,14.1912,14.1912,14.1912,14.1989,14.222,14.2797,14.3335,14.372,14.4374,14.4682,14.4528,14.3797,14.3297,14.2566,14.1066,13.9796,13.9681,14.1912,14.3451,14.3934,14.3321,14.3243,14.3278,14.2122,14.0451,13.971,14.0554,14.0671,13.9857,14.1143,14.2758,14.372,14.3528,14.3528,14.3643,14.1989,14.0566,13.9181,13.8181,13.8181,13.9758,14.172,14.2835,14.2297,14.2912,14.2989,14.2242,14.222,14.2066,14.1896,14.1912,14.1874,14.1912,14.1912,14.1566,14.1104,14.1566,14.1835,14.1819,14.1707,14.2148,14.3339,14.3004,14.331,14.3417,14.3123,14.2335,14.1978,14.1915,14.1915,14.1915,14.1915,14.1915,14.1915,14.1915,14.1915,14.1915,14.1804,14.1469,14.0763,13.9909,13.9203,13.8534,13.7829,13.7606,13.7569,13.7829,13.8349,13.9092,13.9872,14.0466,14.1332,14.1675,14.1262,14.0909,14.0731,14.007,13.922,13.8762,13.8488,13.8533,13.8584,13.9575,14.0318,14.1024,14.1321,14.1581,14.1767,14.1544,14.1469,14.1729,14.1989,14.2212,14.2658,14.2918,14.1912,14.1912,14.1912,14.2297,14.2874,14.3066,14.4028,14.5259,14.5451,14.5567,14.549,14.4605,14.3835,14.2835,14.2027,14.0681,14.0527,14.1989,14.3643,14.4126,14.3608,14.3532,14.3704,14.2204,14.1015,14.0248,14.1016,14.0592,14.0088,14.1143,14.2681,14.3797,14.3682,14.3489,14.3912,14.2604,14.095,13.9604,13.9065,13.9373,14.045,14.2143,14.2951,14.3143,14.3643,14.3835,14.3105,14.2951,14.272,14.2143,14.1989,14.1912,14.1912,14.1912,14.1874,14.1797,14.1835,14.1912,14.1874,14.1763,14.2245,14.3486,14.3708,14.4027,14.379,14.3107,14.2275,14.2015,14.1915,14.1915,14.1915,14.1915,14.1915,14.1915,14.1915,14.1915,14.1915,14.1878,14.1544,14.0912,14.0095,13.924,13.8497,13.768,13.7048,13.7048,13.716,13.7717,13.846,13.9426,14.0429,14.1469,14.1814,14.147,14.1121,14.0839,14.0215,13.9437,13.8879,13.8496,13.8322,13.8399,13.8794,13.9575,14.0392,14.1098,14.1395,14.1469,14.1432,14.1506,14.1729,14.1841,14.1952,14.251,14.3327,14.1912,14.1912,14.1912,14.2374,14.3105,14.3605,14.4528,14.5605,14.6182,14.6374,14.6221,14.549,14.4182,14.2681,14.1989,14.122,14.0796,14.2643,14.3951,14.4489,14.4357,14.4281,14.3839,14.2821,14.1669,14.0843,14.0997,14.1054,14.0703,14.122,14.2566,14.3489,14.3759,14.3643,14.3874,14.2989,14.1335,13.995,13.9296,13.9488,14.045,14.2258,14.3605,14.322,14.4412,14.4528,14.4066,14.3835,14.372,14.322,14.2912,14.2566,14.2451,14.2181,14.1912,14.1912,14.1912,14.1912,14.1912,14.1819,14.2591,14.3453,14.3846,14.3767,14.3665,14.3107,14.2275,14.1878,14.1915,14.1915,14.1915,14.1915,14.1915,14.1915,14.1915,14.1915,14.1915,14.1878,14.1655,14.0986,14.0281,13.95,13.8646,13.7791,13.716,13.7011,13.7123,13.7531,13.846,13.9612,14.0652,14.1692,14.1777,14.1675,14.1367,14.1015,14.0503,13.9765,13.899,13.8533,13.8136,13.8188,13.8696,13.9352,14.0206,14.0801,14.1172,14.1469,14.1655,14.1655,14.1655,14.1878,14.2175,14.3215,14.407,14.1912,14.1912,14.1912,14.2489,14.3451,14.4143,14.5028,14.6028,14.6605,14.6875,14.6605,14.5759,14.4028,14.2335,14.1874,14.1412,14.0796,14.3258,14.422,14.472,14.5105,14.4972,14.4223,14.3244,14.2129,14.0708,14.1361,14.134,14.128,14.1604,14.2335,14.3105,14.3951,14.4028,14.3643,14.3297,14.2335,14.0373,13.9565,13.9642,14.0527,14.2912,14.3682,14.4143,14.4836,14.5605,14.4874,14.472,14.472,14.4143,14.3451,14.2989,14.2912,14.2335,14.195,14.1912,14.1912,14.1912,14.1912,14.2027,14.2665,14.3281,14.3785,14.3753,14.3823,14.3123,14.2432,14.2078,14.1915,14.1915,14.1915,14.1915,14.1915,14.1915,14.1915,14.1915,14.1915,14.1915,14.1841,14.1432,14.0726,13.9909,13.9017,13.8014,13.742,13.7086,13.716,13.7383,13.8349,13.9538,14.0429,14.1358,14.1841,14.1638,14.147,14.1151,14.064,14.0128,13.939,13.8873,13.8599,13.8608,13.9092,13.9649,14.0281,14.0838,14.1469,14.1692,14.1915,14.1841,14.1841,14.2101,14.2621,14.3624,14.459,14.1912,14.1912,14.1912,14.2797,14.4259,14.4374,14.5297,14.6644,14.6836,14.6875,14.6682,14.5297,14.3759,14.2374,14.1989,14.1527,14.0796,14.3258,14.4182,14.4682,14.5143,14.5143,14.4395,14.3511,14.2665,14.178,14.1819,14.178,14.1797,14.172,14.2412,14.3105,14.3759,14.4182,14.4066,14.3605,14.2874,14.1143,14.0104,14.0296,14.1527,14.3297,14.4259,14.472,14.5759,14.6413,14.5682,14.5605,14.5374,14.472,14.3951,14.3335,14.322,14.2681,14.2374,14.195,14.2066,14.2027,14.195,14.195,14.2357,14.2933,14.3474,14.4027,14.4369,14.3302,14.2586,14.2275,14.2015,14.1915,14.1915,14.1915,14.1915,14.1915,14.1915,14.1915,14.1915,14.1915,14.1841,14.1729,14.1098,14.0206,13.9352,13.8349,13.7494,13.7123,13.7048,13.7271,13.8089,13.9129,13.9909,14.0763,14.1544,14.1703,14.1573,14.1219,14.0862,14.0498,13.9907,13.9685,13.9464,13.9618,13.9352,13.9983,14.0578,14.1172,14.1618,14.1804,14.1915,14.1915,14.1989,14.2212,14.2695,14.355,14.4516,14.1912,14.1912,14.1912,14.2874,14.4412,14.4412,14.5374,14.6721,14.6875,14.6875,14.6836,14.5682,14.4566,14.3528,14.2758,14.2181,14.1758,14.3451,14.422,14.4913,14.549,14.549,14.4759,14.3951,14.3258,14.222,14.1912,14.1912,14.1874,14.1912,14.2027,14.2566,14.322,14.3489,14.3528,14.3181,14.2258,14.145,14.0604,14.0796,14.1912,14.3489,14.4682,14.5336,14.6182,14.6721,14.6451,14.6451,14.6221,14.5797,14.5028,14.4451,14.3912,14.3489,14.2835,14.2181,14.2335,14.2297,14.1989,14.1989,14.2434,14.3628,14.4156,14.4505,14.4753,14.3748,14.2924,14.2432,14.2078,14.1978,14.1915,14.1915,14.1915,14.1915,14.1915,14.1915,14.1915,14.1915,14.1915,14.1804,14.1135,14.0318,13.95,13.8646,13.7829,13.716,13.7123,13.7234,13.7977,13.8757,13.95,14.0318,14.1135,14.1767,14.1675,14.1433,14.1157,14.0899,14.0566,14.0455,14.027,13.9646,13.9575,14.0243,14.0838,14.1246,14.1581,14.1804,14.1915,14.1915,14.2027,14.2175,14.2807,14.3475,14.4367,14.1912,14.1912,14.1912,14.272,14.3951,14.4297,14.5182,14.6413,14.6798,14.6875,14.6836,14.6067,14.522,14.4336,14.3451,14.2643,14.2451,14.3489,14.4182,14.5028,14.5759,14.5874,14.5143,14.4336,14.3605,14.2489,14.195,14.1912,14.1912,14.1912,14.195,14.2143,14.2412,14.2797,14.2951,14.2297,14.1566,14.1104,14.0758,14.1258,14.2297,14.3605,14.4797,14.5605,14.6451,14.6836,14.6798,14.6759,14.6798,14.649,14.6028,14.5374,14.4913,14.4412,14.3643,14.2989,14.2643,14.2681,14.2181,14.2297,14.3028,14.4454,14.4636,14.4888,14.4861,14.4366,14.3614,14.2831,14.2491,14.22,14.2078,14.1915,14.1915,14.1915,14.1915,14.1915,14.1915,14.1915,14.1915,14.1841,14.1246,14.0801,13.9835,13.898,13.7903,13.7234,13.7086,13.7123,13.7494,13.8312,13.9166,13.9983,14.0801,14.1395,14.1841,14.1833,14.1922,14.1885,14.1484,14.1262,14.0922,14.0266,14.0132,14.0912,14.1358,14.1432,14.1581,14.1841,14.1915,14.1915,14.2027,14.2101,14.2547,14.3215,14.4144,14.1912,14.1912,14.1912,14.2374,14.322,14.4066,14.4951,14.5913,14.6567,14.6875,14.6798,14.6105,14.5336,14.4489,14.3682,14.2874,14.2566,14.3682,14.4412,14.4836,14.6067,14.6221,14.5567,14.472,14.3874,14.3066,14.2335,14.1912,14.1912,14.1912,14.1912,14.1912,14.2104,14.2374,14.2912,14.2335,14.1912,14.172,14.1027,14.172,14.2951,14.3989,14.4797,14.5874,14.6721,14.7144,14.6913,14.7105,14.7105,14.6798,14.6297,14.5759,14.549,14.499,14.422,14.3297,14.3143,14.2797,14.2143,14.272,14.3874,14.5143,14.518,14.5151,14.5566,14.5162,14.4404,14.3614,14.3175,14.2663,14.2298,14.1915,14.1915,14.1915,14.1915,14.1915,14.1915,14.1915,14.1915,14.1915,14.1841,14.1506,14.0392,13.9277,13.8051,13.7346,13.7086,13.7123,13.7308,13.794,13.8832,13.9686,14.0541,14.1469,14.2064,14.2455,14.2545,14.2582,14.2433,14.21,14.1944,14.1453,14.1443,14.1804,14.1729,14.1655,14.1767,14.1952,14.2101,14.2287,14.1989,14.2064,14.2472,14.2993,14.3847,14.1912,14.1912,14.1912,14.2066,14.2489,14.3797,14.4913,14.5759,14.649,14.6875,14.6836,14.6567,14.6067,14.522,14.4297,14.3451,14.3028,14.372,14.4412,14.4643,14.6105,14.6182,14.5682,14.4836,14.3989,14.3105,14.2335,14.1912,14.1912,14.1912,14.1912,14.1912,14.1912,14.2027,14.2374,14.2335,14.2489,14.195,14.172,14.2258,14.3759,14.4336,14.5066,14.6413,14.7298,14.749,14.7144,14.749,14.7452,14.7067,14.6528,14.6221,14.6028,14.5567,14.5297,14.4336,14.3951,14.3874,14.3605,14.3989,14.4451,14.5241,14.5664,14.5695,14.5878,14.569,14.5016,14.448,14.3813,14.3325,14.2756,14.2139,14.1978,14.1915,14.1915,14.1915,14.1915,14.1915,14.1915,14.1915,14.1878,14.1098,14.0132,13.9389,13.8274,13.7457,13.716,13.7011,13.7123,13.7791,13.8609,13.9426,14.0318,14.1395,14.2249,14.264,14.313,14.3353,14.3056,14.2751,14.2492,14.2334,14.1963,14.1841,14.1878,14.1915,14.2101,14.2287,14.2584,14.2658,14.251,14.2212,14.2324,14.2844,14.3513,14.1912,14.1912,14.1912,14.1912,14.2181,14.372,14.5028,14.6067,14.6644,14.6875,14.6875,14.6875,14.6413,14.5605,14.4797,14.3912,14.322,14.3643,14.4297,14.4528,14.5797,14.6182,14.5874,14.499,14.422,14.3335,14.2489,14.1912,14.1912,14.1912,14.1912,14.1912,14.1912,14.195,14.2104,14.2297,14.2374,14.195,14.1912,14.2604,14.3835,14.4682,14.5413,14.6875,14.7798,14.8067,14.7952,14.7952,14.7952,14.7452,14.7028,14.6682,14.6451,14.6336,14.6182,14.5259,14.422,14.4336,14.4605,14.4374,14.4951,14.6067,14.6297,14.6645,14.6845,14.7104,14.6522,14.5775,14.4811,14.3916,14.3325,14.264,14.2201,14.2238,14.1915,14.1915,14.1915,14.1915,14.1915,14.1915,14.1804,14.0912,14.0058,13.9277,13.8497,13.7829,13.7197,13.7086,13.7011,13.7531,13.82,13.898,13.976,14.0726,14.1878,14.303,14.3522,14.4013,14.3753,14.3448,14.3002,14.2705,14.2361,14.1915,14.1915,14.2027,14.2398,14.2695,14.3067,14.3253,14.329,14.2918,14.2398,14.277,14.3364,14.1912,14.1912,14.1912,14.1912,14.2181,14.372,14.5336,14.6836,14.6875,14.6913,14.6951,14.6951,14.6644,14.5836,14.4951,14.4143,14.3528,14.3451,14.3912,14.4566,14.5567,14.6105,14.6067,14.5182,14.4451,14.3759,14.2874,14.1912,14.1912,14.1912,14.1912,14.1912,14.1912,14.1989,14.2104,14.2258,14.2258,14.222,14.2258,14.3143,14.4374,14.4682,14.5913,14.7336,14.8259,14.8721,14.8798,14.8836,14.8452,14.7952,14.7413,14.7067,14.6875,14.6875,14.6374,14.549,14.4105,14.4451,14.5105,14.4797,14.5336,14.6451,14.749,14.799,14.8125,14.82,14.7781,14.7286,14.6538,14.5033,14.3892,14.3299,14.2747,14.2424,14.1952,14.1915,14.1915,14.1915,14.1915,14.1915,14.1915,14.1321,14.0541,13.976,13.8757,13.8051,13.742,13.7086,13.7011,13.7011,13.768,13.8386,13.9166,13.9909,14.1209,14.2881,14.4033,14.4561,14.4524,14.4293,14.3773,14.3104,14.251,14.2064,14.1952,14.2138,14.2621,14.3104,14.355,14.3736,14.4107,14.3513,14.2993,14.2844,14.3253,14.1912,14.1912,14.1912,14.1912,14.2143,14.3682,14.5336,14.6759,14.6913,14.7182,14.7759,14.7182,14.7144,14.7336,14.599,14.5259,14.4797,14.4528,14.472,14.5143,14.5451,14.6144,14.6067,14.5336,14.4643,14.3874,14.2951,14.195,14.1912,14.1912,14.1912,14.1912,14.1989,14.222,14.2528,14.2758,14.2797,14.2797,14.2835,14.3759,14.4759,14.522,14.6605,14.7798,14.8798,14.926,14.949,14.9837,14.9375,14.8298,14.799,14.7644,14.674,14.6818,14.6528,14.572,14.4797,14.4528,14.5297,14.4913,14.5143,14.6644,14.7644,14.8067,14.8259,14.8567,14.8759,14.8484,14.8105,14.6729,14.5237,14.4414,14.3499,14.2536,14.2138,14.2064,14.2027,14.1915,14.1915,14.1915,14.1915,14.1655,14.0875,13.9909,13.8943,13.8237,13.7643,13.7234,13.7011,13.7011,13.716,13.7903,13.8869,13.9723,14.1284,14.2993,14.4144,14.5036,14.4887,14.4701,14.4256,14.355,14.2695,14.2249,14.2101,14.2435,14.2918,14.3513,14.4256,14.4813,14.511,14.4293,14.3661,14.3364,14.3141,14.1912,14.1912,14.1912,14.2258,14.3028,14.3989,14.5528,14.7182,14.7413,14.7759,14.8144,14.8067,14.8029,14.7875,14.6798,14.5951,14.549,14.4336,14.4336,14.5374,14.5413,14.6028,14.5951,14.5605,14.4874,14.4028,14.3181,14.2258,14.2027,14.1912,14.1912,14.195,14.2104,14.2643,14.3028,14.3412,14.3874,14.3912,14.4066,14.4566,14.5182,14.5836,14.6913,14.8375,14.9298,14.9683,15.0337,15.0837,14.9914,14.8798,14.8529,14.7741,14.6932,14.676,14.6779,14.6049,14.5451,14.5451,14.5951,14.5451,14.5836,14.6605,14.7413,14.8029,14.8721,14.926,14.9548,14.9699,14.917,14.8431,14.7026,14.5509,14.4122,14.261,14.2499,14.2249,14.2101,14.1952,14.1915,14.1915,14.1804,14.1655,14.0986,14.002,13.924,13.8683,13.7903,13.716,13.7011,13.7011,13.7048,13.7457,13.8572,13.9686,14.1321,14.2695,14.3847,14.4627,14.4701,14.4553,14.4404,14.381,14.2807,14.2435,14.2249,14.277,14.3401,14.4293,14.5036,14.5593,14.5927,14.537,14.4479,14.3587,14.3364,14.195,14.2027,14.2066,14.3028,14.4297,14.4489,14.5913,14.8067,14.8259,14.8375,14.8606,14.9144,14.8952,14.8375,14.7452,14.6567,14.5797,14.4643,14.472,14.5759,14.522,14.5643,14.6336,14.6067,14.5259,14.4451,14.3528,14.2528,14.2066,14.1912,14.195,14.1989,14.2643,14.322,14.3759,14.422,14.4797,14.5336,14.5143,14.5259,14.5643,14.6144,14.6913,14.8952,14.9721,15.0106,15.1221,15.1221,15.0414,14.9606,14.8856,14.8067,14.7278,14.6912,14.6894,14.6548,14.5913,14.6067,14.6259,14.5913,14.6105,14.6567,14.6951,14.7913,14.8836,14.9529,14.9875,15.0625,15.035,14.9147,14.7752,14.6878,14.5631,14.3924,14.2955,14.2695,14.2435,14.2175,14.1915,14.1915,14.1878,14.1692,14.1432,14.0466,13.9426,13.898,13.8126,13.716,13.7123,13.7123,13.7346,13.7457,13.8497,13.9686,14.0615,14.1989,14.3327,14.4033,14.4367,14.4813,14.5036,14.4107,14.2881,14.2695,14.2621,14.329,14.3996,14.4776,14.5556,14.6225,14.6448,14.6336,14.5519,14.4367,14.355,14.2258,14.2874,14.3528,14.4066,14.4451,14.5105,14.6451,14.8221,14.8913,14.9529,14.9952,14.9721,14.9413,14.899,14.8259,14.7413,14.6374,14.5413,14.5759,14.6028,14.5643,14.5759,14.6605,14.6182,14.5605,14.499,14.3989,14.2797,14.222,14.2066,14.2258,14.272,14.3181,14.3643,14.4797,14.5297,14.5759,14.6374,14.6259,14.6105,14.6374,14.6798,14.7567,14.8952,14.9683,15.0414,15.1337,15.1799,15.1145,15.0491,15.0181,14.9161,14.7757,14.7559,14.7257,14.6856,14.6221,14.6336,14.6451,14.6336,14.6297,14.6605,14.7105,14.8067,14.8875,14.949,15.0221,15.1125,15.1152,14.9855,14.8744,14.7959,14.7054,14.5169,14.3587,14.3215,14.2881,14.2472,14.2064,14.1989,14.1952,14.1767,14.1544,14.0763,13.9798,13.8794,13.7791,13.7123,13.7346,13.7494,13.8014,13.8237,13.8794,13.9723,14.0503,14.1432,14.2881,14.3996,14.4553,14.5036,14.5556,14.459,14.3513,14.3141,14.3104,14.3847,14.4479,14.5036,14.5779,14.6522,14.6745,14.6559,14.6336,14.5407,14.433,14.2681,14.3181,14.4028,14.4643,14.5028,14.549,14.6875,14.8644,14.9298,15.0183,15.1145,15.0798,15.0221,14.9644,14.8952,14.7913,14.6951,14.6028,14.6182,14.6374,14.6297,14.6259,14.6336,14.6374,14.599,14.5413,14.4374,14.3335,14.2489,14.2489,14.2797,14.3181,14.3451,14.4297,14.5643,14.6028,14.6413,14.6875,14.6875,14.6875,14.6875,14.7067,14.7798,14.8952,14.976,15.0529,15.1414,15.1952,15.1452,15.0702,15.0061,14.9094,14.8058,14.7689,14.7329,14.6894,14.651,14.6413,14.6605,14.6605,14.6374,14.6721,14.6913,14.7721,14.8567,14.9221,15.0375,15.124,15.174,15.0719,14.9765,14.8964,14.7669,14.6032,14.4994,14.4367,14.3921,14.3475,14.2993,14.2584,14.2398,14.1989,14.1469,14.0318,13.9389,13.8572,13.7531,13.7383,13.7569,13.794,13.846,13.9092,13.9612,13.9946,14.0541,14.1469,14.2584,14.3624,14.4553,14.5073,14.537,14.485,14.4218,14.3884,14.3921,14.4516,14.511,14.5519,14.5965,14.667,14.6782,14.6745,14.6522,14.6225,14.5259,14.3258,14.3374,14.4336,14.5105,14.5643,14.5836,14.7144,14.9067,14.9452,15.0337,15.1606,15.1837,15.0991,14.999,14.9452,14.8221,14.7182,14.6413,14.649,14.6567,14.6259,14.6451,14.6682,14.6798,14.6297,14.572,14.4874,14.3912,14.2951,14.2989,14.3066,14.3374,14.4066,14.4913,14.5759,14.6413,14.6875,14.6875,14.6875,14.6875,14.6875,14.6951,14.799,14.8875,14.9644,15.0414,15.1452,15.1875,15.1529,15.0928,15.0092,14.9123,14.8369,14.7948,14.7344,14.6989,14.6722,14.6741,14.6875,14.6836,14.6798,14.6875,14.6875,14.7298,14.8182,14.9183,15.0375,15.1106,15.1645,15.1574,15.0587,14.9771,14.8428,14.7007,14.6186,14.5184,14.4701,14.4256,14.3773,14.3215,14.277,14.2287,14.1135,13.9983,13.9129,13.8312,13.7866,13.7866,13.7977,13.8497,13.9017,13.976,14.0503,14.0763,14.0949,14.1469,14.2435,14.3215,14.4107,14.4813,14.5259,14.5073,14.4924,14.4701,14.4887,14.5184,14.5593,14.6039,14.6485,14.6782,14.6782,14.6782,14.6708,14.6373,14.5965,14.4143,14.4297,14.5759,14.6144,14.5874,14.6374,14.7375,14.8452,14.9221,15.0067,15.0991,15.1606,15.1106,14.9529,14.9529,14.8567,14.7067,14.6567,14.6644,14.6759,14.6605,14.6721,14.6836,14.6875,14.6374,14.5913,14.5413,14.4566,14.3566,14.3297,14.3489,14.4066,14.4143,14.5105,14.649,14.6875,14.6875,14.6875,14.6875,14.6875,14.6913,14.7221,14.799,14.8798,14.9529,15.0606,15.1529,15.1952,15.1855,15.1482,15.0886,14.9876,14.9006,14.8355,14.7819,14.706,14.6894,14.6799,14.6856,14.6875,14.6875,14.6875,14.6951,14.7221,14.8106,14.899,14.999,15.076,15.1201,15.1498,15.0872,15.0487,14.9499,14.7902,14.6746,14.5612,14.4813,14.4516,14.4181,14.3624,14.3141,14.2212,14.0949,13.9983,13.9166,13.8349,13.7531,13.7606,13.8497,13.9017,13.95,14.0355,14.1209,14.1544,14.1692,14.1581,14.2249,14.2993,14.3847,14.485,14.5519,14.5704,14.5556,14.5444,14.5407,14.5556,14.6002,14.641,14.6559,14.6782,14.6782,14.6782,14.6745,14.6633,14.6262]},{"header":{"parameterUnit":"m.s-1","parameterCategory":1,"la1":31.0,"la2":29.5877,"lo1":-88.7671,"lo2":-86.6584,"dx":0.0162,"dy":0.0185,"nx":115,"ny":88,"refTime":"2022-12-23T06:00:00:Z","depth":0,"parameterNumber":3,"parameterNumberName":"V-component_of_WINDS"},"data":[0.0,0.0,0.0,0.0,0.0,0.0,0.0,0.0,0.0,0.0,0.0,0.0,0.0,0.0,0.0,0.0,0.0,0.0,0.0,0.0,0.0,0.0,0.0,0.0,0.0,0.0,0.0,0.0,0.0,0.0,0.0,0.0,0.0,0.0,0.0,0.0,0.0,0.0,0.0,0.0,0.0,0.0,0.0,0.0,0.0,0.0,0.0,0.0,0.0,0.0,0.0,0.0,0.0,0.0,0.0,0.0,0.0,0.0,0.0,0.0,0.0,0.0,0.0,0.0,0.0,0.0,0.0,0.0,0.0,0.0,0.0,0.0,0.0,0.0,0.0,0.0,0.0,0.0,0.0,0.0,0.0,0.0,0.0,0.0,0.0,0.0,0.0,0.0,0.0,0.0,0.0,0.0,0.0,0.0,0.0,0.0,0.0,0.0,0.0,0.0,0.0,0.0,0.0,0.0,0.0,0.0,0.0,0.0,0.0,0.0,0.0,0.0,0.0,0.0,0.0,0.0,0.0,0.0,0.0,0.0,0.0,0.0,0.0,0.0,0.0,0.0,0.0,0.0,0.0,0.0,0.0,0.0,0.0,0.0,0.0,0.0,0.0,0.0,0.0,0.0,0.0,0.0,0.0,0.0,0.0,0.0,0.0,0.0,0.0,0.0,0.0,0.0,0.0,0.0,0.0,0.0,0.0,0.0,0.0,0.0,0.0,0.0,0.0,0.0,0.0,0.0,0.0,0.0,0.0,0.0,0.0,0.0,0.0,0.0,0.0,0.0,0.0,0.0,0.0,0.0,0.0,0.0,0.0,0.0,0.0,0.0,0.0,0.0,0.0,0.0,0.0,0.0,0.0,0.0,0.0,0.0,0.0,0.0,0.0,0.0,0.0,0.0,0.0,0.0,0.0,0.0,0.0,0.0,0.0,0.0,0.0,0.0,0.0,0.0,0.0,0.0,0.0,0.0,0.0,0.0,0.0,0.0,0.0,0.0,0.0,0.0,0.0,0.0,0.0,0.0,0.0,0.0,0.0,0.0,0.0,0.0,0.0,0.0,0.0,0.0,0.0,0.0,0.0,0.0,0.0,0.0,0.0,0.0,0.0,0.0,0.0,0.0,0.0,0.0,0.0,0.0,0.0,0.0,0.0,0.0,0.0,0.0,0.0,0.0,0.0,0.0,0.0,0.0,0.0,0.0,0.0,0.0,0.0,0.0,0.0,0.0,0.0,0.0,0.0,0.0,0.0,0.0,0.0,0.0,0.0,0.0,0.0,0.0,0.0,0.0,0.0,0.0,0.0,0.0,0.0,0.0,0.0,0.0,0.0,0.0,0.0,0.0,0.0,0.0,0.0,0.0,0.0,0.0,0.0,0.0,0.0,0.0,0.0,0.0,0.0,0.0,0.0,0.0,0.0,0.0,0.0,0.0,0.0,0.0,0.0,0.0,0.0,0.0,0.0,0.0,0.0,0.0,0.0,0.0,0.0,0.0,0.0,0.0,0.0,0.0,0.0,0.0,0.0,0.0,0.0,0.0,0.0,0.0,0.0,0.0,0.0,0.0,0.0,0.0,0.0,0.0,0.0,0.0,0.0,0.0,0.0,0.0,0.0,0.0,0.0,0.0,0.0,0.0,0.0,0.0,0.0,0.0,0.0,0.0,0.0,0.0,0.0,0.0,0.0,0.0,0.0,0.0,0.0,0.0,0.0,0.0,0.0,0.0,0.0,0.0,0.0,0.0,0.0,0.0,0.0,0.0,0.0,0.0,0.0,0.0,0.0,0.0,0.0,0.0,0.0,0.0,0.0,0.0,0.0,0.0,0.0,0.0,0.0,0.0,0.0,0.0,0.0,0.0,0.0,0.0,0.0,0.0,0.0,0.0,0.0,0.0,0.0,0.0,0.0,0.0,0.0,0.0,0.0,0.0,0.0,0.0,0.0,0.0,0.0,0.0,0.0,0.0,0.0,0.0,0.0,0.0,0.0,0.0,0.0,0.0,0.0,0.0,0.0,0.0,0.0,0.0,0.0,0.0,0.0,0.0,0.0,0.0,0.0,0.0,0.0,0.0,0.0,0.0,0.0,0.0,0.0,0.0,0.0,0.0,0.0,0.0,0.0,0.0,0.0,0.0,0.0,0.0,0.0,0.0,0.0,0.0,0.0,0.0,0.0,0.0,0.0,0.0,0.0,0.0,0.0,0.0,0.0,0.0,0.0,0.0,0.0,0.0,0.0,0.0,0.0,0.0,0.0,0.0,0.0,0.0,0.0,0.0,0.0,0.0,0.0,0.0,0.0,0.0,0.0,0.0,0.0,0.0,0.0,0.0,0.0,0.0,0.0,0.0,0.0,0.0,0.0,0.0,0.0,0.0,0.0,0.0,0.0,0.0,0.0,0.0,0.0,0.0,0.0,0.0,0.0,0.0,0.0,0.0,0.0,0.0,0.0,0.0,0.0,0.0,0.0,0.0,0.0,0.0,0.0,0.0,0.0,0.0,0.0,0.0,0.0,0.0,0.0,0.0,0.0,0.0,0.0,0.0,0.0,0.0,0.0,0.0,0.0,0.0,0.0,0.0,0.0,0.0,0.0,0.0,0.0,0.0,0.0,0.0,0.0,0.0,0.0,0.0,0.0,0.0,0.0,0.0,0.0,0.0,0.0,0.0,0.0,0.0,0.0,0.0,0.0,0.0,0.0,0.0,0.0,0.0,0.0,0.0,0.0,0.0,0.0,0.0,0.0,0.0,0.0,0.0,0.0,0.0,0.0,0.0,0.0,0.0,0.0,0.0,0.0,0.0,0.0,0.0,0.0,0.0,0.0,0.0,0.0,0.0,0.0,0.0,0.0,0.0,0.0,0.0,0.0,0.0,0.0,0.0,0.0,0.0,0.0,0.0,0.0,0.0,0.0,0.0,0.0,0.0,0.0,0.0,0.0,0.0,0.0,0.0,0.0,0.0,0.0,0.0,0.0,0.0,0.0,0.0,0.0,0.0,0.0,0.0,0.0,0.0,0.0,0.0,0.0,0.0,0.0,0.0,0.0,0.0,0.0,0.0,0.0,0.0,0.0,0.0,0.0,0.0,0.0,0.0,0.0,0.0,0.0,0.0,0.0,0.0,0.0,0.0,0.0,0.0,0.0,0.0,0.0,0.0,0.0,0.0,0.0,0.0,0.0,0.0,0.0,0.0,0.0,0.0,0.0,0.0,0.0,0.0,0.0,0.0,0.0,0.0,0.0,0.0,0.0,0.0,0.0,0.0,0.0,0.0,0.0,0.0,0.0,0.0,0.0,0.0,0.0,0.0,0.0,0.0,0.0,0.0,0.0,0.0,0.0,0.0,0.0,0.0,0.0,0.0,0.0,0.0,0.0,0.0,0.0,0.0,0.0,0.0,0.0,0.0,0.0,0.0,0.0,0.0,0.0,0.0,0.0,0.0,0.0,0.0,0.0,0.0,0.0,0.0,0.0,0.0,0.0,0.0,0.0,0.0,0.0,0.0,0.0,0.0,0.0,0.0,0.0,0.0,0.0,0.0,0.0,0.0,0.0,0.0,0.0,0.0,0.0,0.0,0.0,0.0,0.0,0.0,0.0,0.0,0.0,0.0,0.0,0.0,0.0,0.0,0.0,0.0,0.0,0.0,0.0,0.0,0.0,0.0,0.0,0.0,0.0,0.0,0.0,0.0,0.0,0.0,0.0,0.0,0.0,0.0,0.0,0.0,0.0,0.0,0.0,0.0,0.0,0.0,0.0,0.0,0.0,0.0,0.0,0.0,0.0,0.0,0.0,0.0,0.0,0.0,0.0,0.0,0.0,0.0,0.0,0.0,0.0,0.0,0.0,0.0,0.0,0.0,0.0,0.0,0.0,0.0,0.0,0.0,0.0,0.0,0.0,0.0,0.0,0.0,0.0,0.0,0.0,0.0,0.0,0.0,0.0,0.0,0.0,0.0,0.0,0.0,0.0,0.0,0.0,0.0,0.0,0.0,0.0,0.0,0.0,0.0,0.0,0.0,0.0,0.0,0.0,0.0,0.0,0.0,0.0,0.0,0.0,0.0,0.0,0.0,0.0,0.0,0.0,0.0,0.0,0.0,0.0,0.0,0.0,0.0,0.0,0.0,0.0,0.0,0.0,0.0,0.0,0.0,0.0,0.0,0.0,0.0,0.0,0.0,0.0,0.0,0.0,0.0,0.0,0.0,0.0,0.0,0.0,0.0,0.0,0.0,0.0,0.0,0.0,0.0,0.0,0.0,0.0,0.0,0.0,0.0,-2.6487,0.0,0.0,0.0,-2.8076,0.0,0.0,0.0,0.0,0.0,0.0,0.0,0.0,0.0,0.0,0.0,0.0,0.0,0.0,0.0,0.0,0.0,0.0,0.0,0.0,0.0,0.0,0.0,0.0,0.0,0.0,0.0,0.0,0.0,0.0,0.0,0.0,0.0,0.0,0.0,0.0,0.0,0.0,0.0,0.0,0.0,0.0,0.0,0.0,0.0,0.0,0.0,0.0,0.0,0.0,0.0,0.0,0.0,0.0,0.0,0.0,0.0,0.0,0.0,0.0,0.0,0.0,0.0,0.0,0.0,0.0,0.0,0.0,0.0,0.0,0.0,0.0,0.0,0.0,0.0,0.0,0.0,0.0,0.0,0.0,0.0,0.0,0.0,0.0,0.0,0.0,0.0,0.0,0.0,0.0,0.0,0.0,0.0,0.0,0.0,0.0,0.0,0.0,0.0,0.0,0.0,0.0,0.0,0.0,0.0,0.0,0.0,0.0,0.0,0.0,-2.6533,-2.7169,-2.7649,-2.813,-2.836,0.0,0.0,0.0,0.0,0.0,0.0,0.0,0.0,0.0,0.0,0.0,0.0,0.0,0.0,0.0,0.0,0.0,0.0,0.0,0.0,0.0,0.0,0.0,0.0,0.0,0.0,0.0,0.0,0.0,0.0,0.0,0.0,0.0,0.0,0.0,0.0,0.0,0.0,0.0,0.0,0.0,0.0,0.0,0.0,0.0,0.0,0.0,0.0,0.0,0.0,0.0,0.0,0.0,0.0,0.0,0.0,0.0,0.0,0.0,0.0,0.0,0.0,0.0,0.0,0.0,0.0,0.0,0.0,0.0,0.0,0.0,0.0,0.0,0.0,0.0,0.0,0.0,0.0,0.0,0.0,0.0,0.0,0.0,0.0,0.0,0.0,0.0,0.0,0.0,0.0,0.0,0.0,0.0,0.0,0.0,0.0,0.0,0.0,0.0,0.0,0.0,0.0,0.0,0.0,0.0,0.0,0.0,0.0,0.0,0.0,0.0,0.0,-2.7645,-2.7938,-2.8302,0.0,0.0,0.0,0.0,0.0,0.0,0.0,0.0,0.0,0.0,0.0,0.0,0.0,0.0,0.0,0.0,0.0,0.0,0.0,0.0,0.0,0.0,0.0,0.0,0.0,0.0,0.0,0.0,0.0,0.0,0.0,0.0,0.0,0.0,0.0,0.0,0.0,0.0,0.0,0.0,0.0,0.0,0.0,0.0,0.0,0.0,0.0,0.0,0.0,0.0,0.0,0.0,0.0,0.0,0.0,0.0,0.0,0.0,0.0,0.0,0.0,0.0,0.0,0.0,0.0,0.0,0.0,0.0,0.0,0.0,0.0,0.0,0.0,0.0,0.0,0.0,0.0,0.0,0.0,0.0,0.0,0.0,0.0,0.0,0.0,0.0,0.0,0.0,0.0,0.0,0.0,0.0,0.0,0.0,0.0,0.0,0.0,0.0,0.0,0.0,0.0,0.0,0.0,0.0,0.0,0.0,0.0,0.0,0.0,0.0,-2.6858,-2.7365,-2.7757,0.0,-2.7525,0.0,0.0,0.0,0.0,0.0,0.0,0.0,0.0,0.0,0.0,0.0,0.0,0.0,0.0,0.0,0.0,0.0,0.0,0.0,0.0,0.0,0.0,0.0,0.0,0.0,0.0,0.0,0.0,0.0,0.0,0.0,0.0,0.0,0.0,0.0,0.0,0.0,0.0,0.0,0.0,0.0,0.0,0.0,0.0,0.0,0.0,0.0,0.0,0.0,0.0,0.0,0.0,0.0,0.0,0.0,0.0,0.0,0.0,0.0,0.0,0.0,0.0,0.0,0.0,0.0,0.0,0.0,0.0,0.0,0.0,0.0,0.0,0.0,0.0,0.0,0.0,0.0,0.0,0.0,0.0,0.0,0.0,0.0,0.0,0.0,0.0,0.0,0.0,0.0,0.0,0.0,0.0,0.0,0.0,0.0,0.0,0.0,0.0,0.0,0.0,0.0,0.0,0.0,0.0,0.0,0.0,0.0,0.0,0.0,0.0,-2.7437,-2.8113,-2.8197,-2.7945,0.0,0.0,0.0,0.0,0.0,0.0,0.0,0.0,0.0,0.0,0.0,0.0,0.0,0.0,0.0,0.0,0.0,0.0,0.0,0.0,0.0,0.0,0.0,0.0,0.0,0.0,0.0,0.0,0.0,0.0,0.0,0.0,0.0,0.0,0.0,0.0,0.0,0.0,0.0,0.0,0.0,0.0,0.0,0.0,0.0,0.0,0.0,0.0,0.0,0.0,0.0,0.0,0.0,0.0,0.0,0.0,0.0,0.0,0.0,0.0,0.0,0.0,0.0,0.0,0.0,0.0,0.0,0.0,0.0,0.0,0.0,0.0,0.0,0.0,0.0,0.0,0.0,0.0,0.0,0.0,0.0,0.0,0.0,0.0,0.0,0.0,0.0,0.0,0.0,0.0,0.0,0.0,0.0,0.0,0.0,0.0,0.0,0.0,0.0,0.0,0.0,0.0,0.0,0.0,0.0,0.0,0.0,0.0,0.0,0.0,-2.716,-2.7884,-2.856,-2.8625,-2.8074,-2.6587,0.0,0.0,0.0,0.0,0.0,0.0,0.0,0.0,0.0,0.0,0.0,0.0,0.0,0.0,0.0,0.0,0.0,0.0,0.0,0.0,0.0,0.0,0.0,0.0,0.0,0.0,0.0,0.0,0.0,0.0,0.0,0.0,0.0,0.0,0.0,0.0,0.0,0.0,0.0,0.0,0.0,0.0,0.0,0.0,0.0,0.0,0.0,0.0,0.0,0.0,0.0,0.0,0.0,0.0,0.0,0.0,0.0,0.0,0.0,0.0,0.0,0.0,0.0,0.0,0.0,0.0,0.0,0.0,0.0,0.0,0.0,0.0,0.0,0.0,0.0,0.0,0.0,0.0,0.0,0.0,0.0,0.0,0.0,0.0,0.0,0.0,0.0,0.0,0.0,0.0,0.0,0.0,0.0,0.0,0.0,0.0,0.0,0.0,0.0,0.0,0.0,0.0,0.0,0.0,0.0,0.0,0.0,0.0,-2.6954,-2.7534,-2.8065,-2.862,-2.8968,-2.8446,0.0,0.0,0.0,0.0,0.0,0.0,0.0,0.0,0.0,0.0,0.0,0.0,0.0,0.0,0.0,0.0,0.0,0.0,0.0,0.0,0.0,0.0,0.0,0.0,0.0,0.0,0.0,0.0,0.0,0.0,0.0,0.0,0.0,0.0,0.0,0.0,0.0,0.0,0.0,0.0,0.0,0.0,0.0,0.0,0.0,0.0,0.0,0.0,0.0,0.0,0.0,0.0,0.0,0.0,0.0,0.0,0.0,0.0,0.0,0.0,0.0,0.0,0.0,0.0,0.0,0.0,0.0,0.0,0.0,0.0,0.0,0.0,0.0,0.0,0.0,0.0,0.0,0.0,0.0,0.0,0.0,0.0,0.0,0.0,0.0,0.0,0.0,0.0,0.0,0.0,0.0,0.0,0.0,0.0,0.0,0.0,0.0,0.0,0.0,0.0,0.0,0.0,0.0,0.0,0.0,0.0,0.0,0.0,0.0,-2.7244,-2.8451,-2.9091,-2.9115,-2.8812,-2.7816,0.0,0.0,0.0,0.0,0.0,0.0,0.0,0.0,0.0,0.0,0.0,0.0,0.0,0.0,0.0,0.0,0.0,0.0,0.0,0.0,0.0,0.0,0.0,0.0,0.0,0.0,0.0,0.0,0.0,0.0,0.0,0.0,0.0,0.0,0.0,0.0,0.0,0.0,0.0,0.0,0.0,0.0,0.0,0.0,0.0,0.0,0.0,0.0,0.0,0.0,0.0,0.0,0.0,0.0,0.0,0.0,0.0,0.0,0.0,0.0,0.0,0.0,0.0,0.0,0.0,0.0,0.0,0.0,0.0,0.0,0.0,0.0,0.0,0.0,0.0,0.0,0.0,0.0,0.0,0.0,0.0,0.0,0.0,0.0,0.0,0.0,0.0,0.0,0.0,0.0,0.0,0.0,0.0,0.0,0.0,0.0,0.0,0.0,0.0,0.0,0.0,0.0,0.0,0.0,0.0,0.0,0.0,0.0,0.0,-2.7642,-2.9151,-2.9803,-2.9526,-2.8837,-2.7799,0.0,0.0,0.0,0.0,0.0,0.0,0.0,0.0,0.0,0.0,0.0,0.0,0.0,0.0,0.0,0.0,0.0,0.0,0.0,0.0,0.0,0.0,0.0,0.0,0.0,0.0,0.0,0.0,0.0,0.0,0.0,0.0,0.0,0.0,0.0,0.0,0.0,0.0,0.0,0.0,0.0,0.0,0.0,0.0,0.0,0.0,0.0,0.0,0.0,0.0,0.0,0.0,0.0,0.0,0.0,0.0,0.0,0.0,0.0,0.0,0.0,0.0,0.0,0.0,0.0,0.0,0.0,0.0,0.0,0.0,0.0,0.0,0.0,0.0,0.0,0.0,0.0,0.0,0.0,0.0,0.0,0.0,0.0,0.0,0.0,0.0,0.0,0.0,0.0,0.0,0.0,0.0,0.0,0.0,0.0,0.0,0.0,0.0,0.0,0.0,0.0,0.0,0.0,0.0,0.0,0.0,0.0,0.0,-2.6984,-2.8149,-2.9538,-3.0117,-2.9803,-2.9284,-2.8258,0.0,0.0,0.0,0.0,0.0,0.0,0.0,0.0,0.0,0.0,0.0,0.0,0.0,0.0,0.0,0.0,0.0,0.0,0.0,0.0,0.0,0.0,0.0,0.0,0.0,0.0,0.0,0.0,0.0,0.0,0.0,0.0,0.0,0.0,0.0,0.0,0.0,0.0,0.0,0.0,0.0,0.0,0.0,0.0,0.0,0.0,0.0,0.0,0.0,0.0,0.0,0.0,0.0,0.0,0.0,0.0,0.0,0.0,0.0,0.0,0.0,0.0,0.0,0.0,0.0,0.0,0.0,0.0,0.0,0.0,0.0,0.0,0.0,0.0,0.0,0.0,0.0,0.0,0.0,0.0,0.0,0.0,0.0,0.0,0.0,0.0,0.0,0.0,0.0,0.0,0.0,0.0,0.0,0.0,0.0,0.0,0.0,0.0,0.0,0.0,0.0,0.0,0.0,0.0,0.0,0.0,0.0,0.0,0.0,-2.8753,-3.0238,-3.0514,-2.9486,-2.9363,-2.8344,0.0,0.0,0.0,0.0,0.0,0.0,0.0,0.0,0.0,0.0,0.0,0.0,0.0,0.0,0.0,0.0,0.0,0.0,0.0,0.0,0.0,0.0,0.0,0.0,0.0,0.0,0.0,0.0,0.0,0.0,0.0,0.0,0.0,0.0,0.0,0.0,0.0,0.0,0.0,0.0,0.0,0.0,0.0,0.0,0.0,0.0,0.0,0.0,0.0,0.0,0.0,0.0,0.0,0.0,0.0,0.0,0.0,0.0,0.0,0.0,0.0,0.0,0.0,0.0,0.0,0.0,0.0,0.0,0.0,0.0,0.0,0.0,0.0,0.0,0.0,0.0,0.0,0.0,0.0,0.0,0.0,0.0,0.0,0.0,0.0,0.0,0.0,0.0,0.0,0.0,0.0,0.0,0.0,0.0,0.0,0.0,0.0,0.0,0.0,0.0,0.0,0.0,0.0,0.0,0.0,0.0,0.0,0.0,0.0,-3.0189,-3.1083,-3.1234,-3.0399,-3.0322,-2.9195,-2.7075,0.0,0.0,0.0,0.0,0.0,0.0,0.0,0.0,0.0,0.0,0.0,0.0,0.0,0.0,0.0,0.0,0.0,0.0,0.0,0.0,0.0,0.0,0.0,0.0,0.0,0.0,0.0,0.0,0.0,0.0,0.0,0.0,0.0,0.0,0.0,0.0,0.0,0.0,0.0,0.0,0.0,0.0,0.0,0.0,0.0,0.0,0.0,0.0,0.0,0.0,0.0,0.0,0.0,0.0,0.0,0.0,0.0,0.0,0.0,0.0,0.0,0.0,0.0,0.0,0.0,0.0,0.0,0.0,0.0,0.0,0.0,0.0,0.0,0.0,0.0,0.0,0.0,0.0,0.0,0.0,0.0,0.0,0.0,0.0,0.0,0.0,0.0,0.0,0.0,0.0,0.0,0.0,0.0,0.0,0.0,0.0,0.0,0.0,0.0,0.0,0.0,0.0,0.0,0.0,0.0,0.0,0.0,0.0,-3.2242,-3.2085,-3.2121,-3.2103,-3.157,-3.049,0.0,0.0,0.0,0.0,0.0,0.0,0.0,0.0,0.0,0.0,0.0,0.0,0.0,0.0,0.0,0.0,0.0,0.0,0.0,0.0,0.0,0.0,0.0,0.0,0.0,0.0,0.0,0.0,0.0,0.0,0.0,0.0,0.0,0.0,0.0,0.0,0.0,0.0,0.0,0.0,0.0,0.0,0.0,0.0,0.0,0.0,0.0,0.0,0.0,0.0,0.0,0.0,0.0,0.0,0.0,0.0,0.0,0.0,0.0,0.0,0.0,0.0,0.0,0.0,0.0,0.0,0.0,0.0,0.0,0.0,0.0,0.0,0.0,0.0,0.0,0.0,0.0,0.0,0.0,0.0,0.0,0.0,0.0,0.0,0.0,0.0,0.0,0.0,0.0,0.0,0.0,0.0,0.0,0.0,0.0,0.0,0.0,0.0,0.0,0.0,0.0,0.0,0.0,0.0,0.0,0.0,0.0,0.0,0.0,-3.299,-3.3762,-3.3823,-3.3164,-3.2612,-3.1222,0.0,0.0,0.0,0.0,0.0,0.0,0.0,0.0,0.0,0.0,0.0,0.0,0.0,0.0,0.0,0.0,0.0,0.0,0.0,0.0,0.0,0.0,0.0,0.0,0.0,0.0,0.0,0.0,0.0,0.0,0.0,0.0,0.0,0.0,0.0,0.0,0.0,0.0,0.0,0.0,0.0,0.0,0.0,0.0,0.0,0.0,0.0,0.0,0.0,0.0,0.0,0.0,0.0,0.0,0.0,0.0,0.0,0.0,0.0,0.0,0.0,0.0,0.0,0.0,0.0,0.0,0.0,0.0,0.0,0.0,0.0,0.0,0.0,0.0,0.0,0.0,0.0,0.0,0.0,0.0,0.0,0.0,0.0,0.0,0.0,0.0,0.0,0.0,0.0,0.0,0.0,0.0,0.0,0.0,0.0,0.0,0.0,0.0,0.0,0.0,0.0,0.0,0.0,0.0,0.0,0.0,0.0,0.0,-3.2193,-3.3859,-3.5259,-3.5718,-3.4714,-3.3596,-3.2061,0.0,0.0,0.0,0.0,0.0,0.0,0.0,0.0,0.0,0.0,0.0,0.0,0.0,0.0,0.0,0.0,0.0,0.0,0.0,0.0,0.0,0.0,0.0,0.0,0.0,0.0,0.0,0.0,0.0,0.0,0.0,0.0,0.0,0.0,0.0,0.0,0.0,0.0,0.0,0.0,0.0,0.0,0.0,0.0,0.0,0.0,0.0,0.0,0.0,0.0,0.0,0.0,0.0,0.0,0.0,0.0,0.0,0.0,0.0,0.0,0.0,0.0,0.0,0.0,0.0,0.0,0.0,0.0,0.0,0.0,0.0,0.0,0.0,0.0,0.0,0.0,0.0,0.0,0.0,0.0,0.0,0.0,0.0,0.0,0.0,0.0,0.0,0.0,0.0,0.0,0.0,0.0,0.0,0.0,0.0,0.0,0.0,0.0,0.0,0.0,0.0,0.0,0.0,0.0,0.0,0.0,0.0,0.0,-3.3497,-3.4644,-3.6382,-3.707,-3.6575,-3.4776,-3.2828,0.0,0.0,0.0,0.0,0.0,0.0,0.0,0.0,0.0,0.0,0.0,0.0,0.0,0.0,0.0,0.0,0.0,0.0,0.0,0.0,0.0,0.0,0.0,0.0,0.0,0.0,0.0,0.0,0.0,0.0,0.0,0.0,0.0,0.0,0.0,0.0,0.0,0.0,0.0,0.0,0.0,0.0,0.0,0.0,0.0,0.0,0.0,0.0,0.0,0.0,0.0,0.0,0.0,0.0,0.0,0.0,0.0,0.0,0.0,0.0,0.0,0.0,0.0,0.0,0.0,0.0,0.0,0.0,0.0,0.0,0.0,0.0,0.0,0.0,0.0,0.0,0.0,0.0,0.0,0.0,0.0,0.0,0.0,0.0,0.0,0.0,0.0,0.0,0.0,0.0,0.0,0.0,0.0,0.0,0.0,0.0,0.0,0.0,0.0,0.0,0.0,0.0,0.0,0.0,0.0,0.0,0.0,0.0,-3.3946,-3.5175,-3.6213,-3.678,-3.6877,-3.4873,-3.3147,0.0,0.0,0.0,0.0,0.0,0.0,0.0,0.0,0.0,0.0,0.0,0.0,0.0,0.0,0.0,0.0,0.0,0.0,0.0,0.0,0.0,0.0,0.0,0.0,0.0,0.0,0.0,0.0,0.0,0.0,0.0,0.0,0.0,0.0,0.0,0.0,0.0,0.0,0.0,0.0,0.0,0.0,0.0,0.0,0.0,0.0,0.0,0.0,-2.9517,0.0,0.0,0.0,0.0,0.0,0.0,0.0,0.0,0.0,0.0,0.0,0.0,0.0,0.0,0.0,0.0,0.0,0.0,0.0,0.0,0.0,0.0,0.0,0.0,0.0,0.0,0.0,0.0,0.0,0.0,0.0,0.0,0.0,0.0,0.0,0.0,0.0,0.0,0.0,0.0,0.0,0.0,0.0,0.0,0.0,0.0,0.0,0.0,0.0,0.0,0.0,0.0,0.0,0.0,0.0,0.0,0.0,0.0,0.0,-3.4264,-3.5513,-3.6346,-3.6828,-3.6901,-3.5139,-3.3424,0.0,0.0,0.0,0.0,0.0,0.0,0.0,0.0,0.0,0.0,0.0,0.0,0.0,0.0,0.0,0.0,0.0,0.0,0.0,0.0,0.0,0.0,0.0,0.0,0.0,0.0,0.0,0.0,0.0,0.0,0.0,0.0,0.0,0.0,0.0,0.0,0.0,0.0,0.0,0.0,0.0,0.0,0.0,0.0,0.0,0.0,0.0,0.0,0.0,0.0,0.0,0.0,0.0,0.0,0.0,0.0,0.0,0.0,0.0,0.0,0.0,0.0,0.0,0.0,0.0,0.0,0.0,0.0,0.0,0.0,0.0,0.0,0.0,0.0,0.0,0.0,0.0,0.0,0.0,0.0,0.0,0.0,0.0,0.0,0.0,0.0,0.0,0.0,0.0,0.0,0.0,0.0,0.0,0.0,0.0,0.0,0.0,0.0,0.0,0.0,0.0,0.0,0.0,0.0,0.0,0.0,0.0,-3.3871,-3.4934,-3.5839,-3.6647,-3.7034,-3.701,-3.5477,-3.3762,-3.194,0.0,0.0,0.0,0.0,0.0,0.0,0.0,0.0,0.0,0.0,0.0,0.0,0.0,0.0,0.0,0.0,0.0,0.0,0.0,0.0,0.0,0.0,0.0,0.0,0.0,0.0,0.0,0.0,0.0,0.0,0.0,0.0,0.0,0.0,0.0,0.0,0.0,0.0,-3.0795,-3.1904,0.0,0.0,0.0,0.0,0.0,0.0,0.0,0.0,-3.0097,0.0,0.0,0.0,0.0,0.0,0.0,0.0,0.0,0.0,0.0,0.0,0.0,0.0,0.0,0.0,0.0,0.0,0.0,0.0,0.0,0.0,0.0,0.0,0.0,0.0,0.0,0.0,0.0,0.0,0.0,0.0,0.0,0.0,0.0,0.0,0.0,0.0,0.0,0.0,0.0,0.0,0.0,0.0,0.0,0.0,0.0,0.0,0.0,0.0,0.0,0.0,0.0,0.0,0.0,0.0,0.0,-3.3409,-3.4587,-3.5523,-3.6382,-3.6997,-3.7311,-3.7263,-3.5742,-3.4028,-3.2217,0.0,0.0,0.0,0.0,0.0,0.0,0.0,0.0,0.0,0.0,0.0,0.0,0.0,0.0,0.0,0.0,0.0,0.0,0.0,0.0,0.0,0.0,0.0,0.0,0.0,0.0,0.0,0.0,0.0,0.0,0.0,0.0,0.0,0.0,0.0,0.0,0.0,0.0,0.0,-3.2318,-3.2799,0.0,0.0,0.0,0.0,0.0,0.0,0.0,0.0,-2.9822,0.0,0.0,0.0,0.0,0.0,0.0,0.0,0.0,0.0,0.0,0.0,0.0,0.0,0.0,0.0,0.0,0.0,0.0,0.0,0.0,0.0,0.0,0.0,0.0,0.0,0.0,0.0,0.0,0.0,0.0,0.0,0.0,0.0,0.0,0.0,0.0,0.0,0.0,0.0,0.0,0.0,0.0,0.0,0.0,0.0,0.0,0.0,0.0,0.0,0.0,0.0,0.0,0.0,0.0,0.0,-3.3956,-3.5283,-3.6227,-3.6925,-3.7372,-3.7504,-3.7335,-3.5682,-3.3956,0.0,0.0,0.0,0.0,0.0,0.0,0.0,0.0,0.0,0.0,0.0,0.0,0.0,0.0,0.0,0.0,0.0,0.0,0.0,0.0,0.0,0.0,0.0,0.0,0.0,0.0,0.0,0.0,0.0,0.0,0.0,0.0,0.0,0.0,0.0,0.0,0.0,0.0,0.0,0.0,-3.2893,-3.3507,-3.3681,0.0,0.0,0.0,0.0,0.0,0.0,-3.0883,-3.1024,0.0,0.0,0.0,0.0,0.0,0.0,0.0,0.0,0.0,0.0,0.0,0.0,0.0,0.0,0.0,0.0,0.0,0.0,0.0,0.0,0.0,0.0,0.0,0.0,0.0,0.0,0.0,0.0,0.0,0.0,0.0,0.0,0.0,0.0,0.0,0.0,0.0,0.0,0.0,0.0,0.0,0.0,0.0,0.0,0.0,0.0,0.0,0.0,0.0,0.0,0.0,0.0,0.0,0.0,0.0,-3.4157,-3.5792,-3.6699,-3.7239,-3.7649,-3.7661,-3.7275,-3.5477,-3.3775,0.0,0.0,0.0,0.0,0.0,0.0,0.0,0.0,0.0,0.0,0.0,0.0,0.0,0.0,0.0,0.0,0.0,0.0,0.0,0.0,0.0,0.0,0.0,0.0,0.0,0.0,0.0,0.0,0.0,0.0,0.0,0.0,0.0,0.0,0.0,0.0,0.0,0.0,0.0,0.0,0.0,-3.4282,-3.4843,-3.4068,0.0,0.0,0.0,0.0,-3.2077,-3.2203,0.0,0.0,0.0,0.0,0.0,0.0,0.0,0.0,0.0,0.0,0.0,0.0,0.0,0.0,0.0,0.0,0.0,0.0,0.0,0.0,0.0,0.0,0.0,0.0,0.0,0.0,0.0,0.0,0.0,0.0,0.0,0.0,0.0,0.0,0.0,0.0,0.0,0.0,0.0,0.0,0.0,0.0,0.0,0.0,0.0,0.0,0.0,0.0,0.0,0.0,0.0,0.0,0.0,0.0,0.0,0.0,-3.4145,-3.5617,-3.643,-3.6997,-3.7734,-3.7758,-3.7022,-3.5211,-3.3593,0.0,0.0,0.0,0.0,0.0,0.0,0.0,0.0,0.0,0.0,0.0,0.0,0.0,0.0,0.0,0.0,0.0,0.0,0.0,0.0,0.0,0.0,0.0,0.0,0.0,0.0,0.0,0.0,0.0,0.0,0.0,0.0,0.0,0.0,0.0,0.0,0.0,0.0,0.0,0.0,0.0,-3.487,-3.5444,-3.5191,-3.475,0.0,0.0,0.0,-3.3507,-3.3317,0.0,0.0,0.0,0.0,0.0,0.0,0.0,0.0,0.0,0.0,0.0,0.0,0.0,0.0,0.0,0.0,0.0,0.0,0.0,0.0,0.0,0.0,0.0,0.0,0.0,0.0,0.0,0.0,0.0,0.0,0.0,0.0,0.0,0.0,0.0,0.0,0.0,0.0,0.0,0.0,0.0,0.0,0.0,0.0,0.0,0.0,0.0,0.0,0.0,0.0,0.0,0.0,0.0,0.0,0.0,-3.3803,-3.441,-3.6104,-3.727,-3.7625,-3.812,-3.7999,-3.7215,-3.5235,-3.3557,0.0,0.0,0.0,0.0,0.0,0.0,0.0,0.0,0.0,0.0,0.0,0.0,0.0,0.0,0.0,0.0,0.0,0.0,0.0,0.0,0.0,0.0,0.0,0.0,0.0,0.0,0.0,0.0,0.0,0.0,0.0,0.0,0.0,0.0,0.0,0.0,0.0,0.0,0.0,0.0,0.0,0.0,-3.6246,-3.5979,0.0,0.0,0.0,-3.495,-3.4608,0.0,0.0,0.0,0.0,0.0,0.0,0.0,0.0,0.0,0.0,0.0,0.0,0.0,0.0,0.0,0.0,0.0,0.0,0.0,0.0,0.0,0.0,0.0,0.0,0.0,0.0,0.0,0.0,0.0,0.0,0.0,0.0,0.0,0.0,0.0,0.0,0.0,0.0,0.0,0.0,0.0,0.0,0.0,0.0,0.0,0.0,0.0,0.0,0.0,0.0,0.0,0.0,0.0,0.0,0.0,0.0,0.0,-3.489,-3.6846,-3.818,-3.8627,-3.8832,-3.8567,-3.7758,-3.5887,0.0,0.0,0.0,0.0,0.0,0.0,0.0,0.0,0.0,0.0,0.0,0.0,0.0,0.0,0.0,0.0,0.0,0.0,0.0,0.0,0.0,0.0,0.0,0.0,0.0,0.0,0.0,-2.4195,0.0,0.0,0.0,0.0,0.0,0.0,0.0,0.0,0.0,0.0,0.0,0.0,0.0,0.0,-3.5725,-3.6887,-3.6674,-3.65,0.0,0.0,-3.5819,-3.5816,-3.5585,-3.5271,0.0,0.0,0.0,0.0,0.0,0.0,0.0,0.0,0.0,0.0,0.0,0.0,0.0,0.0,0.0,0.0,0.0,0.0,0.0,0.0,0.0,0.0,0.0,0.0,0.0,0.0,0.0,0.0,0.0,0.0,0.0,0.0,0.0,0.0,0.0,0.0,0.0,0.0,0.0,0.0,0.0,0.0,0.0,0.0,0.0,0.0,0.0,0.0,0.0,0.0,0.0,0.0,0.0,0.0,0.0,-3.5521,-3.7494,-3.8977,-3.9943,-4.0015,-3.9641,-3.8856,-3.7517,-3.5573,0.0,0.0,0.0,0.0,0.0,0.0,0.0,0.0,0.0,0.0,0.0,0.0,0.0,0.0,0.0,0.0,0.0,0.0,0.0,0.0,0.0,0.0,0.0,0.0,0.0,0.0,0.0,0.0,0.0,0.0,0.0,0.0,0.0,0.0,0.0,0.0,0.0,0.0,0.0,0.0,0.0,-3.6019,-3.7195,-3.7315,-3.7463,0.0,0.0,-3.729,-3.741,-3.7335,-3.6626,-3.5502,0.0,0.0,0.0,0.0,0.0,0.0,0.0,0.0,0.0,0.0,0.0,0.0,0.0,0.0,0.0,0.0,0.0,0.0,0.0,0.0,0.0,0.0,0.0,0.0,0.0,0.0,0.0,0.0,0.0,0.0,0.0,0.0,0.0,0.0,0.0,0.0,0.0,0.0,0.0,0.0,0.0,0.0,0.0,0.0,0.0,0.0,0.0,0.0,0.0,0.0,0.0,0.0,0.0,-3.4382,-3.5362,-3.772,-3.9556,-4.057,-4.0462,-4.0148,-3.9689,-3.8241,-3.643,0.0,0.0,0.0,0.0,0.0,0.0,0.0,0.0,0.0,0.0,0.0,0.0,0.0,0.0,0.0,0.0,0.0,0.0,0.0,0.0,0.0,0.0,0.0,0.0,0.0,0.0,0.0,0.0,-2.6134,-2.652,-2.6773,0.0,0.0,0.0,0.0,0.0,0.0,0.0,0.0,0.0,0.0,-3.6393,-3.7729,-3.8397,0.0,0.0,-3.8676,-3.8379,-3.6845,-3.6948,-3.6474,-3.4467,-3.4018,0.0,0.0,0.0,0.0,0.0,0.0,0.0,0.0,0.0,0.0,0.0,0.0,0.0,0.0,0.0,0.0,0.0,0.0,0.0,0.0,0.0,0.0,0.0,0.0,0.0,0.0,0.0,0.0,0.0,0.0,0.0,0.0,0.0,0.0,0.0,0.0,0.0,0.0,0.0,0.0,0.0,0.0,0.0,0.0,0.0,0.0,0.0,0.0,0.0,0.0,0.0,0.0,-3.4516,-3.5759,-3.8291,-4.0172,-4.1391,-4.1077,-4.0764,-4.0462,-3.9327,-3.7758,0.0,0.0,0.0,0.0,0.0,0.0,0.0,0.0,0.0,0.0,0.0,0.0,0.0,0.0,0.0,0.0,0.0,0.0,0.0,0.0,0.0,0.0,0.0,0.0,0.0,0.0,0.0,0.0,-2.6773,-2.7135,-2.7389,0.0,0.0,0.0,0.0,0.0,0.0,0.0,0.0,0.0,0.0,-3.6767,-3.7397,-3.8339,-3.8768,-3.7927,-3.8101,-3.7684,-3.6219,-3.6306,-3.5986,-3.4383,0.0,0.0,0.0,0.0,0.0,0.0,0.0,0.0,0.0,0.0,0.0,0.0,0.0,0.0,0.0,0.0,0.0,0.0,0.0,0.0,0.0,0.0,0.0,0.0,0.0,0.0,0.0,-3.0056,0.0,0.0,-2.9599,0.0,0.0,0.0,0.0,0.0,0.0,0.0,0.0,0.0,0.0,0.0,0.0,0.0,0.0,0.0,0.0,0.0,0.0,0.0,0.0,0.0,0.0,0.0,-3.6831,-3.8984,-4.086,-4.2381,-4.1959,-4.1548,-4.1283,-4.1005,-3.9738,-3.736,0.0,0.0,0.0,0.0,0.0,0.0,0.0,0.0,0.0,0.0,0.0,0.0,0.0,0.0,0.0,0.0,0.0,0.0,0.0,0.0,0.0,0.0,0.0,0.0,0.0,0.0,-2.5904,-2.6568,-2.7148,0.0,0.0,0.0,0.0,0.0,0.0,0.0,0.0,0.0,0.0,-3.5324,-3.6918,-3.6,-3.6653,-3.7114,-3.5518,-3.5434,-3.5307,-3.5642,-3.5734,-3.5907,0.0,0.0,0.0,0.0,0.0,0.0,0.0,0.0,0.0,0.0,0.0,0.0,0.0,0.0,0.0,0.0,0.0,0.0,0.0,0.0,0.0,0.0,0.0,0.0,0.0,0.0,0.0,-2.9689,-2.7741,0.0,0.0,0.0,0.0,0.0,0.0,0.0,0.0,0.0,0.0,0.0,-3.3342,-3.3126,0.0,0.0,0.0,0.0,0.0,0.0,0.0,0.0,0.0,0.0,0.0,0.0,-3.4706,-3.6201,-3.8687,-4.0727,-4.1947,-4.1814,-4.1669,-4.1584,-4.1331,-3.9608,-3.6675,0.0,0.0,0.0,0.0,0.0,0.0,0.0,0.0,0.0,0.0,0.0,0.0,0.0,0.0,0.0,0.0,0.0,0.0,0.0,0.0,0.0,0.0,0.0,0.0,0.0,-2.6761,0.0,0.0,0.0,0.0,0.0,0.0,0.0,0.0,0.0,0.0,0.0,-3.1529,-3.2983,-3.4319,-3.5339,-3.5673,-3.6562,-3.7008,0.0,0.0,0.0,0.0,0.0,0.0,0.0,0.0,0.0,0.0,0.0,0.0,0.0,0.0,-3.5364,-3.4108,-3.3721,-3.3574,-3.3574,0.0,0.0,0.0,0.0,0.0,0.0,0.0,0.0,0.0,0.0,0.0,0.0,0.0,0.0,0.0,0.0,-2.9032,0.0,0.0,0.0,0.0,0.0,0.0,0.0,0.0,-3.4718,-3.5089,-3.5193,-3.5083,-3.497,0.0,-3.4426,-3.299,0.0,0.0,0.0,0.0,0.0,0.0,0.0,0.0,-3.4716,-3.608,-3.8555,-4.0414,-4.1512,-4.15,-4.1488,-4.1572,-4.1415,-4.0037,-3.7187,-3.2764,-2.9234,0.0,0.0,0.0,0.0,0.0,0.0,0.0,0.0,0.0,0.0,0.0,0.0,0.0,0.0,0.0,0.0,0.0,0.0,0.0,0.0,0.0,0.0,0.0,-2.7799,0.0,0.0,0.0,0.0,0.0,0.0,0.0,0.0,0.0,-3.1086,-3.1451,-3.2351,-3.3811,-3.4682,-3.5361,-3.5042,0.0,0.0,0.0,0.0,0.0,0.0,0.0,-3.5845,-3.5133,-3.5402,-3.5734,-3.5783,-3.6423,-3.6966,-3.6588,0.0,0.0,-3.5257,-3.4776,-3.467,-3.4763,-3.5084,-3.5418,-3.5631,-3.6139,-3.658,0.0,0.0,0.0,0.0,0.0,0.0,0.0,0.0,-3.2338,-3.1342,0.0,-3.1929,0.0,0.0,0.0,0.0,0.0,0.0,0.0,0.0,-3.7384,-3.7805,-3.736,-3.6833,-3.6744,-3.6937,-3.5718,-3.497,-3.4644,-3.3654,0.0,0.0,0.0,0.0,0.0,0.0,-3.5247,-3.6587,-3.8422,-3.9979,-4.1222,-4.1065,-4.1077,-4.1355,-4.1355,-4.0261,-3.8351,-3.3885,-3.0691,-2.8653,-2.411,0.0,0.0,0.0,0.0,0.0,0.0,0.0,0.0,0.0,0.0,0.0,0.0,0.0,0.0,0.0,0.0,0.0,0.0,0.0,0.0,-2.8837,0.0,0.0,0.0,0.0,0.0,0.0,0.0,0.0,0.0,0.0,-3.1642,-3.2644,-3.3628,-3.4458,0.0,0.0,0.0,0.0,-3.6495,-3.3661,-3.3376,-3.3678,-3.4004,-3.5759,-3.7302,-3.8063,0.0,0.0,-3.7065,-3.7695,-3.8047,-3.8009,-3.8504,-3.8237,-3.6553,-3.6219,-3.6086,-3.5845,-3.6233,-3.6754,-3.7315,-3.7823,-3.8317,-3.2011,0.0,0.0,0.0,0.0,-3.1486,-3.1138,-3.0504,-3.2664,-3.174,-2.8954,-3.1105,0.0,0.0,0.0,0.0,0.0,0.0,-3.6225,-3.6688,-3.7336,-3.7751,-3.7938,-3.7698,-3.783,-3.8072,-3.7698,-3.7577,-3.7661,-3.701,-3.5139,-3.2193,0.0,0.0,0.0,0.0,-3.6043,-3.7865,-3.9355,-4.0766,-4.2088,-4.1869,-4.18,-4.1886,-4.1717,-4.0895,-3.8899,-3.3706,-2.9757,-2.7489,-2.4178,0.0,0.0,0.0,0.0,0.0,0.0,0.0,0.0,0.0,0.0,0.0,0.0,0.0,0.0,0.0,0.0,0.0,0.0,0.0,-2.8977,-2.9581,-2.9879,0.0,0.0,0.0,0.0,0.0,0.0,0.0,0.0,0.0,-3.257,-3.2948,-3.3362,0.0,0.0,-3.447,-3.4185,-3.5792,-3.7191,-3.7505,0.0,0.0,0.0,-3.8436,-3.8512,-3.8749,-3.9011,-3.8783,-3.7622,-3.8163,-3.8681,-3.8778,-3.9136,-3.9254,-3.8871,-3.837,-3.7969,-3.7863,-3.7983,-3.8197,-3.8571,-3.8958,-3.9306,-3.4342,-3.3292,-3.1192,-3.0963,-3.1795,-3.2393,-3.2193,-3.1516,-3.3545,-3.2631,-3.0283,-3.2501,-3.2476,-3.0628,-3.192,0.0,0.0,0.0,-3.6887,-3.7457,-3.7604,-3.778,-3.8132,-3.8253,-3.8386,-3.8543,-3.8651,-3.8784,-3.8941,-3.841,-3.6973,-3.4692,0.0,0.0,-3.4197,-3.5392,-3.6748,-3.851,-3.975,-4.092,-4.2286,-4.2017,-4.2138,-4.2091,-4.1971,-4.1018,-3.955,-3.4152,-3.0301,-2.842,-2.4049,-2.237,0.0,0.0,0.0,0.0,0.0,0.0,0.0,0.0,0.0,0.0,0.0,-2.9332,-2.991,0.0,0.0,0.0,-2.9227,-2.9746,-3.0267,-3.0669,0.0,0.0,0.0,0.0,0.0,0.0,0.0,-3.0308,-3.0975,-3.1597,-3.2091,-3.2347,-3.2999,-3.4326,-3.4885,-3.5387,-3.5548,0.0,-3.8915,-3.9602,-3.9426,-3.9353,-4.0109,-4.0321,-4.0481,-4.0707,-4.077,-4.0358,-3.8874,-3.8901,-3.9398,-3.9591,-4.0091,-4.0618,-4.0876,-4.0535,-3.988,-3.9372,-3.9346,-3.9519,-3.9786,-4.008,-4.0348,-3.6128,-3.5706,-3.3738,-3.3002,-3.3135,-3.3147,-3.3437,-3.3968,-3.4692,-3.4088,-3.2794,-3.5684,-3.4461,-3.0353,-3.2478,0.0,0.0,-3.7299,-3.769,-3.8156,-3.8156,-3.8168,-3.8192,-3.8422,-3.8567,-3.8615,-3.8856,-3.8989,-3.9001,-3.8506,-3.8108,-3.783,-3.6828,-3.6056,-3.5621,-3.6539,-3.78,-3.8857,-3.9849,-4.1172,-4.2311,-4.2302,-4.2138,-4.2116,-4.214,-4.1396,-4.019,-3.49,-3.1727,-3.0587,-2.4401,-2.247,-2.5392,0.0,0.0,0.0,0.0,0.0,0.0,0.0,0.0,0.0,0.0,0.0,0.0,0.0,0.0,0.0,-2.9611,0.0,-3.1891,-3.1539,0.0,0.0,0.0,-2.9455,-2.9661,-2.932,-2.9275,-2.9689,0.0,0.0,0.0,0.0,-3.2861,-3.4832,-3.6868,-3.829,-3.7863,-3.9815,-4.1119,-4.0979,-4.0501,-4.0283,-4.0795,-4.198,-4.2896,-4.359,-4.3367,-4.2289,-4.0515,-3.9977,-4.0184,-4.0842,-4.1224,-4.1681,-4.2686,-4.2405,-4.1897,-4.0561,-4.0468,-4.0708,-4.0989,-4.1243,-4.1443,-3.7106,-3.6635,-3.5911,-3.5187,-3.4499,-3.4499,-3.4692,-3.5018,-3.5211,-3.5382,-3.5714,-3.6497,-3.6596,-3.6033,-3.6786,-3.7432,-3.7926,-3.7999,-3.8157,-3.8144,-3.8156,-3.8253,-3.8446,-3.8518,-3.876,-3.9134,-3.9219,-3.9351,-3.952,-3.9219,-3.8929,-3.8651,-3.7999,-3.742,-3.6937,-3.7348,-3.869,-4.0451,-4.0729,-4.1599,-4.2565,-4.2662,-4.2691,-4.2116,-4.214,-4.1692,-4.1061,-3.7372,-3.4225,-3.2478,-2.8173,-2.5985,-2.6478,-2.7062,0.0,0.0,0.0,0.0,0.0,0.0,0.0,0.0,0.0,-3.1634,-3.2596,0.0,-3.1677,0.0,-3.0309,-2.8415,-2.6866,-2.6463,0.0,0.0,-2.6959,-2.7426,-2.8119,-2.8297,-2.8613,-2.9016,-2.9281,-2.9428,-2.9283,-3.0814,-3.2244,-3.3324,-3.5185,-3.6942,-3.8623,-4.0696,-4.2674,-4.3478,-4.3568,-4.3534,-4.3534,-4.3926,-4.4294,-4.4993,-4.423,-4.3344,-4.2117,-4.1225,-4.0882,-4.1828,-4.1891,-4.2453,-4.3147,-4.326,-4.3046,-4.2472,-4.2071,-4.1897,-4.2178,-4.2298,-4.2405,-3.7536,-3.6118,-3.5979,-3.5016,-3.3617,-3.454,-3.5418,-3.5911,-3.579,-3.5905,-3.6429,-3.6452,-3.6866,-3.762,-3.7632,-3.8144,-3.8668,-3.8668,-3.8912,-3.9167,-3.8912,-3.8803,-3.9072,-3.8923,-3.8941,-3.9339,-3.946,-3.9593,-3.9713,-3.9593,-3.9448,-3.9291,-3.9001,-3.8712,-3.8422,-3.8096,-3.8729,-4.0305,-4.1466,-4.208,-4.2667,-4.31,-4.2816,-4.2103,-4.2248,-4.2084,-4.137,-3.8214,-3.57,-3.4101,-3.043,-2.8303,-2.8351,-2.7357,-2.775,0.0,0.0,0.0,0.0,0.0,0.0,0.0,0.0,0.0,0.0,0.0,-3.0289,-3.006,-2.824,-2.677,-2.5825,-2.5846,-2.5932,-2.5443,-2.5587,-2.5886,-2.5656,-2.5958,-2.5966,-2.6199,-2.6478,-2.6458,-2.6535,-2.7746,-2.9339,-3.1364,-3.3506,-3.6021,-3.9613,-4.184,-4.3659,-4.5325,-4.5162,-4.4982,-4.4697,-4.457,-4.4702,-4.5139,-4.4729,-4.3888,-4.2816,-4.1763,-4.1207,-4.1793,-4.2195,-4.2656,-4.34,-4.3864,-4.4062,-4.3901,-4.3634,-4.3287,-4.2926,-4.2859,-4.2939,-3.7515,-3.5446,-3.5174,-3.4011,-3.1928,-3.3732,-3.5345,-3.6226,-3.5967,-3.5975,-3.6255,-3.6002,-3.6232,-3.7212,-3.7212,-3.7984,-3.9035,-3.9035,-3.9547,-4.0097,-3.9585,-3.9502,-3.954,-3.9251,-3.9243,-3.9496,-3.9725,-3.9846,-3.9846,-3.9846,-3.9822,-3.9786,-3.975,-3.9738,-3.9689,-3.8784,-3.8692,-3.975,-4.1862,-4.3076,-4.2794,-4.329,-4.3003,-4.2164,-4.2345,-4.1883,-4.1072,-3.8112,-3.6244,-3.4841,-3.0918,-2.9187,-3.0266,-2.6818,-2.6537,0.0,-2.8258,0.0,0.0,0.0,0.0,0.0,0.0,0.0,0.0,-2.8297,-2.7474,-2.533,-2.5229,-2.5403,-2.6057,-2.6574,-2.6466,-2.5476,-2.5136,-2.4456,-2.356,-2.3508,-2.3493,-2.3642,-2.3642,-2.368,-2.4058,-2.4631,-2.6555,-2.9961,-3.267,-3.565,-4.0136,-4.2782,-4.4529,-4.6268,-4.5784,-4.5063,-4.4775,-4.4763,-4.5249,-4.502,-4.4931,-4.4343,-4.3103,-4.2057,-4.156,-4.1931,-4.2314,-4.3065,-4.3864,-4.4378,-4.4903,-4.481,-4.4743,-4.4436,-4.3648,-4.3407,-4.3407,-3.7783,-3.5679,-3.489,-3.3804,-3.2159,-3.2231,-3.2893,-3.4216,-3.4526,-3.5315,-3.6272,-3.6512,-3.6922,-3.7753,-3.7753,-3.8275,-3.9056,-3.9056,-3.9178,-3.9372,-3.9385,-3.964,-4.0077,-3.9882,-4.0051,-4.0305,-4.0365,-4.0389,-4.0389,-4.0389,-4.0269,-4.0051,-3.9834,-3.9738,-3.9713,0.0,0.0,0.0,-4.2733,-4.3594,-4.2529,-4.3193,-4.3078,-4.2405,-4.2079,0.0,-3.8698,-3.7216,-3.4485,-3.1176,-2.8382,0.0,0.0,0.0,0.0,0.0,0.0,0.0,0.0,0.0,0.0,0.0,-2.774,-2.8344,-2.7607,-2.7821,-2.7217,-2.5112,-2.4692,-2.4203,-2.3119,-2.2715,-2.2757,-2.3505,-2.3585,-2.4186,-2.497,-2.5039,-2.5404,-2.598,-2.5853,-2.5773,-2.5813,-2.7165,-2.8585,-3.0678,-3.3625,-3.6683,-4.0418,-4.2679,-4.4592,-4.656,-4.6212,-4.5847,-4.5885,-4.5303,-4.5253,-4.6073,-4.5316,-4.475,-4.4633,-4.3074,-4.2179,-4.236,-4.298,-4.3564,-4.3918,-4.4695,-4.5157,-4.493,-4.489,-4.481,-4.4583,-4.4543,-4.4556,-3.64,0.0,-3.2641,-3.1053,0.0,-2.9232,-3.0054,-3.1875,-3.375,-3.5108,-3.6137,-3.625,-3.6569,-3.738,-3.7771,-3.8608,-3.9684,-3.9953,-4.0402,-4.0803,-4.0405,-4.0675,-4.1066,-4.0522,-4.0667,-4.0921,-4.0933,-4.0933,-4.0933,-4.0933,-4.086,-4.0715,-4.0583,-4.0583,-4.0715,-4.0727,-4.0746,-4.1026,-4.2498,-4.2978,-4.2427,-4.3103,-4.3233,-4.2502,-4.2393,0.0,0.0,0.0,0.0,0.0,0.0,0.0,0.0,0.0,0.0,-2.5768,-2.514,-2.4428,-2.3913,-2.4836,-2.4943,-2.4018,-2.4715,-2.5386,-2.6173,-2.5476,-2.443,-2.3439,-2.3629,-2.3825,-2.3236,-2.3056,-2.3348,-2.411,-2.4168,-2.4453,-2.5217,-2.5263,-2.5601,-2.5871,-2.5801,-2.5746,-2.5746,-2.6298,-2.7968,-3.055,-3.2932,-3.622,-4.0478,-4.2716,-4.4637,-4.6457,-4.638,-4.5872,-4.5428,-4.5186,-4.5199,-4.6316,-4.5632,-4.5102,-4.5287,-4.3852,-4.2369,-4.2424,-4.3003,-4.3659,-4.3941,-4.4698,-4.5478,-4.5358,-4.5318,-4.5304,-4.5291,-4.5077,-4.493,-3.5224,-3.2255,-3.0235,-2.7807,-2.584,-2.6394,-2.7926,-3.063,0.0,0.0,0.0,-3.6045,-3.6576,-3.7382,-3.8121,-3.9303,-4.0451,-4.0882,-4.1411,-4.2038,-4.1721,-4.1707,-4.1966,-4.1426,-4.1259,-4.1464,-4.1476,-4.1464,-4.1476,-4.1464,-4.1464,-4.1464,-4.1476,-4.1584,-4.179,-4.2019,-4.1876,-4.1387,-4.2018,-4.2377,-4.2372,-4.3257,-4.3357,-4.2586,-4.2719,-4.2408,-4.1668,-4.074,-3.9244,-3.6597,-3.3954,-3.182,-3.0163,-2.6011,-2.4371,-2.5664,-2.3636,-2.2623,-2.2882,-2.3311,-2.3421,-2.2514,-2.2799,-2.3263,-2.4553,-2.3336,-2.233,-2.2295,-2.3426,-2.4314,-2.4445,-2.5294,-2.5856,-2.5863,-2.5909,-2.594,-2.6214,-2.655,-2.6879,-2.6573,-2.7089,-2.6768,-2.676,-2.6976,-2.7807,-3.0909,-3.3287,-3.6072,-4.0883,-4.3749,-4.5356,-4.6732,-4.6561,-4.5897,-4.5479,-4.5042,-4.5323,-4.5948,-4.5261,-4.472,-4.4926,-4.38,-4.2586,-4.2031,-4.296,-4.3635,-4.3672,-4.4712,-4.5524,-4.5758,-4.5745,-4.5745,-4.5705,-4.5371,-4.5144,-3.5319,-3.2469,-2.9733,-2.7248,-2.531,-2.5817,-2.8576,-3.243,-3.3917,-3.5574,-3.7055,-3.7055,-3.7873,-3.9233,-3.9268,-3.9954,-4.0715,-4.0788,-4.1341,0.0,-4.1815,-4.1705,-4.1959,-4.1971,-4.1983,-4.2019,-4.2019,-4.2019,-4.2019,-4.2019,-4.2019,-4.2019,-4.2019,-4.2043,-4.2079,-4.2116,-4.2043,-4.1862,-4.2766,-4.2938,-4.2641,-4.3086,-4.3259,-4.2816,-4.2466,-4.0612,-3.7879,-3.7398,-3.5052,-3.0638,-2.8864,-2.7815,-2.7741,-2.4738,-2.3513,-2.4842,-2.332,-2.216,-2.1638,-2.2723,-2.3624,-2.4387,-2.4571,-2.4563,-2.3804,-2.3676,-2.4099,-2.4423,-2.5272,-2.612,-2.6704,-2.7577,-2.8145,-2.8713,-2.9234,-2.9698,-3.0274,-3.1378,-3.2115,-3.2688,-3.2716,-3.2215,-3.1905,-3.1941,-3.2375,-3.4471,-3.6125,-3.8996,-4.3245,-4.599,-4.7051,-4.7343,-4.7349,-4.6891,-4.6099,-4.5735,-4.5526,-4.56,-4.4601,-4.432,-4.5061,-4.3672,-4.2647,-4.2417,-4.3061,-4.3377,-4.3673,-4.4457,-4.521,-4.559,-4.5825,-4.5799,-4.5812,-4.5692,-4.5638,-3.3149,-3.1847,-2.8329,-2.5849,-2.4722,-2.6605,-2.9368,-3.2433,-3.4185,-3.5795,-3.7255,-3.7803,-3.8431,-3.9667,-4.0347,-4.0837,-4.1367,-4.1669,-4.1934,-4.2164,-4.2297,-4.2156,-4.199,-4.199,-4.1716,-4.1417,-4.1417,-4.1417,-4.1406,-4.1417,-4.1417,-4.1417,-4.1704,-4.199,-4.2002,-4.2276,-4.2562,-4.255,-4.2702,-4.269,-4.2526,-4.2836,-4.2957,-4.2912,-4.2683,-4.1739,-3.9541,-3.9295,-3.7334,-3.3404,-3.146,-2.9803,-2.813,-2.5697,-2.3847,-2.3683,-2.2567,-2.1703,-2.134,-2.2805,-2.4034,-2.5036,-2.5758,-2.6148,-2.6171,-2.5415,-2.5377,-2.5834,-2.6707,-2.7362,-2.8395,-2.8706,-2.9553,-3.126,-3.2004,-3.2955,-3.4116,-3.4816,-3.5807,-3.5797,-3.5653,-3.5194,-3.5072,-3.4889,-3.5067,-3.6618,-3.8873,-4.2116,-4.5036,-4.6601,-4.7736,-4.7776,-4.7638,-4.7132,-4.6457,-4.6119,-4.5736,-4.5898,-4.5005,-4.4403,-4.4835,-4.4039,-4.3033,-4.261,-4.2987,-4.3664,-4.3964,-4.4753,-4.5512,-4.6002,-4.6226,-4.6226,-4.6226,-4.5949,-4.5619,-3.0904,-3.0941,-2.7197,-2.5286,-2.4984,-2.7426,-2.9911,-3.244,-3.4695,-3.6319,-3.7875,-3.8625,-3.9292,-4.0379,-4.1137,-4.1657,-4.1653,-4.2048,-4.2276,-4.2062,-4.2252,-4.2047,-4.1492,-4.1481,-4.1191,-4.0601,-4.0601,-4.0601,-4.0601,-4.0601,-4.0601,-4.0601,-4.1191,-4.1481,-4.1492,-4.2059,-4.2336,-4.2324,-4.2145,-4.2324,-4.2623,-4.2816,-4.2924,-4.2924,-4.2924,-4.2347,-4.1469,-4.1282,-3.9694,-3.6745,-3.4679,-3.2392,-2.9639,-2.6857,-2.4925,-2.3299,-2.2469,-2.2181,-2.2115,-2.339,-2.4685,-2.5656,-2.6387,-2.7404,-2.8076,-2.7229,-2.6802,-2.7022,-2.7635,-2.8611,-2.9414,-2.9771,-3.0948,-3.2673,-3.4163,-3.5325,-3.6495,-3.796,-3.8566,-3.8566,-3.796,-3.7545,-3.7351,-3.696,-3.7211,-3.8725,-4.1692,-4.4596,-4.5875,-4.7137,-4.8003,-4.8083,-4.7691,-4.7385,-4.6457,-4.6119,-4.6059,-4.5997,-4.4865,-4.461,-4.4687,-4.4172,-4.354,-4.2973,-4.3054,-4.3766,-4.4085,-4.4793,-4.5572,-4.6041,-4.6268,-4.6587,-4.6573,-4.6094,-4.5774,-3.015,-2.8898,-2.6798,-2.5729,-2.5729,-2.7436,-2.9716,-3.2859,-3.5154,-3.7276,-3.9653,-4.0045,-4.0911,-4.1725,-4.2043,-4.1905,-4.1562,-4.1347,-4.1212,-4.0833,-4.0879,-4.089,-4.0612,-4.0601,-4.0601,-4.0601,-4.0601,-4.0311,-4.0311,-4.0311,-4.0601,-4.0601,-4.0601,-4.0601,-4.0601,-4.089,-4.089,-4.089,-4.0867,-4.1434,-4.2876,-4.29,-4.2924,-4.2924,-4.2924,-4.2336,-4.089,-4.0578,-3.9007,-3.5918,-3.4098,-3.2533,-3.0597,-2.7962,-2.6048,-2.5439,-2.4344,-2.3672,-2.3813,-2.494,-2.5988,-2.6587,-2.7619,-2.8013,-2.8344,-2.8425,-2.8409,-2.8344,-2.8884,-2.9208,-2.9498,-3.0711,-3.1907,-3.3085,-3.5217,-3.7013,-3.7932,-4.0107,-4.1411,-4.1411,-4.0913,-4.0956,-4.0143,-3.9653,-3.989,-4.1254,-4.3406,-4.5262,-4.6642,-4.7519,-4.8337,-4.8377,-4.8577,-4.7873,-4.6802,-4.6711,-4.601,-4.5152,-4.4349,-4.4216,-4.4415,-4.3938,-4.3636,-4.3455,-4.3335,-4.3684,-4.4038,-4.4374,-4.4998,-4.5729,-4.6199,-4.6654,-4.6667,-4.6279,-4.5755,-2.8915,-2.8781,-2.658,-2.5811,-2.6184,-2.7643,-3.0229,-3.3671,-3.5408,-3.7841,-4.0053,-4.0258,-4.0839,-4.1788,-4.1788,-4.1359,-4.1018,-4.1018,-4.0787,-4.0601,-4.0601,-4.0322,-4.0032,-4.0032,-3.9742,-3.915,-3.8859,-3.8557,-3.8557,-3.7975,-3.7683,-3.7975,-3.8848,-3.915,-3.944,-4.0021,-4.0601,-4.0601,-4.0601,-4.089,-4.1469,-4.2059,-4.2347,-4.2347,-4.2636,-4.2047,-4.0601,-4.03,-3.8514,-3.579,-3.3631,-3.2071,-3.0843,-2.8545,-2.6626,-2.567,-2.4395,-2.3856,-2.4092,-2.4808,-2.5545,-2.6023,-2.6993,-2.7662,-2.8061,-2.7849,-2.7857,-2.8085,-2.8287,-2.8856,-2.9531,-3.0454,-3.164,-3.3708,-3.6428,-3.8535,-4.0021,-4.1854,-4.2752,-4.2598,-4.2189,-4.1664,-4.1312,-4.0839,-4.1456,-4.3133,-4.4662,-4.5855,-4.6994,-4.7863,-4.8604,-4.8671,-4.8898,-4.8391,-4.6854,-4.6711,-4.6332,-4.525,-4.453,-4.4361,-4.4312,-4.4131,-4.3914,-4.3757,-4.3624,-4.382,-4.4596,-4.5064,-4.574,-4.603,-4.6648,-4.7135,-4.6569,-4.581,-4.5254,-2.7889,-2.7748,-2.6131,-2.5669,-2.6072,-2.7818,-3.0429,-3.3606,-3.5345,-3.7505,-3.9462,-3.9462,-3.9751,-4.0327,-4.0614,-4.0429,-4.001,-3.9731,-3.944,-3.9429,-3.9429,-3.8859,-3.8579,-3.8568,-3.8277,-3.7694,-3.7111,-3.6808,-3.6808,-3.6224,-3.5931,-3.6224,-3.7111,-3.7694,-3.7694,-3.8848,-3.9429,-3.9429,-3.944,-3.9731,-3.9731,-4.0681,-4.1296,-4.1586,-4.2165,-4.1899,-4.0515,-3.964,-3.8167,-3.6113,-3.3604,-3.206,-3.1186,-2.8955,-2.7312,-2.599,-2.4551,-2.3788,-2.4005,-2.4648,-2.5363,-2.557,-2.6208,-2.7164,-2.7572,-2.764,-2.7663,-2.8254,-2.82,-2.8494,-2.9376,-3.0305,-3.1818,-3.4209,-3.7184,-3.9569,-4.1048,-4.2828,-4.3612,-4.3455,-4.2824,-4.239,-4.1988,-4.1881,-4.2516,-4.3862,-4.5052,-4.6201,-4.7307,-4.8153,-4.8938,-4.8952,-4.9152,-4.8575,-4.7251,-4.6851,-4.6496,-4.5709,-4.5047,-4.4723,-4.465,-4.4433,-4.4252,-4.4143,-4.395,-4.3805,-4.4344,-4.5211,-4.5999,-4.6652,-4.7295,-4.7423,-4.6876,-4.6015,-4.5152,-2.7046,-2.5796,-2.4629,-2.4755,-2.6251,-2.8001,-3.0045,-3.2372,-3.4718,-3.629,-3.735,-3.7943,-3.7954,-3.736,-3.8514,-3.9117,-3.8277,-3.7694,-3.71,-3.6516,-3.6224,-3.6224,-3.5931,-3.5931,-3.6224,-3.6224,-3.5931,-3.5931,-3.5639,-3.5931,-3.5931,-3.5931,-3.5931,-3.5931,-3.5931,-3.6224,-3.6224,-3.6516,-3.7111,-3.7402,-3.7423,-3.9078,-4.0359,-4.0955,-4.0955,-4.0764,-4.0073,-3.9241,-3.8055,-3.6558,-3.4134,-3.2647,-3.1739,-2.9779,-2.8108,-2.649,-2.5107,-2.4297,-2.4338,-2.5044,-2.5748,-2.5776,-2.6397,-2.6996,-2.7345,-2.7762,-2.8144,-2.8449,-2.855,-2.8817,-2.9792,-3.0975,-3.2765,-3.4846,-3.7512,-3.9613,-4.1389,-4.291,-4.3709,-4.3709,-4.3721,-4.3331,-4.3335,-4.3274,-4.3601,-4.4305,-4.5529,-4.6726,-4.7365,-4.8483,-4.9232,-4.9259,-4.9299,-4.899,-4.8102,-4.7353,-4.6921,-4.6158,-4.5351,-4.5133,-4.5,-4.4844,-4.4687,-4.4518,-4.43,-4.4156,-4.4367,-4.4835,-4.5847,-4.6594,-4.7704,-4.7928,-4.6955,-4.6517,-4.5619,-2.6803,-2.5802,-2.4544,-2.4931,-2.6408,-2.7592,-2.9652,-3.229,-3.3179,-3.4389,-3.5326,-3.5336,-3.5043,-3.475,-3.475,-3.5629,-3.6516,-3.6516,-3.6224,-3.5931,-3.5931,-3.5931,-3.5931,-3.5931,-3.5639,-3.5053,-3.476,-3.3879,-3.2997,-3.2997,-3.2997,-3.2997,-3.3282,-3.3585,-3.3879,-3.476,-3.5053,-3.5346,-3.5931,-3.6516,-3.7131,-3.7927,-3.8708,-3.9744,-4.0629,-4.0957,-4.0161,-3.8988,-3.7502,-3.6002,-3.361,-3.1818,-3.0907,-2.905,-2.7179,-2.6223,-2.5058,-2.4528,-2.4623,-2.528,-2.5969,-2.6068,-2.6696,-2.7601,-2.7922,-2.7976,-2.8321,-2.8943,-2.9281,-3.0161,-3.1622,-3.217,-3.3072,-3.489,-3.8217,-4.0627,-4.1834,-4.3324,-4.4228,-4.4228,-4.4216,-4.4168,-4.4107,-4.4083,-4.4083,-4.4391,-4.5439,-4.6144,-4.7084,-4.818,-4.8958,-4.9593,-4.9713,-4.9833,-4.9534,-4.822,-4.7047,-4.6307,-4.5825,-4.5546,-4.5169,-4.5157,-4.5037,-4.4819,-4.4626,-4.4506,-4.4719,-4.5106,-4.6112,-4.6891,-4.8021,-4.7637,-4.662,-4.6457,-4.5541,-2.6448,-2.5986,-2.4655,-2.5009,-2.62,-2.7092,-2.8568,-3.0917,-3.1454,-3.2051,-3.2951,-3.2858,-3.2538,-3.2299,-3.173,-3.2308,-3.3482,-3.4134,-3.4457,-3.4457,-3.4466,-3.4457,-3.4457,-3.4466,-3.4173,-3.3585,-3.2997,-3.2114,-3.1229,-3.1229,-3.1229,-3.1229,-3.1819,-3.2114,-3.2114,-3.2997,-3.3585,-3.3879,-3.476,-3.5639,-3.6254,-3.7413,-3.8531,-3.9295,-4.0625,-4.0703,-3.981,-3.8318,-3.6821,-3.531,-3.29,-3.1095,-2.9579,-2.7762,-2.6543,-2.5933,-2.5315,-2.5058,-2.5454,-2.6082,-2.644,-2.6541,-2.7172,-2.7789,-2.8098,-2.8406,-2.8714,-2.9637,-3.0558,-3.1777,-3.3307,-3.3594,-3.4204,-3.6345,-3.9136,-4.1318,-4.2535,-4.3809,-4.4759,-4.4759,-4.4759,-4.4759,-4.4771,-4.4759,-4.4747,-4.4771,-4.536,-4.6259,-4.7195,-4.7908,-4.8949,-4.9561,-4.9994,-5.0141,-4.9906,-4.895,-4.798,-4.7211,-4.6155,-4.5813,-4.5435,-4.5435,-4.5338,-4.5121,-4.4964,-4.4868,-4.5011,-4.5687,-4.644,-4.7226,-4.7737,-4.7965,-4.7007,-4.6368,-4.5523,-2.5374,-2.6001,-2.4655,-2.4717,-2.5314,-2.62,-2.7092,-2.7951,-2.9274,-2.9896,-3.0301,-3.0569,-3.0234,-3.0053,-2.9811,-2.9484,-2.9224,-3.0553,-3.1229,-3.1524,-3.1524,-3.1524,-3.1524,-3.1793,-3.1489,-3.1203,-3.1221,-3.0943,-3.0665,-3.0656,-3.0648,-3.0943,-3.0648,-3.0639,-3.0943,-3.0934,-3.1229,-3.1524,-3.2703,-3.3879,-3.5102,-3.7212,-3.8923,-4.0217,-4.0594,-4.0225,-3.8749,-3.7841,-3.6296,-3.4786,-3.2354,-2.9936,-2.8059,-2.682,-2.6225,-2.6203,-2.6225,-2.6232,-2.6232,-2.6849,-2.7459,-2.7481,-2.7481,-2.8098,-2.8406,-2.9329,-2.9944,-3.0558,-3.1777,-3.3001,-3.4833,-3.5442,-3.6649,-3.9104,-4.0466,-4.1822,-4.3405,-4.4527,-4.529,-4.5278,-4.5278,-4.5302,-4.5302,-4.5302,-4.529,-4.5254,-4.5861,-4.643,-4.7312,-4.8269,-4.9238,-4.9853,-5.0261,-5.0421,-5.0212,-4.9975,-4.905,-4.8161,-4.7087,-4.6226,-4.5761,-4.5701,-4.558,-4.5387,-4.5194,-4.5085,-4.4988,-4.5697,-4.6247,-4.7042,-4.7535,-4.778,-4.7186,-4.6295,-4.5997,-2.5242,-2.5547,-2.4399,-2.4717,-2.5321,-2.5612,-2.6207,-2.6772,-2.7211,-2.7825,-2.82,-2.8206,-2.815,-2.8278,-2.8302,-2.7715,-2.715,-2.76,-2.8872,-3.0065,-3.0361,-3.0648,-3.1212,-3.1106,-3.0458,-2.9274,-2.8399,-2.7935,-2.81,-2.8038,-2.803,-2.8116,-2.8038,-2.7975,-2.8279,-2.8568,-2.8872,-2.8872,-2.9752,-3.181,-3.4466,-3.5899,-3.7907,-4.048,-4.0792,-3.9827,-3.8468,-3.7266,-3.5442,-3.3289,-3.1777,-2.9944,-2.7789,-2.6555,-2.5937,-2.5326,-2.5326,-2.5628,-2.6246,-2.7172,-2.7789,-2.8406,-2.9329,-2.9944,-3.0251,-3.0857,-3.2083,-3.3001,-3.3918,-3.4833,-3.6962,-3.7569,-3.8499,-3.9687,-4.1116,-4.2508,-4.3814,-4.4717,-4.5544,-4.5604,-4.5737,-4.5833,-4.5845,-4.5833,-4.5737,-4.5604,-4.5886,-4.6143,-4.6908,-4.7919,-4.8616,-4.954,-4.9988,-5.0688,-5.0451,-5.0186,-4.9575,-4.8645,-4.7544,-4.6408,-4.599,-4.5906,-4.5785,-4.5664,-4.5471,-4.5326,-4.5521,-4.5751,-4.6294,-4.6571,-4.7098,-4.711,-4.6847,-4.6207,-4.5832,-2.5016,-2.5314,-2.4419,-2.4419,-2.4717,-2.4717,-2.5016,-2.5583,-2.5734,-2.606,-2.6704,-2.7034,-2.6942,-2.6756,-2.6871,-2.6303,-2.541,-2.5648,-2.6945,-2.8664,-2.9193,-2.976,-3.0048,-2.9946,-2.9249,-2.804,-2.6909,-2.6482,-2.6728,-2.6646,-2.6668,-2.6788,-2.6668,-2.6594,-2.6579,-2.7122,-2.7389,-2.7389,-2.7982,-3.0361,-3.3689,-3.5349,-3.7653,-4.1195,-4.1445,-4.0438,-3.9072,-3.7266,-3.4833,-3.2686,-3.1164,-2.9329,-2.7172,-2.6555,-2.5937,-2.5326,-2.5326,-2.5937,-2.6555,-2.7481,-2.8406,-2.9637,-3.055,-3.1479,-3.1786,-3.2695,-3.3918,-3.4528,-3.5519,-3.6444,-3.8227,-3.8981,-3.961,-4.0736,-4.1878,-4.3311,-4.4412,-4.5334,-4.5833,-4.5894,-4.599,-4.6087,-4.6111,-4.6099,-4.6051,-4.5894,-4.5858,-4.6141,-4.6901,-4.7575,-4.8556,-4.9536,-5.0225,-5.061,-5.0982,-5.0384,-4.9784,-4.8837,-4.7927,-4.7027,-4.636,-4.6039,-4.5966,-4.5906,-4.5761,-4.564,-4.5532,-4.5776,-4.602,-4.6629,-4.687,-4.6758,-4.6696,-4.6418,-4.6078,-2.444,-2.5044,-2.4447,-2.4155,-2.4148,-2.4168,-2.4155,-2.4399,-2.4889,-2.5214,-2.5547,-2.6516,-2.6365,-2.5538,-2.6089,-2.5836,-2.4302,-2.4632,-2.5662,-2.675,-2.7527,-2.8335,-2.884,-2.8215,-2.7545,-2.7173,-2.6385,-2.6273,-2.648,-2.6472,-2.6553,-2.6701,-2.6583,-2.6465,-2.6435,-2.6295,-2.6222,-2.6497,-2.7092,-2.9531,-3.3535,-3.5497,-3.8426,-4.2269,-4.1903,-4.0838,-3.9072,-3.6962,-3.4833,-3.2389,-2.9936,-2.809,-2.6555,-2.6246,-2.5937,-2.5023,-2.5628,-2.6246,-2.7172,-2.7789,-2.9021,-3.0558,-3.1172,-3.1794,-3.274,-3.3973,-3.5214,-3.5548,-3.6611,-3.7865,-3.9002,-3.9791,-4.1165,-4.2307,-4.3064,-4.3989,-4.5681,-4.6075,-4.6051,-4.6075,-4.6111,-4.6111,-4.6111,-4.6111,-4.6099,-4.6087,-4.6063,-4.6335,-4.694,-4.7544,-4.8837,-4.9477,-5.0064,-5.069,-5.0716,-5.1022,-5.0104,-4.8863,-4.7952,-4.7335,-4.6421,-4.6099,-4.6099,-4.6063,-4.6014,-4.5906,-4.5833,-4.6068,-4.5983,-4.6522,-4.6411,-4.6579,-4.6604,-4.6386,-4.6411,-2.4351,-2.4749,-2.4446,-2.4385,-2.4311,-2.4399,-2.4317,-2.4155,-2.4508,-2.4843,-2.5435,-2.646,-2.6074,-2.5511,-2.6281,-2.5691,-2.4481,-2.4419,-2.5162,-2.6029,-2.6892,-2.7834,-2.816,-2.7219,-2.6606,-2.6266,-2.5446,-2.4738,-2.5086,-2.5424,-2.5253,-2.5503,-2.5343,-2.5218,-2.5107,-2.4961,-2.4829,-2.4731,-2.5016,-2.8045,-3.2942,-3.4203,-3.6784,-4.0759,-4.0893,-3.9515,-3.7235,-3.5138,-3.3307,-3.1479,-2.9021,-2.7797,-2.7172,-2.6555,-2.5937,-2.5326,-2.5326,-2.5628,-2.6555,-2.7481,-2.8714,-3.0251,-3.2101,-3.337,-3.4446,-3.5989,-3.6987,-3.7721,-3.8766,-3.937,-4.0564,-4.1264,-4.2284,-4.3647,-4.4331,-4.5122,-4.6014,-4.6111,-4.6111,-4.6111,-4.6111,-4.6111,-4.6111,-4.6111,-4.6111,-4.6111,-4.6111,-4.6111,-4.6718,-4.7335,-4.826,-4.8863,-4.9477,-5.0397,-5.0716,-5.1022,-5.041,-4.917,-4.8248,-4.7644,-4.6718,-4.6111,-4.6111,-4.6099,-4.6075,-4.599,-4.6014,-4.6002,-4.6214,-4.64,-4.6117,-4.6375,-4.6153,-4.6238,-4.6202,-2.4487,-2.4562,-2.4562,-2.4514,-2.4453,-2.4528,-2.4467,-2.4345,-2.4392,-2.4742,-2.5318,-2.615,-2.607,-2.5142,-2.6237,-2.5957,-2.4358,-2.4616,-2.5329,-2.5869,-2.7019,-2.7958,-2.8231,-2.7545,-2.6621,-2.5986,-2.5207,-2.4556,-2.4541,-2.4684,-2.4887,-2.5036,-2.4962,-2.4813,-2.4657,-2.4446,-2.4277,-2.4155,-2.4128,-2.6877,-3.1563,-3.1879,-3.4499,-3.7523,-3.7937,-3.6812,-3.6021,-3.5737,-3.4519,-3.1768,-2.9629,-2.8105,-2.7488,-2.6555,-2.5937,-2.5023,-2.5023,-2.5635,-2.6555,-2.7172,-2.8714,-3.0575,-3.2749,-3.4399,-3.5759,-3.7383,-3.9063,-3.9443,-4.0495,-4.1418,-4.1988,-4.2658,-4.3444,-4.4874,-4.5562,-4.5942,-4.6099,-4.6111,-4.6111,-4.6111,-4.6111,-4.6111,-4.6111,-4.6111,-4.6111,-4.6111,-4.6111,-4.6111,-4.6111,-4.673,-4.7644,-4.826,-4.917,-5.0104,-5.0716,-5.1022,-5.0371,-4.9132,-4.7889,-4.7594,-4.699,-4.6075,-4.6111,-4.6111,-4.6111,-4.6111,-4.6111,-4.6111,-4.6063,-4.6014,-4.6099,-4.6111,-4.6111,-4.6111,-4.6111,-2.4596,-2.4616,-2.4616,-2.4602,-2.4596,-2.4609,-2.4596,-2.4562,-2.4602,-2.4609,-2.49,-2.613,-2.5748,-2.4412,-2.6188,-2.6245,-2.4602,-2.4847,-2.5503,-2.6332,-2.7412,-2.8384,-2.8761,-2.8038,-2.7069,-2.6408,-2.572,-2.4995,-2.4907,-2.4867,-2.5098,-2.5199,-2.5131,-2.4982,-2.4792,-2.4535,-2.4297,-2.4155,-2.4121,-2.6048,-2.9262,-2.9937,-3.1915,-3.4369,-3.3835,-3.4462,-3.5717,-3.6335,-3.5119,-3.176,-3.055,-2.9313,-2.7774,-2.6526,-2.5916,-2.5305,-2.4996,-2.5635,-2.6864,-2.7481,-2.8714,-3.1496,-3.3479,-3.4847,-3.6769,-3.9084,-4.0781,-4.0868,-4.2223,-4.2862,-4.3386,-4.4082,-4.4886,-4.5705,-4.6087,-4.6099,-4.6111,-4.6111,-4.6111,-4.6111,-4.6111,-4.6111,-4.6111,-4.6111,-4.6111,-4.6111,-4.6111,-4.6111,-4.6111,-4.6421,-4.7335,-4.7952,-4.8876,-4.9797,-5.041,-5.1022,-5.0357,-4.9399,-4.8121,-4.7199,-4.6607,-4.6027,-4.6087,-4.6111,-4.6111,-4.6111,-4.6111,-4.6111,-4.6111,-4.6111,-4.6111,-4.6111,-4.6111,-4.6111,-4.6111,-2.4813,-2.4921,-2.4921,-2.4853,-2.4779,-2.4867,-2.4786,-2.4596,-2.4819,-2.4833,-2.5092,-2.5775,-2.5733,-2.4704,-2.5768,-2.5803,-2.4772,-2.4928,-2.5607,-2.7113,-2.7257,-2.8379,-2.913,-2.8344,-2.7581,-2.6654,-2.5799,-2.5325,-2.4927,-2.4955,-2.526,-2.5376,-2.5321,-2.5226,-2.4962,-2.4657,-2.4379,-2.4175,-2.4121,-2.5756,-2.8392,-2.9066,-3.0136,-3.1691,-3.0832,-3.2057,-3.45,-3.328,-3.2669,-3.328,-3.2363,-2.9871,-2.704,-2.6182,-2.5572,-2.5216,-2.4962,-2.5326,-2.6246,-2.7172,-2.8721,-3.1206,-3.4111,-3.673,-3.8478,-4.1154,-4.261,-4.2757,-4.318,-4.3777,-4.435,-4.5337,-4.5717,-4.6087,-4.6111,-4.6111,-4.6111,-4.6111,-4.6111,-4.6111,-4.6099,-4.6111,-4.6099,-4.6051,-4.6063,-4.6099,-4.6099,-4.6099,-4.6099,-4.6396,-4.7027,-4.7644,-4.8555,-4.9477,-5.0104,-5.0371,-4.9959,-4.927,-4.7995,-4.6719,-4.6129,-4.5954,-4.6014,-4.6075,-4.6111,-4.6111,-4.6111,-4.6111,-4.6111,-4.6111,-4.6111,-4.6111,-4.6111,-4.6111,-4.6111,-2.4948,-2.5016,-2.5023,-2.4975,-2.4921,-2.4982,-2.4928,-2.4826,-2.4942,-2.4975,-2.5236,-2.5909,-2.5579,-2.4894,-2.5825,-2.5803,-2.4921,-2.4975,-2.5677,-2.6922,-2.7128,-2.8006,-2.9234,-2.8963,-2.813,-2.7111,-2.6612,-2.5776,-2.4989,-2.4996,-2.5301,-2.5437,-2.5396,-2.5267,-2.5084,-2.4752,-2.446,-2.4263,-2.4155,-2.5149,-2.6907,-2.7269,-2.742,-2.8612,-2.8998,-3.113,-3.2651,-3.2956,-3.2345,-3.2354,-3.1734,-2.983,-2.6667,-2.5846,-2.5236,-2.4847,-2.4935,-2.5319,-2.6246,-2.718,-2.8753,-3.1291,-3.4231,-3.6907,-3.9303,-4.1705,-4.3445,-4.4192,-4.4537,-4.4859,-4.5491,-4.5789,-4.6111,-4.6111,-4.6111,-4.6111,-4.6111,-4.6111,-4.6111,-4.6075,-4.599,-4.5942,-4.5906,-4.587,-4.5761,-4.5689,-4.587,-4.5882,-4.5954,-4.6275,-4.6693,-4.7335,-4.8248,-4.8863,-4.9784,-5.0012,-4.9854,-4.914,-4.811,-4.6815,-4.5862,-4.5749,-4.5954,-4.6027,-4.6111,-4.6111,-4.6111,-4.6111,-4.6099,-4.6099,-4.6099,-4.6111,-4.6111,-4.6111,-4.6111,-2.5023,-2.5023,-2.5023,-2.5023,-2.5023,-2.5023,-2.503,-2.5043,-2.505,-2.5064,-2.505,-2.5663,-2.5663,-2.5298,-2.5468,-2.5489,-2.5257,-2.5023,-2.5697,-2.6424,-2.7224,-2.8166,-2.8807,-2.9218,-2.8612,-2.7156,-2.7056,-2.6209,-2.501,-2.4989,-2.5301,-2.541,-2.5308,-2.524,-2.5131,-2.4799,-2.4487,-2.4331,-2.4195,-2.4263,-2.4811,-2.4866,-2.5329,-2.5874,-2.7774,-2.9596,-3.0509,-3.1419,-3.2022,-3.0194,-2.958,-2.7968,-2.6389,-2.5223,-2.4955,-2.4813,-2.4935,-2.5319,-2.6246,-2.718,-2.8475,-3.1117,-3.3467,-3.6454,-3.9159,-4.1526,-4.3547,-4.4836,-4.5479,-4.5801,-4.6111,-4.6111,-4.6111,-4.6111,-4.6111,-4.6111,-4.6111,-4.6111,-4.6099,-4.6002,-4.587,-4.5785,-4.564,-4.5532,-4.5399,-4.5326,-4.552,-4.5689,-4.5773,-4.5858,-4.6287,-4.6718,-4.7644,-4.8863,-4.9477,-5.0371,-4.9894,-4.8985,-4.7945,-4.6933,-4.5643,-4.5483,-4.5713,-4.6014,-4.6111,-4.6099,-4.6087,-4.6075,-4.6075,-4.6075,-4.6099,-4.6111,-4.6111,-4.6111,-4.6123,-2.5023,-2.5023,-2.5023,-2.5023,-2.5023,-2.5023,-2.5091,-2.5186,-2.5192,-2.5192,-2.5192,-2.5192,-2.5429,-2.5009,-2.486,-2.4813,-2.4847,-2.4962,-2.5422,-2.6453,-2.6973,-2.7902,-2.8614,-2.9361,-2.877,-2.7375,-2.7145,-2.6245,-2.5003,-2.4996,-2.5281,-2.5396,-2.5308,-2.5233,-2.5125,-2.4806,-2.4514,-2.4372,-2.4216,-2.4277,-2.4494,-2.4629,-2.4738,-2.5003,-2.626,-2.7473,-2.8675,-2.7759,-2.7451,-2.9273,-2.715,-2.5846,-2.5175,-2.4948,-2.4928,-2.486,-2.4935,-2.5326,-2.5937,-2.6871,-2.849,-3.0188,-3.2536,-3.5532,-3.8548,-4.0926,-4.3248,-4.5158,-4.5801,-4.6111,-4.6111,-4.6111,-4.6111,-4.6111,-4.6111,-4.6111,-4.6111,-4.6099,-4.6014,-4.5858,-4.5749,-4.5592,-4.5411,-4.5254,-4.5145,-4.5121,-4.5254,-4.5483,-4.564,-4.5749,-4.587,-4.6299,-4.7027,-4.826,-4.949,-5.0064,-5.0239,-4.8591,-4.7489,-4.6758,-4.5812,-4.557,-4.5471,-4.5833,-4.6027,-4.6039,-4.6039,-4.6039,-4.6014,-4.6002,-4.6051,-4.6111,-4.6171,-4.622,-4.6208,-2.5023,-2.5023,-2.5023,-2.5023,-2.503,-2.5104,-2.5165,-2.5233,-2.5315,-2.5349,-2.5321,-2.5267,-2.5199,-2.5064,-2.4792,-2.4677,-2.4745,-2.5009,-2.5511,-2.592,-2.6771,-2.7386,-2.8418,-2.9147,-2.8213,-2.7443,-2.7213,-2.6303,-2.4927,-2.4935,-2.5233,-2.5382,-2.5308,-2.5267,-2.5233,-2.4914,-2.4629,-2.4453,-2.427,-2.427,-2.4575,-2.4745,-2.4969,-2.4996,-2.5084,-2.6007,-2.6548,-2.6239,-2.5628,-2.6849,-2.5937,-2.5284,-2.4955,-2.4948,-2.4948,-2.4853,-2.4935,-2.5023,-2.5628,-2.626,-2.7585,-2.9687,-3.1974,-3.5277,-3.8639,-4.1012,-4.357,-4.5158,-4.6111,-4.6111,-4.6111,-4.6111,-4.6111,-4.6111,-4.6111,-4.6111,-4.6111,-4.6111,-4.5954,-4.5737,-4.5568,-4.5375,-4.5121,-4.4988,-4.4904,-4.494,-4.5025,-4.523,-4.5471,-4.5628,-4.5749,-4.6287,-4.6718,-4.7952,-4.917,-4.9771,-5.0252,-4.892,-4.7703,-4.6671,-4.6004,-4.5461,-4.5411,-4.5761,-4.5882,-4.5966,-4.6039,-4.6063,-4.599,-4.5942,-4.6039,-4.6135,-4.6256,-4.6328,-4.6316,-2.5023,-2.5023,-2.5023,-2.5036,-2.5077,-2.5179,-2.5274,-2.5342,-2.5457,-2.5511,-2.5484,-2.5355,-2.5267,-2.5138,-2.4874,-2.465,-2.4629,-2.5023,-2.5294,-2.5703,-2.624,-2.6872,-2.7526,-2.7948,-2.7937,-2.6841,-2.7003,-2.6389,-2.4975,-2.4887,-2.5172,-2.5342,-2.5308,-2.5308,-2.5328,-2.5036,-2.4786,-2.4541,-2.4365,-2.4365,-2.4643,-2.4989,-2.5186,-2.5091,-2.5199,-2.5213,-2.5401,-2.5077,-2.505,-2.5339,-2.5023,-2.5016,-2.5023,-2.5023,-2.4962,-2.488,-2.4962,-2.5009,-2.5326,-2.5944,-2.6988,-2.8837,-3.1376,-3.4406,-3.8428,-4.1378,-4.4537,-4.5789,-4.6111,-4.6111,-4.6111,-4.6111,-4.6111,-4.6111,-4.6111,-4.6111,-4.6111,-4.6075,-4.5966,-4.5737,-4.5459,-4.523,-4.5013,-4.4783,-4.4711,-4.4699,-4.4783,-4.4952,-4.5194,-4.5447,-4.564,-4.6263,-4.6718,-4.7952,-4.8863,-4.949,-4.9601,-4.8959,-4.778,-4.701,-4.6017,-4.5363,-4.5351,-4.5592,-4.5821,-4.5918,-4.6002,-4.6063,-4.599,-4.5966,-4.6051,-4.6135,-4.6208,-4.6352,-4.6437,-2.5023,-2.5023,-2.5023,-2.5091,-2.5192,-2.5226,-2.5396,-2.5613,-2.5647,-2.5667,-2.5654,-2.5498,-2.5362,-2.5186,-2.5043,-2.4806,-2.4779,-2.5036,-2.5328,-2.5738,-2.5969,-2.6602,-2.6958,-2.732,-2.7091,-2.631,-2.6454,-2.574,-2.5017,-2.4887,-2.5159,-2.5355,-2.5335,-2.5301,-2.5376,-2.5145,-2.4853,-2.4616,-2.4521,-2.4575,-2.4765,-2.5064,-2.5206,-2.524,-2.5328,-2.5362,-2.5233,-2.5206,-2.5165,-2.5064,-2.5036,-2.5023,-2.5023,-2.5023,-2.5016,-2.5003,-2.5009,-2.5023,-2.5016,-2.5635,-2.6685,-2.7891,-2.8585,-3.1271,-3.6852,-4.1712,-4.4859,-4.5801,-4.6111,-4.6111,-4.6111,-4.6111,-4.6111,-4.6111,-4.6111,-4.6111,-4.6111,-4.6099,-4.599,-4.5785,-4.552,-4.5242,-4.5,-4.4735,-4.453,-4.453,-4.4566,-4.4747,-4.4988,-4.5302,-4.5628,-4.5966,-4.6421,-4.7335,-4.8248,-4.9183,-4.9309,-4.8694,-4.8159,-4.735,-4.6282,-4.5303,-4.5097,-4.5351,-4.5616,-4.5845,-4.5942,-4.5966,-4.5954,-4.5978,-4.6051,-4.6087,-4.6123,-4.6304,-4.657,-2.5023,-2.5023,-2.5023,-2.5104,-2.5233,-2.5321,-2.5484,-2.5674,-2.5776,-2.581,-2.5783,-2.5654,-2.5423,-2.5159,-2.5036,-2.4901,-2.4826,-2.5152,-2.5382,-2.5477,-2.5779,-2.6415,-2.6659,-2.6793,-2.6577,-2.6104,-2.6132,-2.5825,-2.5126,-2.4901,-2.5138,-2.5301,-2.5349,-2.5328,-2.5369,-2.5213,-2.4921,-2.4677,-2.4562,-2.4596,-2.4765,-2.5084,-2.5321,-2.5254,-2.5464,-2.5484,-2.5403,-2.5362,-2.5342,-2.5254,-2.5199,-2.5138,-2.5118,-2.507,-2.5023,-2.5023,-2.5023,-2.5023,-2.5023,-2.5326,-2.6106,-2.7235,-2.8287,-3.1544,-3.7489,-4.1712,-4.4859,-4.6099,-4.6111,-4.6111,-4.6111,-4.6111,-4.6111,-4.6111,-4.6111,-4.6111,-4.6111,-4.6099,-4.6027,-4.5809,-4.558,-4.5326,-4.5049,-4.4771,-4.4566,-4.4518,-4.4554,-4.4687,-4.4988,-4.5363,-4.5701,-4.6039,-4.6408,-4.6718,-4.7644,-4.8555,-4.8722,-4.8466,-4.8197,-4.7363,-4.622,-4.5568,-4.54,-4.5278,-4.5556,-4.5749,-4.587,-4.5966,-4.6027,-4.6027,-4.6027,-4.6099,-4.6196,-4.6534,-4.6811,-2.5023,-2.5023,-2.5023,-2.5125,-2.5294,-2.5416,-2.5572,-2.5749,-2.585,-2.5898,-2.585,-2.5701,-2.5396,-2.5098,-2.5016,-2.4935,-2.4826,-2.526,-2.543,-2.5518,-2.5586,-2.5889,-2.608,-2.6226,-2.6022,-2.5761,-2.5881,-2.5558,-2.5229,-2.4969,-2.5098,-2.5233,-2.5382,-2.5396,-2.5328,-2.5267,-2.5098,-2.4752,-2.4609,-2.4623,-2.4779,-2.5199,-2.5335,-2.5416,-2.5538,-2.5674,-2.5545,-2.5518,-2.5518,-2.5416,-2.5294,-2.5213,-2.5199,-2.5098,-2.503,-2.5023,-2.5023,-2.5023,-2.5023,-2.5043,-2.5477,-2.6879,-2.958,-3.2858,-3.7195,-4.1378,-4.4226,-4.5479,-4.6111,-4.6111,-4.6111,-4.6111,-4.6111,-4.6111,-4.6111,-4.6111,-4.6111,-4.6111,-4.6087,-4.5954,-4.5725,-4.5459,-4.5169,-4.4844,-4.465,-4.4542,-4.4566,-4.4638,-4.4952,-4.5338,-4.5628,-4.593,-4.6087,-4.6705,-4.7335,-4.7914,-4.8083,-4.825,-4.7996,-4.7818,-4.7048,-4.6041,-4.5194,-4.5375,-4.558,-4.5761,-4.5966,-4.6039,-4.6111,-4.6087,-4.6087,-4.6171,-4.634,-4.6666,-4.698,-2.5023,-2.5023,-2.5023,-2.5179,-2.5437,-2.5457,-2.562,-2.5857,-2.5891,-2.5898,-2.5864,-2.562,-2.5349,-2.5104,-2.5036,-2.4955,-2.4826,-2.526,-2.5423,-2.5511,-2.5593,-2.5593,-2.5786,-2.5628,-2.5477,-2.5319,-2.5326,-2.5319,-2.5003,-2.4989,-2.5111,-2.5233,-2.5349,-2.5423,-2.5403,-2.5321,-2.5192,-2.4887,-2.4704,-2.4738,-2.4955,-2.5267,-2.5437,-2.5518,-2.5701,-2.5817,-2.5688,-2.5674,-2.5633,-2.5518,-2.5382,-2.5274,-2.5254,-2.5159,-2.5104,-2.503,-2.505,-2.5043,-2.503,-2.503,-2.5422,-2.746,-3.0496,-3.3582,-3.5995,-4.0753,-4.3593,-4.4859,-4.5801,-4.6111,-4.6111,-4.6111,-4.6111,-4.6111,-4.6111,-4.6111,-4.6111,-4.6111,-4.6087,-4.6051,-4.5845,-4.5556,-4.5278,-4.4952,-4.4675,-4.4554,-4.453,-4.4602,-4.4868,-4.5206,-4.5459,-4.5737,-4.599,-4.6384,-4.7027,-4.7594,-4.8159,-4.8377,-4.8174,-4.8098,-4.8021,-4.6716,-4.5278,-4.5483,-4.5676,-4.587,-4.6014,-4.6075,-4.6111,-4.6111,-4.6135,-4.6208,-4.6365,-4.6642,-4.6956,-2.5023,-2.5023,-2.5023,-2.5192,-2.5464,-2.5464,-2.5633,-2.5871,-2.5898,-2.5898,-2.5891,-2.5688,-2.5491,-2.5308,-2.5172,-2.507,-2.4996,-2.5294,-2.543,-2.5552,-2.5654,-2.5654,-2.5525,-2.5382,-2.526,-2.5077,-2.5023,-2.5023,-2.5016,-2.5023,-2.5043,-2.5138,-2.5254,-2.5301,-2.5308,-2.5247,-2.5084,-2.4942,-2.4792,-2.4826,-2.5023,-2.5301,-2.5511,-2.5627,-2.5776,-2.5871,-2.5823,-2.5823,-2.5783,-2.5708,-2.5572,-2.5471,-2.5376,-2.5301,-2.5186,-2.507,-2.5098,-2.5091,-2.5036,-2.5036,-2.5435,-2.6296,-2.9329,-3.2367,-3.4418,-3.8853,-4.2336,-4.4226,-4.5479,-4.5789,-4.6111,-4.6111,-4.6111,-4.6111,-4.6111,-4.6111,-4.6111,-4.6111,-4.6111,-4.6075,-4.5858,-4.5592,-4.5326,-4.5049,-4.4783,-4.4566,-4.4554,-4.459,-4.4832,-4.5085,-4.5326,-4.5592,-4.5858,-4.6063,-4.6718,-4.7323,-4.826,-4.8172,-4.8058,-4.802,-4.7957,-4.6386,-4.5351,-4.5568,-4.5761,-4.5894,-4.6002,-4.6075,-4.6111,-4.6111,-4.6147,-4.6196,-4.6401,-4.6618,-4.6908,-2.5023,-2.5023,-2.5023,-2.5165,-2.5382,-2.5443,-2.5599,-2.5817,-2.5884,-2.5898,-2.5891,-2.5755,-2.5606,-2.545,-2.5294,-2.5152,-2.5118,-2.5301,-2.5423,-2.5572,-2.5701,-2.5722,-2.5593,-2.545,-2.5321,-2.5125,-2.503,-2.5023,-2.5023,-2.5023,-2.503,-2.5064,-2.5111,-2.5179,-2.5206,-2.5091,-2.4962,-2.488,-2.4819,-2.4908,-2.5091,-2.5321,-2.5532,-2.5674,-2.5823,-2.5891,-2.5884,-2.5878,-2.5884,-2.583,-2.5749,-2.5633,-2.5552,-2.5464,-2.5328,-2.5213,-2.5152,-2.5159,-2.507,-2.5091,-2.522,-2.6121,-2.8114,-3.0797,-3.3444,-3.6329,-3.9491,-4.2648,-4.3904,-4.4836,-4.5479,-4.6111,-4.6111,-4.6111,-4.6111,-4.6111,-4.6111,-4.6111,-4.6111,-4.6087,-4.5894,-4.5749,-4.5435,-4.5157,-4.4807,-4.459,-4.4542,-4.4554,-4.4675,-4.494,-4.5218,-4.5483,-4.5749,-4.5942,-4.6087,-4.7113,-4.7831,-4.7818,-4.8027,-4.7952,-4.7494,-4.6253,-4.5532,-4.5785,-4.593,-4.5954,-4.6002,-4.6087,-4.6111,-4.6111,-4.6147,-4.6171,-4.6316,-4.6534,-4.6835,-2.5023,-2.5023,-2.5023,-2.5104,-2.5254,-2.5403,-2.5559,-2.5728,-2.5844,-2.5898,-2.5884,-2.5762,-2.5627,-2.5477,-2.5335,-2.5192,-2.5138,-2.5335,-2.5464,-2.5538,-2.5755,-2.5783,-2.5667,-2.5518,-2.5369,-2.5226,-2.5098,-2.5023,-2.5023,-2.5023,-2.5023,-2.5023,-2.5057,-2.5104,-2.5199,-2.5098,-2.5023,-2.4989,-2.4867,-2.4989,-2.5206,-2.5389,-2.5532,-2.5722,-2.5871,-2.5945,-2.5905,-2.5939,-2.5939,-2.5884,-2.5796,-2.5701,-2.5654,-2.5566,-2.543,-2.5267,-2.524,-2.5179,-2.5064,-2.5165,-2.5369,-2.5593,-2.7563,-2.9531,-3.0609,-3.318,-3.6339,-3.9491,-4.1055,-4.2937,-4.4525,-4.6111,-4.6111,-4.6111,-4.6111,-4.6111,-4.6111,-4.6111,-4.6111,-4.6111,-4.6087,-4.5978,-4.5616,-4.5254,-4.4856,-4.4626,-4.4542,-4.4554,-4.4614,-4.4819,-4.5109,-4.5387,-4.5664,-4.5966,-4.6159,-4.6974,-4.7695,-4.7707,-4.7658,-4.7546,-4.715,-4.6644,-4.6299,-4.6075,-4.6051,-4.6027,-4.6063,-4.6123,-4.6171,-4.6232,-4.6135,-4.6159,-4.6292,-4.6461,-4.6739,-2.5023,-2.5023,-2.5023,-2.505,-2.5125,-2.5355,-2.5552,-2.5701,-2.583,-2.5898,-2.5891,-2.5844,-2.5755,-2.5606,-2.5443,-2.5294,-2.522,-2.5342,-2.5464,-2.5505,-2.5762,-2.5776,-2.5688,-2.5538,-2.5389,-2.5233,-2.5098,-2.5023,-2.5023,-2.5023,-2.5023,-2.5023,-2.5023,-2.5043,-2.5104,-2.5098,-2.5125,-2.503,-2.4989,-2.5084,-2.5349,-2.545,-2.5579,-2.5817,-2.5973,-2.6006,-2.5945,-2.6006,-2.6,-2.5932,-2.5837,-2.5783,-2.5749,-2.5667,-2.562,-2.545,-2.5382,-2.5369,-2.5321,-2.5389,-2.5471,-2.5937,-2.6669,-2.799,-2.9679,-3.0967,-3.3813,-3.6358,-3.9208,-4.1098,-4.2625,-4.5158,-4.5789,-4.6111,-4.6111,-4.6111,-4.6111,-4.6111,-4.6111,-4.6111,-4.6099,-4.5845,-4.5532,-4.529,-4.4928,-4.4663,-4.4566,-4.4518,-4.4554,-4.4771,-4.5037,-4.5302,-4.5592,-4.5942,-4.622,-4.7036,-4.7544,-4.7618,-4.7519,-4.7072,-4.6987,-4.6591,-4.6469,-4.6087,-4.6099,-4.6111,-4.6171,-4.6232,-4.6328,-4.6352,-4.6304,-4.6208,-4.6244,-4.6413,-4.663,-2.5023,-2.5023,-2.5023,-2.5023,-2.507,-2.5342,-2.5572,-2.5755,-2.5857,-2.5898,-2.5898,-2.5898,-2.5817,-2.5674,-2.5532,-2.5376,-2.5254,-2.5328,-2.5443,-2.5484,-2.5708,-2.5776,-2.5722,-2.5566,-2.543,-2.5274,-2.5125,-2.5023,-2.5023,-2.5023,-2.5023,-2.5023,-2.5023,-2.503,-2.5057,-2.5091,-2.5104,-2.503,-2.5023,-2.5145,-2.5362,-2.5511,-2.564,-2.5898,-2.6061,-2.6108,-2.6088,-2.6088,-2.6088,-2.6,-2.5925,-2.5864,-2.5823,-2.5803,-2.5776,-2.5613,-2.543,-2.545,-2.5498,-2.5457,-2.5559,-2.5755,-2.5796,-2.6518,-2.8212,-2.8927,-3.081,-3.3655,-3.7114,-3.9573,-4.1098,-4.395,-4.5861,-4.5873,-4.6111,-4.6111,-4.6111,-4.6111,-4.6111,-4.6111,-4.6075,-4.5785,-4.5507,-4.5254,-4.5,-4.4783,-4.4578,-4.4542,-4.4518,-4.4687,-4.4904,-4.5157,-4.5411,-4.5725,-4.6099,-4.6473,-4.698,-4.7488,-4.7403,-4.6955,-4.6809,-4.6712,-4.6256,-4.6111,-4.6111,-4.6147,-4.6268,-4.6365,-4.6485,-4.6546,-4.6558,-4.6437,-4.6268,-4.6389,-4.6582,-2.5023,-2.5023,-2.5023,-2.5023,-2.507,-2.5342,-2.5627,-2.5891,-2.5898,-2.5905,-2.5912,-2.5912,-2.5857,-2.5715,-2.5559,-2.5416,-2.5308,-2.5294,-2.5376,-2.5491,-2.5667,-2.5762,-2.5755,-2.5599,-2.5471,-2.5349,-2.5192,-2.5023,-2.5023,-2.5023,-2.5023,-2.5023,-2.5023,-2.5036,-2.5057,-2.5084,-2.5084,-2.5077,-2.5084,-2.524,-2.5457,-2.5511,-2.5728,-2.5979,-2.6142,-2.6224,-2.6237,-2.6244,-2.6176,-2.6088,-2.5993,-2.5932,-2.5898,-2.5898,-2.581,-2.5654,-2.541,-2.5471,-2.5586,-2.5532,-2.5627,-2.5823,-2.6006,-2.6095,-2.6452,-2.7133,-2.8726,-3.0971,-3.4168,-3.7508,-4.0243,-4.3128,-4.5694,-4.5933,-4.6123,-4.6111,-4.6111,-4.6111,-4.6111,-4.6111,-4.6111,-4.5918,-4.5664,-4.5411,-4.5085,-4.4856,-4.465,-4.4542,-4.4518,-4.4518,-4.4735,-4.4964,-4.5218,-4.5459,-4.5882,-4.6425,-4.6799,-4.732,-4.7308,-4.6884,-4.6715,-4.6497,-4.6304,-4.6159,-4.6123,-4.6183,-4.634,-4.6497,-4.6642,-4.6702,-4.6823,-4.663,-4.6461,-4.6413,-4.6546,-2.5023,-2.5023,-2.5023,-2.5023,-2.5064,-2.5335,-2.5627,-2.5878,-2.5905,-2.5952,-2.6054,-2.5952,-2.5945,-2.5979,-2.5742,-2.5613,-2.5532,-2.5484,-2.5518,-2.5593,-2.5647,-2.5769,-2.5755,-2.5627,-2.5505,-2.5369,-2.5206,-2.503,-2.5023,-2.5023,-2.5023,-2.5023,-2.5036,-2.5077,-2.5131,-2.5172,-2.5179,-2.5179,-2.5186,-2.5349,-2.5525,-2.5606,-2.585,-2.6061,-2.6237,-2.6318,-2.6359,-2.642,-2.6339,-2.6149,-2.6095,-2.6034,-2.6866,-2.6218,-2.5837,-2.5694,-2.5532,-2.5484,-2.562,-2.5552,-2.5593,-2.5857,-2.6034,-2.6108,-2.6142,-2.6196,-2.69,-2.9199,-3.1818,-3.5226,-3.8577,-4.141,-4.4215,-4.5969,-4.6183,-4.6159,-4.6147,-4.6111,-4.6111,-4.6111,-4.6111,-4.6027,-4.5773,-4.5459,-4.5145,-4.4916,-4.4723,-4.459,-4.4518,-4.4518,-4.4566,-4.4807,-4.5121,-4.5399,-4.5906,-4.6461,-4.6835,-4.7125,-4.7077,-4.7016,-4.6871,-4.6642,-4.6365,-4.622,-4.6171,-4.628,-4.6437,-4.663,-4.6871,-4.7053,-4.7149,-4.6884,-4.6678,-4.6582,-4.6509,-2.5023,-2.5023,-2.5023,-2.5084,-2.522,-2.5389,-2.5661,-2.5952,-2.5993,-2.6054,-2.6122,-2.6108,-2.6101,-2.6074,-2.5884,-2.5735,-2.5654,-2.545,-2.545,-2.5633,-2.564,-2.5749,-2.5735,-2.5674,-2.5545,-2.5396,-2.5247,-2.5084,-2.5043,-2.5023,-2.5023,-2.503,-2.5057,-2.5152,-2.522,-2.5287,-2.5369,-2.5376,-2.5403,-2.5491,-2.5599,-2.5715,-2.5905,-2.6162,-2.6325,-2.6393,-2.6508,-2.6597,-2.6434,-2.6237,-2.619,-2.6383,-2.6901,-2.6539,-2.6211,-2.6081,-2.5647,-2.5647,-2.5735,-2.5647,-2.5715,-2.585,-2.5993,-2.6101,-2.6224,-2.6318,-2.6706,-2.7407,-3.0349,-3.3246,-3.6317,-3.967,-4.2691,-4.5993,-4.5957,-4.622,-4.6171,-4.6123,-4.6111,-4.6111,-4.6075,-4.6027,-4.5809,-4.5495,-4.5242,-4.5061,-4.4807,-4.4566,-4.4518,-4.4518,-4.453,-4.4663,-4.5025,-4.5387,-4.5918,-4.6365,-4.6739,-4.6992,-4.7016,-4.6968,-4.692,-4.6727,-4.6401,-4.628,-4.622,-4.6389,-4.6594,-4.6884,-4.7125,-4.7306,-4.7415,-4.7234,-4.6944,-4.6654,-4.6582,-2.503,-2.5043,-2.505,-2.522,-2.5443,-2.5477,-2.5728,-2.6108,-2.6142,-2.6162,-2.6203,-2.6298,-2.6264,-2.6162,-2.6,-2.5844,-2.5708,-2.5505,-2.5518,-2.5701,-2.5606,-2.5681,-2.5803,-2.5755,-2.5613,-2.5471,-2.5308,-2.5131,-2.505,-2.5023,-2.503,-2.5036,-2.5152,-2.5254,-2.5349,-2.543,-2.5532,-2.5627,-2.5593,-2.5613,-2.5681,-2.5769,-2.5905,-2.6264,-2.64,-2.6468,-2.6664,-2.6664,-2.6522,-2.638,-2.6582,-2.6775,-2.6964,-2.7228,-2.6894,-2.617,-2.5728,-2.5755,-2.5789,-2.5728,-2.5762,-2.5844,-2.5912,-2.6081,-2.6244,-2.6366,-2.6427,-2.6898,-2.9225,-3.2724,-3.5813,-3.8327,-4.1416,-4.469,-4.6449,-4.6365,-4.628,-4.6196,-4.6111,-4.6111,-4.6099,-4.6039,-4.5954,-4.564,-4.5302,-4.5157,-4.488,-4.4566,-4.4554,-4.4554,-4.4626,-4.4663,-4.5,-4.5387,-4.5689,-4.6135,-4.657,-4.6799,-4.6908,-4.7053,-4.7125,-4.6823,-4.6425,-4.6365,-4.634,-4.6558,-4.6787,-4.704,-4.7294,-4.7511,-4.7584,-4.7547,-4.7282,-4.6908,-4.6642,-2.5084,-2.5192,-2.5308,-2.5403,-2.5471,-2.5586,-2.5823,-2.6135,-2.6257,-2.6366,-2.6441,-2.64,-2.6346,-2.6271,-2.6142,-2.5993,-2.581,-2.564,-2.5701,-2.5749,-2.5681,-2.5701,-2.585,-2.5776,-2.5674,-2.5566,-2.5389,-2.5179,-2.5077,-2.505,-2.5084,-2.5165,-2.5247,-2.5328,-2.5532,-2.562,-2.5701,-2.581,-2.5789,-2.5762,-2.581,-2.5884,-2.602,-2.6264,-2.6393,-2.6522,-2.6685,-2.6766,-2.6651,-2.6536,-2.7157,-2.7309,-2.7385,-2.8015,-2.7293,-2.6225,-2.5783,-2.5803,-2.5823,-2.5803,-2.5796,-2.585,-2.5939,-2.6108,-2.6251,-2.6359,-2.6488,-2.6987,-2.8356,-3.1853,-3.5025,-3.7577,-4.0092,-4.3691,-4.6654,-4.6534,-4.6425,-4.6292,-4.6159,-4.6135,-4.6123,-4.6063,-4.599,-4.5737,-4.5423,-4.5097,-4.4771,-4.4554,-4.4626,-4.4675,-4.4844,-4.4916,-4.5097,-4.5399,-4.5652,-4.5954,-4.6425,-4.6787,-4.6968,-4.7125,-4.7294,-4.698,-4.663,-4.6509,-4.6497,-4.6739,-4.6944,-4.7125,-4.7366,-4.7608,-4.768,-4.762,-4.7547,-4.7246,-4.6896,-2.5159,-2.5247,-2.5396,-2.5505,-2.5572,-2.5654,-2.5898,-2.621,-2.6325,-2.6481,-2.6651,-2.659,-2.6488,-2.6386,-2.6264,-2.6081,-2.5912,-2.5749,-2.5776,-2.581,-2.5796,-2.5789,-2.5803,-2.581,-2.5742,-2.564,-2.5457,-2.5274,-2.5125,-2.5125,-2.5179,-2.5247,-2.5294,-2.5443,-2.5681,-2.5749,-2.5817,-2.5898,-2.5898,-2.5898,-2.5898,-2.5932,-2.6061,-2.6264,-2.6407,-2.6542,-2.6698,-2.6793,-2.6705,-2.6912,-2.7812,-2.8306,-2.811,-2.8374,-2.7971,-2.6894,-2.6163,-2.5817,-2.585,-2.585,-2.581,-2.5871,-2.5905,-2.6047,-2.6196,-2.6312,-2.6515,-2.7008,-2.7097,-2.998,-3.3545,-3.6451,-3.9913,-4.3257,-4.5717,-4.6908,-4.6763,-4.6618,-4.6461,-4.6328,-4.6268,-4.6135,-4.5966,-4.5592,-4.529,-4.5025,-4.4687,-4.4638,-4.4699,-4.4819,-4.4988,-4.5194,-4.5363,-4.5471,-4.5664,-4.5966,-4.6328,-4.6666,-4.6968,-4.7137,-4.7234,-4.7065,-4.6859,-4.6751,-4.6763,-4.6956,-4.7149,-4.7282,-4.7427,-4.7656,-4.7692,-4.768,-4.7608,-4.7511,-4.7197,-2.526,-2.5281,-2.545,-2.5586,-2.5681,-2.5715,-2.5945,-2.6285,-2.6352,-2.6508,-2.6732,-2.6773,-2.6624,-2.6447,-2.6352,-2.6135,-2.5952,-2.5817,-2.583,-2.5844,-2.5789,-2.5823,-2.5864,-2.5884,-2.5796,-2.5694,-2.5545,-2.5376,-2.5206,-2.5213,-2.5226,-2.5281,-2.5403,-2.5552,-2.5701,-2.5817,-2.5898,-2.5898,-2.5898,-2.5898,-2.5898,-2.5912,-2.6095,-2.6251,-2.6386,-2.6522,-2.6705,-2.678,-2.6719,-2.7632,-2.8496,-2.8987,-2.9176,-2.9093,-2.8307,-2.7243,-2.6532,-2.6205,-2.5898,-2.5891,-2.5884,-2.5898,-2.5898,-2.5973,-2.6129,-2.6305,-2.6515,-2.6644,-2.6739,-2.8435,-3.2352,-3.5266,-3.8732,-4.2849,-4.5043,-4.7173,-4.7016,-4.6871,-4.6715,-4.6534,-4.6389,-4.6232,-4.5858,-4.5483,-4.5206,-4.494,-4.4795,-4.4795,-4.4832,-4.5,-4.5169,-4.5411,-4.5652,-4.5737,-4.5797,-4.5966,-4.628,-4.6534,-4.6823,-4.7053,-4.7197,-4.7137,-4.7089,-4.7016,-4.7077,-4.7173,-4.7306,-4.7451,-4.7596,-4.7692,-4.7692,-4.7692,-4.7668,-4.756,-4.7427,-2.5416,-2.5443,-2.5701,-2.5769,-2.5722,-2.581,-2.5986,-2.6176,-2.6312,-2.6461,-2.6624,-2.6732,-2.6644,-2.6366,-2.6366,-2.6196,-2.5932,-2.5844,-2.5857,-2.5878,-2.585,-2.5871,-2.5891,-2.5898,-2.581,-2.5728,-2.564,-2.5491,-2.5315,-2.5267,-2.5301,-2.5403,-2.5416,-2.5586,-2.583,-2.5898,-2.5898,-2.5898,-2.5898,-2.5898,-2.5905,-2.5959,-2.6095,-2.6237,-2.6366,-2.6556,-2.6719,-2.6793,-2.7118,-2.8076,-2.9329,-2.9812,-2.9977,-2.9846,-2.8733,-2.792,-2.6894,-2.6545,-2.6225,-2.5898,-2.5898,-2.5898,-2.5912,-2.5959,-2.6115,-2.6271,-2.6447,-2.6583,-2.7001,-2.842,-3.1381,-3.3362,-3.6237,-4.1713,-4.5215,-4.6611,-4.7053,-4.6956,-4.6847,-4.6666,-4.6509,-4.6208,-4.5797,-4.5483,-4.5218,-4.4952,-4.4687,-4.4711,-4.5,-4.5169,-4.5326,-4.5604,-4.5882,-4.599,-4.6039,-4.6002,-4.622,-4.6461,-4.6739,-4.7065,-4.7282,-4.7342,-4.7294,-4.7258,-4.7246,-4.7294,-4.7439,-4.7572,-4.762,-4.7692,-4.7692,-4.7692,-4.768,-4.7644,-4.7523]}]]